     2              OBSERVATION DATA    GPS                 RINEX VERSION / TYPE
ASRINEXO V2.2.0 UX USGS 28-MAR-94 14:35                     PGM / RUN BY / DATE
                                                            COMMENT
Original Marker Name: pl9c Pico_L9C_1967_re5869_LACo        COMMENT
Campaign Name: northridge eq profile                        COMMENT
4-Character Station Name: PL9C                              COMMENT
6-Character Antenna Code: ASHP12                            COMMENT
Vertical Measurement Point: EGP                             COMMENT
Vertical Offset to Rinex Ref. Point: 0.0593                 COMMENT
Radial Measurement Point: EGP                               COMMENT
Radial Offset to Rinex Ref. Point: 0.1425                   COMMENT
Antenna Height from Field Measurement: 1.3700 m             COMMENT
Additional Antenna Identification Info.:                    COMMENT
Ashtech L1/L2 Revision B                                    COMMENT
Original XYZ: -2732330.5400 -4217671.0100 3914485.3800      COMMENT
New XYZ position is based on association with SCEC monument COMMENT
E1E9I3F8+0011. Position of that monument is believed to be  COMMENT
valid to within 1 m horizontally; vertical accuracy         COMMENT
should be no worse than 3-times this value.                 COMMENT
                                                            COMMENT
Revised Rinex header created by UCSD GPS archive for        COMMENT
GSAC on 31-Aug-1999 (1999:243) 18:55:16 GMT                 COMMENT
For assistance contact dagnew@ucsd.edu or hjohnson@ucsd.edu COMMENT
                                                            COMMENT
PL9C PICO_L9C_1967_RE5869_LACO                              MARKER NAME
                                                            MARKER NUMBER
GDH US GEOLOGICAL SURVEY                                    OBSERVER / AGENCY
765 ASHTECH L-XII 7A                                        REC # / TYPE / VERS
58 ASHTECH GEODETIC P                                       ANT # / TYPE
 -2524531.0000 -4630059.0000  3577397.0000                  APPROX POSITION XYZ
        1.3033        0.0000        0.0000                  ANTENNA: DELTA H/E/N
     1     2     0                                          WAVELENGTH FACT L1/2
     3    C1    L1    L2                                    # / TYPES OF OBSERV
    30                                                      INTERVAL
  1994     3    15     3    33    0.000000                  TIME OF FIRST OBS
  1994     3    15     7    17   30.000000                  TIME OF LAST OBS
                                                            END OF HEADER
 94  3 15  3 33  0.0000000  0  4  4  9 12 13
  21938582.735     2060145.00517    182605.011
  22428216.399    -3558856.74916    193306.984
  21220568.376    -2558196.58117    129994.849
  22750631.735    17104970.09816    164194.949
 94  3 15  3 33 30.0000000  0  6  4  5  9 12 13 20
  22252357.993     2133635.505 7    239869.982 1
  20735272.919    10208412.95419    -83820.065 1
  22742832.665    -3480965.356 6    254001.687 2
  21530581.389    -2504485.093 7    171851.171 2
  23062402.131    17167903.137 6    213235.368 1
  22829518.433    24031966.66416   -171953.619
 94  3 15  3 34  0.0000000  0  6  4  5  9 12 13 20
  22266340.883     2207108.476 7    297121.654 3
  20727407.504    10167110.012 8   -116004.152 5
  22757649.187    -3403088.007 6    314685.314 3
  21540846.043    -2450539.575 7    213886.639 3
  23074319.901    17230562.610 6    262060.891 2
  22811515.237    23937351.457 6   -245682.511
 94  3 15  3 34 30.0000000  0  7 24  4  5  9 12 13 20
  20738586.255     9831804.35618     35229.322 1
  22280340.771     2280665.126 7    354438.517 4
  20719588.258    10125995.419 9   -148041.497 6
  22772478.871    -3325157.915 6    375410.067 3
  21551170.295    -2396276.899 7    256169.247 5
  23086211.049    17293032.150 6    310738.463 2
  22793498.819    23842716.155 6   -319414.476
 94  3 15  3 35  0.0000000  0  8 24 16  4  5  9 12 13 20
  20742219.410     9850938.612 8     50140.395 1
  23898682.636    -2701793.31115   -240064.905
  22294368.990     2354390.402 7    411886.783 5
  20711823.603    10085166.146 9   -179856.506 8
  22787328.940    -3247113.044 6    436224.252 4
  21561573.303    -2341625.132 7    298755.027 5
  23098076.354    17355384.938 6    359325.070 2
  22775511.122    23748136.990 7   -393112.558
 94  3 15  3 35 30.0000000  0  8 24 16  4  5  9 12 13 20
  20745940.914     9870449.301 8     65346.455 3
  23880056.381    -2799660.893 5   -316325.292 1
  22308443.766     2428370.107 7    469533.322 5
  20704116.179    10044687.482 9   -211398.303 8
  22802211.657    -3168902.671 6    497167.355 4
  21572058.814    -2286529.484 7    341686.707 6
  23109927.750    17417676.622 6    407864.042 2
  22757532.628    23653673.020 7   -466720.053 1
 94  3 15  3 36  0.0000000  0  8 24 16  4  5  9 12 13 20
  20749733.019     9890346.940 8     80851.105 6
  23861439.629    -2897492.760 5   -392557.904 1
  22322580.299     2502638.288 7    527404.623 6
  20696482.863    10004594.656 9   -242639.467 9
  22817130.919    -3090512.963 6    558250.242 4
  21582627.878    -2230971.956 7    384978.269 6
  23121778.036    17479926.223 6    456370.220 2
  22739578.178    23559346.530 7   -540221.221 2
 94  3 15  3 36 30.0000000  0  8 24 16  4  5  9 12 13 20
  20753589.939     9910659.860 8     96679.371 7
  23842833.820    -2995269.666 5   -468747.782 2
  22336767.707     2577199.772 7    585504.502 6
  20688935.768     9964922.050 9   -273553.180 9
  22832090.623    -3011910.654 6    619498.761 4
  21593293.294    -2174929.876 7    428647.414 6
  23133624.275    17542157.557 6    504862.177 2
  22721662.610    23465184.496 6   -613594.215 2
 94  3 15  3 37  0.0000000  0  8 24 16  4  5  9 12 13 20
  20757547.109     9931431.704 8    112865.231 8
  23824247.257    -3092952.691 5   -544864.333 2
  22351016.064     2652073.258 7    643847.464 6
  20681476.572     9925709.581 9   -304108.336 9
  22847097.603    -2933048.210 6    680950.037 4
  21604056.923    -2118365.295 7    472723.699 6
  23145463.949    17604409.499 6    553370.196 2
  22703784.037    23371229.505 6   -686805.859 3
 94  3 15  3 37 30.0000000  0  8 24 16  4  5  9 12 13 20
  20761598.894     9952720.889 8    129454.218 9
  23805686.956    -3190484.150 6   -620862.818 2
  22365327.346     2727288.374 7    702456.653 6
  20674114.029     9887011.729 9   -334262.501 9
  22862163.194    -2853860.654 6    742654.597 4
  21614929.556    -2061226.978 7    517247.072 6
  23157326.556    17666734.679 6    601935.265 2
  22685959.037    23277537.067 6   -759812.939 3
 94  3 15  3 38  0.0000000  0  8 24 16  4  5  9 12 13 20
  20765755.876     9974579.515 8    146486.923 9
  23787161.311    -3287842.029 5   -696726.066 2
  22379706.262     2802831.270 7    761321.254 6
  20666852.066     9848856.107 9   -363994.140 9
  22877299.025    -2774316.760 6    804636.831 4
  21625916.559    -2003492.247 7    562235.156 6
  23169204.843    17729156.736 6    650575.832 2
  22668181.854    23184134.402 6   -832594.201 3
 94  3 15  3 38 30.0000000  0  8 24 16  4  5  9 12 13 20
  20770024.321     9997015.197 8    163969.275 9
  23768666.964    -3385013.416 5   -772444.010 2
  22394138.690     2878676.876 7    820421.724 6
  20659691.163     9811239.131 9   -393306.056 9
  22892506.118    -2694409.379 6    866902.336 4
  21637020.452    -1945154.171 7    607693.399 6
  23181104.116    17791684.008 6    699298.409 2
  22650460.283    23091032.818 6   -905140.858 4
 94  3 15  3 39  0.0000000  0  8 24 16  4  5  9 12 13 20
  20774397.514    10019992.183 8    181873.429 9
  23750213.569    -3482008.606 6   -848024.682 2
  22408622.324     2954798.206 7    879737.065 6
  20652629.552     9774124.764 9   -422226.346 9
  22907771.370    -2614173.708 6    929423.616 5
  21648231.251    -1886241.664 7    653599.232 6
  23193018.527    17854288.733 6    748081.297 2
  22632797.920    22998207.724 6   -977472.080 4
 94  3 15  3 39 30.0000000  0  8 24 16  4  5  9 12 13 20
  20778871.317    10043519.529 8    200206.434 9
  23731790.154    -3578815.846 6   -923458.806 2
  22423159.320     3031202.368 7    939272.764 6
  20645664.534     9737521.720 9   -450748.187 9
  22923107.703    -2533595.984 6    992211.424 5
  21659553.093    -1826745.406 7    699959.948 6
  23204944.811    17916981.568 7    796932.878 2
  22615187.841    22905673.171 6  -1049576.907 4
 94  3 15  3 40  0.0000000  0  8 24 16  4  5  9 12 13 20
  20783452.925    10067586.167 8    218959.674 9
  23713405.231    -3675428.065 5   -998740.998 2
  22437756.454     3107902.336 7    999038.978 6
  20638793.291     9701423.049 9   -478877.009 9
  22938506.452    -2452678.257 6   1055264.184 5
  21670984.779    -1766663.202 7    746777.246 6
  23216892.470    17979765.850 6    845855.698 2
  22597632.535    22813436.065 6  -1121449.953 4
 94  3 15  3 40 30.0000000  0  8 24 16  4  5  9 12 13 20
  20788126.450    10092158.995 8    238107.334 9
  23695061.260    -3771843.274 6  -1073869.735 2
  22452409.350     3184905.542 7   1059041.473 6
  20632022.388     9665823.583 9   -506616.844 9
  22953960.094    -2371449.189 6   1118559.572 5
  21682527.209    -1706011.623 7    794038.197 6
  23228850.711    18042626.576 6    894838.068 2
  22580135.208    22721484.400 7  -1193100.582 4
 94  3 15  3 41  0.0000000  0  8 24 16  4  5  9 12 13 20
  20792902.503    10117250.494 8    257659.176 9
  23676750.327    -3868050.072 6  -1148836.031 2
  22467128.381     3262246.492 7   1119307.174 6
  20625345.351     9630745.606 8   -533950.328 9
  22969480.110    -2289907.840 6   1182098.259 5
  21694178.763    -1644785.845 7    841746.598 6
  23240833.955    18105569.433 7    943884.478 2
  22562696.610    22629827.361 7  -1264521.598 4
 94  3 15  3 41 30.0000000  0  8 24 16  4  5  9 12 13 20
  20797774.820    10142840.655 8    277599.558 9
  23658475.608    -3964069.456 5  -1223656.293 2
  22481903.442     3339913.399 7   1179826.823 6
  20618765.955     9596177.497 8   -560886.511 9
  22985049.951    -2208082.498 6   1245858.265 5
  21705931.226    -1583007.158 7    889885.821 6
  23252822.776    18168575.015 7    992979.737 2
  22545310.087    22538448.302 7  -1335726.061 4
 94  3 15  3 42  0.0000000  0  8 24 16  4  5  9 12 13 20
  20802736.955    10168920.091 8    297921.211 9
  23640244.180    -4059900.650 5  -1298329.925 2
  22496749.285     3417918.322 7   1240609.899 6
  20612288.280     9562122.711 9   -587422.703 9
  23000672.766    -2125991.888 6   1309824.932 5
  21717793.115    -1520684.941 7    938448.590 6
  23264820.440    18231635.299 7   1042117.635 2
  22527971.800    22447342.769 7  -1406717.360 4
 94  3 15  3 42 30.0000000  0  8 24 16  4  5  9 12 13 20
  20807793.914    10195503.208 8    318635.346 9
  23622040.212    -4155554.437 6  -1372865.271 2
  22511657.514     3496253.408 7   1301650.237 6
  20605907.647     9528591.073 9   -613551.247 9
  23016341.119    -2043648.358 6   1373988.721 5
  21729753.575    -1457824.528 7    987430.731 6
  23276836.272    18294746.062 6   1091294.820 2
  22510692.632    22356509.843 7  -1477496.233 4
 94  3 15  3 43  0.0000000  0  8 24 16  4  5  9 12 13 20
  20812953.012    10222586.339 8    339739.090 9
  23603870.121    -4251033.607 6  -1447264.565 2
  22526627.950     3574908.311 7   1362939.780 6
  20599620.220     9495568.765 8   -639282.905 9
  23032058.847    -1961039.696 6   1438359.110 4
  21741818.063    -1394423.972 7   1036833.746 6
  23288852.553    18357911.170 6   1140514.424 2
  22493458.912    22265956.393 7  -1548057.322 4
 94  3 15  3 43 30.0000000  0  8 24 16  4  5  9 12 13 20
  20818195.483    10250164.161 8    361228.315 9
  23585732.107    -4346341.995 6  -1521530.823 2
  22541647.942     3653864.197 7   1424463.831 6
  20593433.942     9463048.322 8   -664623.504 9
  23047831.918    -1878165.768 6   1502936.165 4
  21753990.536    -1330483.343 7   1086657.612 6
  23300881.006    18421131.903 6   1189777.332 2
  22476280.715    22175687.177 7  -1618396.966 4
 94  3 15  3 44  0.0000000  0  8 24 16  4  5  9 12 13 20
  20823536.676    10278238.676 8    383104.567 9
  23567634.596    -4441477.891 5  -1595662.670 2
  22556732.509     3733111.833 7   1486215.249 6
  20587342.759     9431029.193 8   -689573.461 9
  23063655.324    -1795023.426 6   1567722.411 4
  21766253.546    -1266008.915 7   1136897.412 6
  23312919.352    18484403.398 6   1239079.805 2
  22459161.756    22085700.525 7  -1688516.403 4
 94  3 15  3 44 30.0000000  0  8 24 16  4  5  9 12 13 20
  20828973.622    10306799.607 8    405359.880 9
  23549562.987    -4536431.803 6  -1669652.683 2
  22571857.398     3812631.145 7   1548178.364 6
  20581338.876     9399495.009 9   -714145.555 9
  23079523.728    -1711623.477 6   1632709.355 5
  21778626.910    -1201003.140 7   1187551.276 6
  23324971.968    18547724.837 6   1288421.175 2
  22442088.425    21995998.966 7  -1758413.700 4
 94  3 15  3 45  0.0000000  0  8 24 16  4  5  9 12 13 20
  20834498.497    10335831.897 8    427982.422 9
  23531532.749    -4631198.999 6  -1743497.190 2
  22587044.704     3892417.680 7   1610349.684 6
  20575429.936     9368439.975 8   -738344.259 9
  23095446.215    -1627967.390 6   1697895.930 5
  21791094.649    -1135468.680 7   1238617.079 6
  23337027.522    18611095.201 6   1337800.684 2
  22425063.901    21906584.411 7  -1828087.346 4
 94  3 15  3 45 30.0000000  0  8 24 16  4  5  9 12 13 20
  20840115.828    10365348.755 8    450982.584 9
  23513529.612    -4725775.161 5  -1817192.848 2
  22602277.909     3972472.485 7   1672730.048 6
  20569617.200     9337877.546 8   -762159.149 9
  23111408.575    -1544056.953 6   1763280.640 5
  21803666.925    -1069408.386 7   1290092.614 6
  23349095.697    18674513.114 6   1387217.251 3
  22408107.760    21817458.744 7  -1897535.895 4
 94  3 15  3 46  0.0000000  0  8 24 16  4  5  9 12 13 20
  20845828.193    10395347.113 8    474357.934 9
  23495569.046    -4820162.166 6  -1890741.147 2
  22617560.069     4052793.024 7   1735317.469 6
  20563893.233     9307805.640 9   -785591.795 9
  23127421.689    -1459903.224 6   1828854.978 4
  21816335.915    -1002832.746 7   1341969.729 6
  23361177.034    18737969.770 6   1436663.984 3
  22391195.628    21728616.262 7  -1966763.757 4
 94  3 15  3 46 30.0000000  0  8 24 16  4  5  9 12 13 20
  20851624.231    10425830.905 8    498111.559 9
  23477646.074    -4914361.245 6  -1964142.966 3
  22632899.370     4133380.878 7   1798113.208 5
  20558263.820     9278229.318 8   -808638.269 9
  23143484.569    -1375507.845 6   1894617.598 4
  21829107.104     -935737.480 7   1394251.755 6
  23373256.811    18801471.008 6   1486145.466 2
  22374352.028    21640065.953 7  -2035763.991 4
 94  3 15  3 47  0.0000000  0  8 24 16  4  5  9 12 13 20
  20857522.648    10456811.084 8    522251.955 9
  23459753.231    -5008372.650 6  -2037398.570 3
  22648286.368     4214239.838 7   1861120.218 5
  20552731.750     9249171.587 8   -831280.669 9
  23159591.428    -1290856.259 6   1960579.859 4
  21841968.920     -868124.562 7   1446937.126 6
  23385350.109    18865017.008 6   1535661.837 2
  22357553.758    21551811.150 7  -2104533.922 5
 94  3 15  3 47 30.0000000  0  8 24 16  4  5  9 12 13 20
  20863510.132    10488282.782 8    546775.356 9
  23441898.282    -5102189.728 6  -2110502.743 3
  22663726.848     4295373.463 7   1924341.222 5
  20547302.688     9220639.548 8   -853513.392 9
  23175749.762    -1205956.728 6   2026735.312 4
  21854937.372     -800001.904 7   1500019.740 6
  23397447.754    18928601.040 6   1585207.832 2
  22340820.212    21463848.271 7  -2173076.393 5
 94  3 15  3 48  0.0000000  0  8 24 16  4  5  9 12 13 20
  20869586.056    10520228.993 8    571668.522 9
  23424084.764    -5195810.149 5  -2183453.680 3
  22679218.564     4376778.768 7   1987773.924 5
  20541973.787     9192630.198 8   -875338.848 9
  23191945.540    -1120829.210 6   2093068.443 4
  21867992.944     -731376.123 7   1553494.349 6
  23409561.078    18992218.564 6   1634779.944 2
  22324136.222    21376175.918 7  -2241392.490 5
 94  3 15  3 48 30.0000000  0  8 24 16  4  5  9 12 13 20
  20875755.755    10552629.531 8    596915.700 9
  23406312.167    -5289217.172 6  -2256238.352 3
  22694757.766     4458448.891 7   2051412.968 5
  20536747.895     9165153.989 8   -896748.871 9
  23208194.591    -1035472.248 6   2159580.354 4
  21881147.897     -662246.776 7   1607361.364 6
  23421670.055    19055871.650 6   1684379.753 2
  22307513.360    21288799.201 7  -2309478.202 5
 94  3 15  3 49  0.0000000  0  8 24 16  4  5  9 12 13 20
  20882005.408    10585477.488 8    622511.514 9
  23388579.473    -5382406.520 6  -2328853.385 3
  22710349.013     4540384.238 7   2115258.717 5
  20531620.365     9138215.374 8   -917739.999 9
  23224480.367     -949889.691 6   2226268.040 4
  21894397.494     -592615.279 7   1661619.676 6
  23433792.943    19119560.715 6   1734007.579 2
  22290937.715    21201722.196 7  -2377330.405 5
 94  3 15  3 49 30.0000000  0  8 24 16  4  5  9 12 13 20
  20888342.152    10618771.905 8    648455.229 9
  23370888.181    -5475378.107 6  -2401298.725 3
  22725994.102     4622581.072 7   2179308.198 5
  20526592.486     9111802.908 8   -938321.128 9
  23240808.503     -864092.328 6   2293123.127 4
  21907741.526     -522482.969 7   1716268.222 6
  23445918.049    19183286.402 6   1783663.957 2
  22274424.667    21114948.292 7  -2444946.410 5
 94  3 15  3 50  0.0000000  0  8 24 16  4  5  9 12 13 20
  20894761.068    10652509.993 8    674744.644 9
  23353232.354    -5568131.624 6  -2473574.157 3
  22741676.185     4705016.556 7   2243543.636 5
  20521663.478     9085902.002 8   -958503.658 9
  23257169.946     -778086.703 6   2360140.495 4
  21921185.119     -451855.531 7   1771302.574 6
  23458049.210    19247044.716 6   1833345.762 2
  22257969.029    21028476.775 7  -2512326.781 5
 94  3 15  3 50 30.0000000  0  8 24 16  4  5  9 12 13 20
  20901266.414    10686701.135 8    701387.095 9
  23335630.519    -5660669.968 6  -2545681.916 3
  22757408.214     4787685.436 7   2307960.942 5
  20516833.612     9060507.959 8   -978291.216 9
  23273577.947     -691867.385 6   2427324.355 4
  21934714.243     -380737.136 7   1826719.505 6
  23470185.559    19310833.510 6   1883051.300 2
  22241570.381    20942308.626 7  -2579470.777 5
 94  3 15  3 51  0.0000000  0  8 24 16  4  5  9 12 13 20
  20907861.938    10721364.809 8    728397.753 9
  23318056.985    -5752999.828 6  -2617627.204 3
  22773187.221     4870582.610 7   2372556.151 5
  20512093.473     9035612.708 8   -997690.093 9
  23290023.782     -605435.904 6   2494673.546 4
  21948344.757     -309130.832 7   1882516.627 6
  23482337.046    19374651.432 6   1932779.561 2
  22225226.716    20856445.611 7  -2646377.007 5
 94  3 15  3 51 30.0000000  0  8 24 16  4  5  9 12 13 20
  20914545.152    10756488.280 8    755766.701 9
  23300529.019    -5845106.514 6  -2689398.573 3
  22789001.782     4953702.896 7   2437325.213 5
  20507451.817     9011216.741 8  -1016699.942 9
  23306513.806     -518795.986 6   2562185.141 4
  21962063.710     -237041.291 7   1938690.302 6
  23494482.718    19438496.148 6   1982528.685 2
  22208950.264    20770888.428 7  -2713044.912 5
 94  3 15  3 52  0.0000000  0  8 24 16  4  5  9 12 13 20
  20921315.425    10792074.534 8    783496.254 9
  23283047.402    -5936974.778 6  -2760984.219 3
  22804864.431     5037062.708 7   2502280.901 5
  20502908.552     8987335.539 8  -1035308.666 9
  23323040.585     -431942.966 6   2629862.794 4
  21975879.465     -164460.355 7   1995246.848 6
  23506641.341    19502377.220 6   2032306.137 2
  22192731.222    20685649.924 7  -2779464.526 5
 94  3 15  3 52 30.0000000  0  8 24 16  4  5  9 12 13 20
  20928174.826    10828108.058 8    811574.336 9
  23265611.532    -6028621.442 6  -2832397.149 3
  22820770.429     5120656.929 7   2567419.256 5
  20498461.281     8963971.683 8  -1053514.261 9
  23339604.778     -344887.798 6   2697697.975 4
  21989776.704      -91400.481 7   2052176.587 6
  23518797.775    19566284.710 6   2082104.151 2
  22176565.183    20600723.064 7  -2845641.285 5
 94  3 15  3 53  0.0000000  0  8 24 16  4  5  9 12 13 20
  20935114.542    10864580.419 8    839994.359 9
  23248209.090    -6120037.029 6  -2903630.022 3
  22836726.583     5204493.189 7   2632746.194 5
  20494116.568     8941143.747 8  -1071302.255 9
  23356210.942     -257623.776 6   2765695.907 4
  22003768.798      -17857.286 7   2109482.993 6
  23530965.961    19630224.663 6   2131927.489 2
  22160471.335    20516117.021 7  -2911568.038 5
 94  3 15  3 53 30.0000000  0  8 24 16  4  5  9 12 13 20
  20942136.011    10901477.041 8    868744.990 9
  23230858.331    -6211221.257 6  -2974682.634 3
  22852725.277     5288574.728 7   2698264.294 5
  20489876.813     8918847.103 8  -1088676.264 9
  23372860.695     -170154.965 6   2833853.403 4
  22017856.915       56158.825 7   2167157.873 6
  23543140.173    19694188.876 6   2181769.766 2
  22144435.107    20431826.440 7  -2977248.997 5
 94  3 15  3 54  0.0000000  0  8 24 16  4  5  9 12 13 20
  20949239.653    10938811.757 8    897836.972 9
  23213553.381    -6302178.542 6  -3045558.411 3
  22868773.378     5372890.832 7   2763965.151 5
  20485733.112     8897076.799 8  -1105640.127 9
  23389547.293      -82472.893 6   2902177.101 4
  22032027.205      130640.533 7   2225195.558 6
  23555315.045    19758171.949 6   2231626.740 2
  22128452.661    20347849.013 7  -3042685.963 5
 94  3 15  3 54 30.0000000  0  8 24 16  4  5  9 12 13 20
  20956427.117    10976577.407 8    927264.762 9
  23196286.535    -6392906.298 6  -3116255.306 3
  22884857.753     5457428.648 7   2829838.764 5
  20481690.711     8875837.322 8  -1122190.374 9
  23406266.509        5429.867 6   2970672.743 4
  22046291.300      205584.731 7   2283593.620 6
  23567492.225    19822173.051 6   2281497.689 2
  22112530.654    20264187.098 7  -3107877.044 5
 94  3 15  3 55  0.0000000  0  8 24 16  4  5  9 12 13 20
  20963698.763    11014781.630 8    957034.287 9
  23179072.332    -6483388.241 6  -3186760.707 3
  22900982.690     5542193.104 7   2895888.992 5
  20477748.440     8855121.869 8  -1138332.283 9
  23423040.017       93556.281 6   3039342.641 4
  22060638.917      280991.918 7   2342352.462 6
  23579674.771    19886194.679 6   2331384.661 2
  22096672.562    20180846.146 7  -3172818.032 5
 94  3 15  3 55 30.0000000  0  8 24 16  4  5  9 12 13 20
  20971052.103    11053421.247 8    987143.095 9
  23161896.263    -6573620.779 6  -3257071.708 3
  22917155.204     5627177.288 7   2962110.442 5
  20473904.501     8834921.535 8  -1154072.793 9
  23439849.140      181880.710 6   3108166.872 4
  22075079.021      356857.259 7   2401468.312 6
  23591862.354    19950234.157 6   2381285.586 2
  22080875.268    20097826.401 7  -3237508.723 5
 94  3 15  3 56  0.0000000  0  8 24 16  4  5  9 12 13 20
  20978485.457    11092494.887 8   1017590.088 9
  23144776.225    -6663600.127 6  -3327185.467 3
  22933367.620     5712365.654 7   3028490.998 5
  20470157.965     8815240.327 8  -1169408.796 9
  23456683.356      270387.802 5   3177133.422 4
  22089600.338      433179.554 7   2460940.203 5
  23604052.964    20014292.296 6   2431201.031 2
  22065137.813    20015132.191 7  -3301945.750 5
 94  3 15  3 56 30.0000000  0  8 24 16  4  5  9 12 13 20
  20986002.843    11131985.456 8   1048361.961 9
  23127700.766    -6753338.669 6  -3397111.546 3
  22949619.009     5797749.135 6   3095023.564 5
  20466509.580     8796066.858 8  -1184349.168 9
  23473559.543      359046.028 5   3246217.709 4
  22104207.186      509949.628 7   2520761.047 5
  23616243.035    20078362.335 6   2481125.743 2
  22049458.398    19932759.465 7  -3366132.286 5
 94  3 15  3 57  0.0000000  0  8 24 16  4  5  9 12 13 20
  20993596.286    11171898.668 8   1079463.165 9
  23110664.700    -6842831.600 6  -3466846.260 3
  22965905.025     5883334.391 6   3161713.362 5
  20462960.187     8777402.321 9  -1198892.959 9
  23490458.454      447834.608 6   3315403.581 4
  22118903.971      587165.101 7   2580928.947 5
  23628438.053    20142444.084 6   2531059.571 2
  22033846.825    19850711.177 7  -3430066.007 5
 94  3 15  3 57 30.0000000  0  8 24 16  4  5  9 12 13 20
  21001271.063    11212221.535 8   1110883.597 9
  23093681.517    -6932083.102 6  -3536392.857 3
  22982224.827     5969109.075 6   3228550.772 5
  20459504.660     8759248.740 8  -1213038.593 9
  23507374.903      536750.566 6   3384688.715 4
  22133682.510      664823.112 7   2641441.681 5
  23640636.848    20206536.840 6   2581001.997 2
  22018296.800    19768989.519 7  -3493745.205 5
 94  3 15  3 58  0.0000000  0  8 24 16  4  5  9 12 13 20
  21009022.526    11252961.136 8   1142628.739 9
  23076741.864    -7021101.247 6  -3605757.618 3
  22998584.651     6055069.777 6   3295533.130 5
  20456149.113     8741611.279 8  -1226782.075 9
  23524325.259      625818.121 6   3454092.001 4
  22148545.741      742921.500 7   2702297.550 5
  23652831.086    20270640.509 6   2630952.914 2
  22002810.571    19687597.594 7  -3557167.470 5
 94  3 15  3 58 30.0000000  0  8 24 16  4  5  9 12 13 20
  21016855.744    11294110.917 8   1174693.516 9
  23059846.041    -7109893.208 6  -3674946.105 3
  23014977.962     6141230.565 6   3362671.412 5
  20452890.489     8724504.227 8  -1240112.239 9
  23541295.760      715029.017 5   3523606.994 3
  22163488.446      821458.469 7   2763495.176 5
  23665027.662    20334755.759 6   2680912.800 2
  21987384.690    19606538.893 7  -3620330.071 5
 94  3 15  3 59  0.0000000  0  8 24 16  4  5  9 12 13 20
  21024759.652    11335662.587 8   1207071.434 9
  23042995.576    -7198451.063 6  -3743952.192 3
  23031412.315     6227585.213 6   3429960.749 5
  20449739.160     8707930.348 8  -1253026.957 9
  23558297.050      804380.834 5   3593231.744 3
  22178514.224      900426.655 7   2825028.819 5
  23677232.753    20398877.549 6   2730877.847 2
  21972022.036    19525811.306 7  -3683234.678 5
 94  3 15  3 59 30.0000000  0  8 24 16  4  5  9 12 13 20
  21032744.054    11377621.092 8   1239766.388 9
  23026192.599    -7286761.621 6  -3812765.598 3
  23047879.765     6314121.428 6   3497391.558 5
  20446687.153     8691898.349 9  -1265519.414 9
  23575338.483      893893.592 5   3662981.911 3
  22193625.593      979828.042 7   2886900.036 5
  23689442.940    20463010.308 6   2780851.432 2
  21956725.096    19445422.207 7  -3745875.516 6
 94  3 15  4  0  0.0000000  0  8 24 16  4  5  9 12 13 20
  21040811.229    11419999.091 8   1272788.204 9
  23009432.132    -7374811.066 6  -3881375.555 3
  23064387.027     6400853.836 6   3564975.262 5
  20443742.831     8676423.712 9  -1277577.580 9
  23592400.151      983549.405 5   3732843.576 3
  22208816.676     1059663.504 7   2949109.464 5
  23701639.396    20527157.022 6   2830835.905 2
  21941491.981    19365377.698 7  -3808247.850 6
 94  3 15  4  0 30.0000000  0  8 24 16  4  5  9 12 13 20
  21048952.154    11462783.678 8   1306126.850 9
  22992735.520    -7462579.760 6  -3949766.697 3
  23080925.318     6487773.395 6   3632704.786 5
  20440900.919     8661491.136 8  -1289213.344 9
  23609475.730     1073319.350 5   3802794.159 3
  22224084.387     1139922.247 7   3011648.750 5
  23713850.393    20591309.496 6   2880824.841 2
  21926325.661    19285672.438 7  -3870355.826 6
 94  3 15  4  1  0.0000000  0  8 24 16  4  5  9 12 13 20
  21057171.384    11505974.298 8   1339781.881 9
  22976086.396    -7550048.032 6  -4017923.740 3
  23097496.106     6574877.128 6   3700577.805 5
  20438160.216     8647086.510 8  -1300437.728 9
  23626593.040     1163220.296 5   3872846.786 3
  22239443.743     1220603.390 7   3074517.155 5
  23726060.490    20655468.964 6   2930819.198 2
  21911225.774    19206310.505 7  -3932196.269 6
 94  3 15  4  1 30.0000000  0  8 24 16  4  5  9 12 13 20
  21065464.273    11549563.285 8   1373747.338 9
  22959496.811    -7637225.978 6  -4085854.580 3
  23114111.354     6662176.037 6   3768602.940 5
  20435523.182     8633214.028 8  -1311247.451 9
  23643723.421     1253252.400 6   3943001.661 3
  22254874.061     1301702.901 7   3137711.581 5
  23738272.236    20719633.867 5   2980817.840 2
  21896185.996    19127293.291 7  -3993768.112 6
 94  3 15  4  2  0.0000000  0  8 24 16  4  5  9 12 13 20
  21073832.409    11593543.194 8   1408017.384 9
  22942964.366    -7724129.453 6  -4153571.518 3
  23130766.324     6749689.281 6   3836795.063 5
  20432981.391     8619867.023 8  -1321647.720 9
  23660875.147     1343407.356 6   4013252.272 3
  22270387.691     1383216.079 7   3201228.342 5
  23750481.854    20783802.024 5   3030818.978 2
  21881213.341    19048621.672 7  -4055070.666 6
 94  3 15  4  2 30.0000000  0  8 24 16  4  5  9 12 13 20
  21082274.085    11637907.567 8   1442587.042 9
  22926472.034    -7810766.442 6  -4221080.855 3
  23147457.419     6837406.584 6   3905146.228 5
  20430540.151     8607037.887 8  -1331644.447 9
  23678060.450     1433709.495 5   4083617.549 3
  22285982.236     1465138.402 7   3265063.922 5
  23762695.488    20847971.326 6   3080821.011 2
  21866317.164    18970296.168 8  -4116103.510 6
 94  3 15  4  3  0.0000000  0  8 24 16  4  5  9 12 13 20
  21090788.671    11682655.169 8   1477455.286 9
  22910039.300    -7897148.613 6  -4288391.648 3
  23164188.386     6925317.768 6   3973648.453 4
  20428198.652     8594735.591 8  -1341230.660 9
  23695274.503     1524161.299 5   4154099.484 3
  22301643.753     1547464.729 7   3329214.270 5
  23774907.984    20912139.181 6   3130821.942 2
  21851474.289    18892317.134 7  -4176866.376 6
 94  3 15  4  3 30.0000000  0  8 24 16  4  5  9 12 13 20
  21099378.744    11727790.509 8   1512625.692 9
  22893646.169    -7983280.559 6  -4355507.377 3
  23180953.410     7013408.606 6   4042290.664 4
  20425961.781     8582971.072 8  -1350397.812 9
  23712516.526     1614754.001 6   4224691.170 3
  22317386.905     1630191.701 7   3393676.859 5
  23787120.119    20976304.591 6   3180820.940 2
  21836697.729    18814686.617 7  -4237357.667 6
 94  3 15  4  4  0.0000000  0  8 24 16  4  5  9 12 13 20
  21108043.346    11773321.311 8   1548104.239 9
  22877309.488    -8069143.314 6  -4422413.366 3
  23197744.246     7101655.421 6   4111054.392 4
  20423825.850     8571745.029 8  -1359145.367 9
  23729778.546     1705488.670 5   4295393.461 3
  22333201.406     1713315.633 7   3458448.750 5
  23799329.737    21040466.424 5   3230817.223 2
  21821994.078    18737406.406 8  -4297575.998 6
 94  3 15  4  4 30.0000000  0  8 24 16  4  5  9 12 13 20
  21116784.364    11819244.154 8   1583888.291 9
  22861026.531    -8154710.631 6  -4489089.193 3
  23214564.701     7190037.067 6   4179923.220 4
  20421795.235     8561065.681 8  -1367466.944 9
  23747069.316     1796358.515 5   4366201.101 3
  22349095.983     1796839.748 7   3523532.457 5
  23811535.697    21104630.373 6   3280815.018 2
  21807353.863    18660484.985 7  -4357514.774 6
 94  3 15  4  5  0.0000000  0  8 24 16  4  5  9 12 13 20
  21125593.676    11865542.443 8   1619964.883 9
  22844799.394    -8239977.554 6  -4555530.897 3
  23231407.102     7278544.908 6   4248890.369 4
  20419864.092     8550935.357 8  -1375360.711 9
  23764381.251     1887335.367 5   4437092.164 3
  22365067.366     1880755.878 7   3588921.656 5
  23823747.713    21168790.861 6   3330810.233 2
  21792784.729    18583919.750 7  -4417175.972 6
 94  3 15  4  5 30.0000000  0  8 24 16  4  5  9 12 13 20
  21134474.248    11912209.310 8   1656328.681 9
  22828632.217    -8324940.508 6  -4621735.784 3
  23248271.387     7367188.860 6   4317963.572 4
  20418038.356     8541347.139 8  -1382832.038 9
  23781723.675     1978423.698 6   4508070.052 3
  22381111.239     1965064.732 7   3654616.851 5
  23835953.253    21232951.312 6   3380805.379 2
  21778287.275    18507716.668 8  -4476554.990 6
 94  3 15  4  6  0.0000000  0  8 24 16  4  5  9 12 13 20
  21143421.704    11959240.094 8   1692976.030 9
  22812520.830    -8409593.706 6  -4687699.311 3
  23265168.859     7455974.011 6   4387146.802 4
  20416317.727     8532299.322 8  -1389882.296 9
  23799072.515     2069614.708 5   4579127.973 3
  22397229.850     2049766.606 7   3720618.289 5
  23848163.230    21297114.522 5   3430802.721 2
  21763854.367    18431881.455 8  -4535647.349 6
 94  3 15  4  6 30.0000000  0  8 24 16  4  5  9 12 13 20
  21152434.544    12006613.318 8   1729890.236 9
  22796467.634    -8493949.115 6  -4753430.726 3
  23282087.406     7544903.673 6   4456442.637 4
  20414693.632     8523778.850 8  -1396521.629 9
  23816439.612     2160886.834 5   4650249.122 3
  22413419.243     2134852.260 7   3786918.787 5
  23860366.912    21361273.882 5   3480797.012 2
  21749494.608    18356410.543 8  -4594455.850 6
 94  3 15  4  7  0.0000000  0  8 24 16  4  5  9 12 13 20
  21161518.975    12054338.579 9   1767078.756 9
  22780472.237    -8578013.798 6  -4818935.647 3
  23299039.920     7633994.082 6   4525863.721 4
  20413179.860     8515791.982 8  -1402745.157 9
  23833828.684     2252244.257 5   4721436.682 3
  22429687.840     2220321.539 7   3853518.229 5
  23872581.925    21425431.812 6   3530790.155 2
  21735201.643    18281308.911 7  -4652976.600 6
 94  3 15  4  7 30.0000000  0  8 24 16  4  5  9 12 13 20
  21170669.960    12102420.676 9   1804545.334 9
  22764530.623    -8661793.651 6  -4884218.656 3
  23316025.891     7723243.226 6   4595408.509 4
  20411758.364     8508334.822 8  -1408555.940 9
  23851228.188     2343679.130 5   4792684.628 2
  22446019.004     2306168.516 7   3920411.970 5
  23884792.262    21489584.936 6   3580779.595 2
  21720982.667    18206576.208 8  -4711209.844 6
 94  3 15  4  8  0.0000000  0  8 24 16  4  5  9 12 13 20
  21179888.488    12150858.514 8   1842289.110 9
  22748641.383    -8745282.320 6  -4949274.715 4
  23333040.972     7812648.644 6   4665075.063 4
  20410443.114     8501423.226 8  -1413941.593 9
  23868632.999     2435175.668 5   4863980.627 2
  22462422.958     2392389.328 7   3987597.010 5
  23896996.304    21553732.283 6   3630764.543 2
  21706830.934    18132213.918 8  -4769154.485 6
 94  3 15  4  8 30.0000000  0  8 24 16  4  5  9 12 13 20
  21189174.710    12199662.536 8   1880318.213 9
  22732812.222    -8828467.419 6  -5014094.223 4
  23350083.723     7902220.384 6   4734871.219 4
  20409232.193     8495065.880 8  -1418895.365 9
  23886055.768     2526741.095 5   4935330.296 2
  22478902.759     2478984.958 6   4055074.115 5
  23909202.234    21617877.337 6   3680747.703 2
  21692748.183    18058228.560 7  -4826805.393 6
 94  3 15  4  9  0.0000000  0  8 24 16  4  5  9 12 13 20
  21198531.682    12248849.033 8   1918645.349 9
  22717042.509    -8911343.026 6  -5078672.594 4
  23367160.441     7991944.588 6   4804786.160 5
  20408126.678     8489269.859 8  -1423411.762 9
  23903494.695     2618384.119 5   5006740.367 2
  22495454.331     2565950.329 6   4122839.335 5
  23921406.755    21682017.948 6   3730727.386 2
  21678745.537    17984620.709 8  -4884162.173 6
 94  3 15  4  9 30.0000000  0  8 24 16  4  5  9 12 13 20
  21207962.793    12298411.554 9   1957265.503 9
  22701331.645    -8993895.338 6  -5142999.047 4
  23384256.946     8081802.901 6   4874805.648 4
  20407132.026     8484023.251 8  -1427500.036 9
  23920949.871     2710103.473 5   5078210.007 2
  22512071.827     2653279.445 6   4190887.973 5
  23933614.034    21746150.598 6   3780700.887 2
  21664811.423    17911389.777 7  -4941225.219 6
 94  3 15  4 10  0.0000000  0  8 24 16  4  5  9 12 13 20
  21217468.852    12348351.158 9   1996179.482 9
  22685686.886    -9076116.545 6  -5207067.472 4
  23401380.252     8171787.996 6   4944923.895 4
  20406234.148     8479317.048 8  -1431167.201 9
  23938420.876     2801913.024 5   5149749.918 3
  22528759.265     2740970.729 6   4259218.864 5
  23945811.690    21810276.653 6   3830669.228 2
  21650941.105    17838539.450 7  -4997991.707 6
 94  3 15  4 10 30.0000000  0  8 24 16  4  5  9 12 13 20
  21227047.311    12398672.952 9   2035391.275 9
  22670102.205    -9158001.951 6  -5270874.296 4
  23418531.138     8261889.752 6   5015133.029 4
  20405440.567     8475139.261 8  -1434422.633 9
  23955909.299     2893828.913 5   5221372.659 3
  22545516.913     2829024.995 7   4327832.546 5
  23958011.204    21874399.514 6   3880635.059 2
  21637156.498    17766075.939 7  -5054456.763 6
 94  3 15  4 11  0.0000000  0  8 24 16  4  5  9 12 13 20
  21236692.054    12449357.656 8   2074885.850 9
  22654584.887    -9239560.575 6  -5334426.458 4
  23435696.985     8352096.999 6   5085424.382 4
  20404745.499     8471484.556 8  -1437270.455 9
  23973424.044     2985855.693 5   5293081.810 3
  22562336.649     2917437.626 7   4396725.500 4
  23970217.044    21938517.391 6   3930597.056 2
  21623442.402    17694000.064 8  -5110619.781 6
 94  3 15  4 11 30.0000000  0  8 24 16  4  5  9 12 13 20
  21246398.644    12500385.787 8   2114648.030 9
  22639123.961    -9320801.794 6  -5397731.262 4
  23452885.105     8442425.979 6   5155810.586 4
  20404149.421     8468349.749 8  -1439713.163 9
  23990955.607     3077976.012 5   5364863.869 3
  22579233.312     3006203.475 7   4465893.649 4
  23982424.263    22002628.043 6   3980553.390 2
  21609793.271    17622312.537 8  -5166480.182 6
 94  3 15  4 12  0.0000000  0  8 24 16  4  5  9 12 13 20
  21256177.305    12551754.840 8   2154675.859 9
  22623720.414    -9401739.898 6  -5460799.897 4
  23470099.398     8532889.229 6   5226301.405 4
  20403653.505     8465751.329 8  -1441737.906 9
  24008496.824     3170181.984 5   5436712.613 3
  22596188.434     3095319.148 6   4535334.453 4
  23994620.750    22066730.918 5   4030503.667 2
  21596232.639    17551015.421 8  -5222036.369 6
 94  3 15  4 12 30.0000000  0  8 24 16  4  5  9 12 13 20
  21266013.825    12603451.752 8   2194959.178 9
  22608377.306    -9482381.385 7  -5523637.384 4
  23487336.985     8623483.897 6   5296894.631 4
  20403262.006     8463704.148 8  -1443333.113 9
  24026061.754     3262448.700 5   5508608.772 2
  22613211.280     3184780.118 6   4605044.291 4
  24006817.026    22130824.068 6   4080446.357 2
  21582739.400    17480109.567 8  -5277287.682 7
 94  3 15  4 13  0.0000000  0  8 24 16  4  5  9 12 13 20
  21275913.002    12655483.102 8   2235503.076 9
  22593088.370    -9562718.611 6  -5586237.793 4
  23504602.153     8714216.797 6   5367595.582 4
  20402982.599     8462223.197 8  -1444487.099 9
  24043622.187     3354753.464 5   5580534.556 2
  22630302.418     3274583.914 7   4675021.252 4
  24019010.845    22194908.075 6   4130381.961 2
  21569320.060    17409598.013 8  -5332231.748 6
 94  3 15  4 13 30.0000000  0  8 24 16  4  5  9 12 13 20
  21285881.851    12707858.655 8   2276315.204 9
  22577861.432    -9642737.273 6  -5648590.008 4
  23521894.122     8805085.083 6   5438402.031 4
  20402808.839     8461310.829 8  -1445198.046 9
  24061191.164     3447084.115 5   5652480.534 2
  22647458.791     3364727.915 7   4745263.325 4
  24031201.635    22258982.946 6   4180310.455 2
  21555980.105    17339483.370 8  -5386866.532 7
 94  3 15  4 14  0.0000000  0  8 24 16  4  5  9 12 13 20
  21295911.467    12760569.703 8   2317388.737 9
  22562695.981    -9722424.058 7  -5710683.561 4
  23539205.457     8896068.372 6   5509298.099 4
  20402742.765     8460958.708 8  -1445472.423 9
  24078772.912     3539451.871 5   5724455.380 2
  22664674.792     3455206.907 6   4815766.445 4
  24043390.837    22323046.627 6   4230230.177 2
  21542709.373    17269766.255 8  -5441191.536 7
 94  3 15  4 14 30.0000000  0  8 24 16  4  5  9 12 13 20
  21306007.158    12813617.785 8   2358724.909 9
  22547605.178    -9801750.251 6  -5772496.166 4
  23556540.956     8987170.537 6   5580286.790 4
  20402777.571     8461162.754 8  -1445313.427 9
  24096359.278     3631869.289 5   5796468.952 3
  22681957.318     3546022.511 7   4886531.828 4
  24055581.987    22387103.512 6   4280144.629 2
  21529517.515    17200453.858 8  -5495201.196 7
 94  3 15  4 15  0.0000000  0  8 24 16  4  5  9 12 13 20
  21316164.337    12867005.410 8   2400325.655 9
  22532574.573    -9880705.717 6  -5834019.872 4
  23573905.115     9078401.371 6   5651375.762 4
  20402923.750     8461913.215 8  -1444728.661 9
  24113952.988     3724356.439 5   5868536.782 3
  22699300.851     3637167.078 7   4957553.547 4
  24067767.681    22451148.949 5   4330050.132 2
  21516408.790    17131543.874 8  -5548897.287 7
 94  3 15  4 15 30.0000000  0  9 24 16  3  4  5  9 12 13 20
  21326387.919    12920724.149 8   2442184.419 9
  22517619.576    -9959297.489 6  -5895260.204 4
  25128015.217     8394300.91413   -137050.455
  23591294.247     9169764.345 6   5722567.693 4
  20403170.629     8463214.357 8  -1443714.799 9
  24131571.311     3816931.240 5   5940672.975 3
  22716710.489     3728638.020 7   5028829.596 4
  24079950.617    22515183.047 6   4379946.846 2
  21503370.217    17063039.127 8  -5602277.595 7
 94  3 15  4 16  0.0000000  0  9 24 16  3  4  5  9 12 13 20
  21336675.777    12974774.888 8   2484301.862 9
  22502735.540   -10037528.970 7  -5956219.766 4
  25114655.566     8324074.681 4   -191772.536
  23608700.797     9261258.085 6   5793861.515 3
  20403524.864     8465073.785 8  -1442265.888 9
  24149205.613     3909579.609 5   6012866.473 3
  22734173.099     3820434.882 6   5100359.621 4
  24092138.530    22579208.525 6   4429836.806 1
  21490418.793    16994944.917 8  -5655338.020 7
 94  3 15  4 16 30.0000000  0  9 24 16  3  4  5  9 12 13 20
  21347023.563    13029172.009 8   2526689.239 9
  22487916.080   -10115407.421 6  -6016904.246 4
  25101310.424     8253965.100 3   -246403.220 1
  23626132.559     9352884.360 6   5865258.585 3
  20403985.855     8467502.251 8  -1440373.588 9
  24166844.921     4002274.308 5   6085096.087 3
  22751704.153     3912554.048 6   5172140.782 4
  24104317.418    22643224.539 5   4479719.406 1
  21477539.559    16927263.262 8  -5708076.974 7
 94  3 15  4 17  0.0000000  0  9 24 16  3  4  5  9 12 13 20
  21357473.249    13084097.070 8   2569487.985 9
  22473197.409   -10192756.688 7  -6077176.403 4
  25088035.614     8184162.490 4   -300794.715 1
  23643625.329     9444813.525 6   5936891.674 3
  20404597.431     8470691.559 8  -1437888.417 9
  24184522.873     4095183.427 5   6157492.790 3
  22769332.969     4005183.354 7   5244319.440 4
  24116533.122    22707422.032 5   4529743.441 1
  21464766.331    16860187.355 8  -5760343.901 7
 94  3 15  4 17 30.0000000  0  9 24 16  3  4  5  9 12 13 20
  21367989.998    13139362.034 8   2612551.582 9
  22458546.852   -10269743.353 7  -6137165.971 4
  25074773.246     8114494.768 4   -355081.299 1
  23661147.329     9536854.467 6   6008611.894 3
  20405311.956     8474457.211 8  -1434954.146 9
  24202207.990     4188105.212 5   6229899.404 2
  22787022.283     4098147.785 6   5316759.245 4
  24128751.583    22771629.048 5   4579774.883 1
  21452088.768    16793547.755 8  -5812270.842 7
 94  3 15  4 18  0.0000000  0  9 24 16  3  4  5  9 12 13 20
  21378566.886    13194924.500 8   2655847.006 9
  22443961.199   -10346387.784 7  -6196888.896 4
  25061543.704     8044933.677 4   -409284.597 1
  23678676.943     9628983.213 6   6080400.529 3
  20406125.024     8478753.194 8  -1431606.638 9
  24219880.396     4280995.808 5   6302281.692 2
  22804766.788     4191416.740 6   5389436.346 4
  24140957.843    22835818.021 5   4629792.277 1
  21439487.022    16727319.279 8  -5863877.457 7
 94  3 15  4 18 30.0000000  0  9 24 16  3  4  5  9 12 13 20
  21389194.049    13250779.881 8   2699370.674 9
  22429445.878   -10422674.447 7  -6256333.038 4
  25048335.448     7975481.976 4   -463402.700 1
  23696224.515     9721206.295 6   6152262.671 3
  20407046.706     8483583.382 8  -1427842.858 9
  24237558.827     4373877.457 5   6374656.986 2
  22822580.756     4284990.073 6   5462350.636 4
  24153181.460    22899991.587 5   4679797.572 1
  21426965.291    16661507.215 8  -5915159.572 7
 94  3 15  4 19  0.0000000  0  9 24 16  3  4  5  9 12 13 20
  21399876.794    13306921.383 8   2743117.301 9
  22414999.029   -10498584.212 7  -6315483.470 4
  25035119.128     7906145.952 3   -517430.693 1
  23713795.291     9813520.818 6   6224196.024 3
  20408065.460     8488946.047 8  -1423664.167 9
  24255237.888     4466778.941 5   6447047.755 2
  22840442.301     4378871.924 6   5535505.289 4
  24165393.656    22964156.939 5   4729796.611 1
  21414518.028    16596121.298 8  -5966109.638 7
 94  3 15  4 19 30.0000000  0  9 24 16  3  4  5  9 12 13 20
  21410619.317    13363355.224 8   2787091.723 9
  22400627.009   -10574115.776 7  -6374339.213 4
  25021950.564     7836921.960 3   -571371.469 1
  23731381.387     9905931.304 6   6296204.182 3
  20409189.112     8494842.841 8  -1419069.270 9
  24272925.074     4559714.912 5   6519465.354 2
  22858368.571     4473055.385 6   5608894.983 4
  24177604.952    23028310.356 5   4779786.220 1
  21402156.655    16531160.340 8  -6016728.568 7
 94  3 15  4 20  0.0000000  0  9 24 16  3  4  5  9 12 13 20
  21421413.134    13420097.666 8   2831306.613 9
  22386324.120   -10649279.492 7  -6432908.323 4
  25008796.361     7767805.692 3   -625228.267 1
  23748981.152     9998423.650 6   6368276.132 3
  20410417.362     8501292.130 8  -1414043.844 9
  24290615.946     4652690.254 4   6591913.635 2
  22876340.289     4567533.859 6   5682514.569 4
  24189798.891    23092448.196 5   4829763.696 1
  21389881.653    16466623.081 8  -6067017.340 7
 94  3 15  4 20 30.0000000  0  9 24 16  3  4  5  9 12 13 20
  21432272.127    13477157.624 8   2875768.907 9
  22372091.563   -10724072.974 7  -6491188.929 4
  24995682.989     7698794.184 4   -679003.351 1
  23766589.253    10090969.148 6   6440389.503 3
  20411750.689     8508310.024 8  -1408575.364 9
  24308315.573     4745709.453 5   6664396.097 2
  22894377.452     4662301.499 6   5756359.481 4
  24202006.290    23156567.701 5   4879727.000 1
  21377678.031    16402509.351 8  -6116976.080 7
 94  3 15  4 21  0.0000000  0  9 24 16  3  4  5  9 12 13 20
  21443194.645    13534546.911 8   2920487.822 9
  22357929.038   -10798500.491 7  -6549184.406 4
  24982570.966     7629889.975 4   -732694.792 1
  23784214.171    10183572.760 6   6512548.143 3
  20413196.588     8515901.491 8  -1402659.943 9
  24326025.093     4838763.488 5   6736905.694 3
  22912463.991     4757358.332 6   5830429.738 4
  24214198.759    23220672.169 5   4929678.534 1
  21365554.335    16338824.662 8  -6166600.510 7
 94  3 15  4 21 30.0000000  0  9 24 16  3  4  5  9 12 13 20
  21454176.822    13592267.989 8   2965465.295 9
  22343830.398   -10872566.473 7  -6606898.151 4
  24969466.378     7561091.515 3   -786303.922 1
  23801841.698    10276239.067 6   6584755.654 3
  20414754.370     8524076.671 8  -1396289.690 9
  24343737.851     4931829.420 5   6809424.618 3
  22930605.542     4852700.321 6   5904722.178 4
  24226394.736    23284760.232 5   4979617.253 1
  21353514.040    16275570.308 8  -6215889.627 7
 94  3 15  4 22  0.0000000  0  9 24 16  3  4  5  9 12 13 20
  21465221.566    13650310.046 8   3010692.848 9
  22329811.173   -10946258.173 7  -6664320.220 4
  24956393.778     7492398.440 3   -839830.959 1
  23819486.343    10368978.216 6   6657019.901 3
  20416418.608     8532839.501 8  -1389461.510 9
  24361441.825     5024892.586 5   6881941.333 3
  22948805.642     4948324.078 6   5979234.155 4
  24238589.993    23348831.920 5   5029543.186 1
  21341567.430    16212748.823 8  -6264841.418 7
 94  3 15  4 22 30.0000000  0  9 24 16  3  4  5  9 12 13 20
  21476325.969    13708655.023 8   3056156.482 9
  22315862.880   -11019565.467 7  -6721442.768 4
  24943342.943     7423813.920 3   -893273.406 1
  23837158.628    10461819.795 6   6729363.971 3
  20418201.623     8542187.728 8  -1382177.181 9
  24379148.437     5117954.160 4   6954456.876 2
  22967055.598     5044230.320 6   6053966.296 4
  24250789.268    23412891.102 5   5079459.428 2
  21329696.998    16150366.044 8  -6313451.401 7
 94  3 15  4 23  0.0000000  0  9 24 16  3  4  5  9 12 13 20
  21487484.724    13767289.162 8   3101845.422 9
  22301980.930   -11092495.560 7  -6778271.399 4
  24930309.226     7355335.069 4   -946633.499 1
  23854850.041    10554774.796 6   6801796.432 3
  20420086.298     8552112.721 8  -1374443.411 9
  24396857.057     5211002.917 4   7026962.358 2
  22985358.228     5140413.469 6   6128914.198 4
  24262968.636    23476935.223 5   5129363.976 2
  21317909.968    16088421.793 8  -6361719.642 7
 94  3 15  4 23 30.0000000  0  9 24 16  3  4  5  9 12 13 20
  21498690.186    13826194.166 8   3147745.426 8
  22288177.706   -11165041.340 7  -6834800.562 5
  24917317.600     7286961.989 4   -999911.105 1
  23872557.163    10647841.788 6   6874316.170 3
  20422084.295     8562599.112 8  -1366272.211 9
  24414561.211     5304038.240 5   7099457.361 2
  23003713.770     5236871.094 6   6204075.968 4
  24275154.690    23540964.923 5   5179257.100 2
  21306203.822    16026919.108 8  -6409643.799 7
 94  3 15  4 24  0.0000000  0  9 24 16  3  4  5  9 12 13 20
  21509951.770    13885361.328 8   3193849.704 8
  22274447.481   -11237196.555 7  -6891025.389 5
  24904312.213     7218694.517 4  -1053106.555 1
  23890290.876    10741019.323 6   6946922.028 3
  20424182.513     8573629.808 8  -1357676.870 9
  24432268.003     5397064.761 5   7171945.580 2
  23022121.897     5333600.147 6   6279449.231 4
  24287323.536    23604980.427 5   5229139.334 2
  21294585.635    15965860.585 8  -6457221.871 7
 94  3 15  4 24 30.0000000  0  9 24 16  3  4  5  9 12 13 20
  21521259.252    13944789.934 8   3240157.700 8
  22260791.335   -11308967.621 7  -6946950.871 5
  24891353.055     7150530.985 4  -1106220.929 1
  23908038.679    10834278.943 6   7019591.819 3
  20426380.921     8585187.841 8  -1348670.609 9
  24449961.844     5490079.635 5   7244424.692 2
  23040576.071     5430596.504 6   6355030.817 4
  24299517.714    23668980.628 6   5279009.637 2
  21283054.358    15905247.760 8  -6504452.644 7
 94  3 15  4 25  0.0000000  0  9 24 16  3  4  5  9 12 13 20
  21532619.917    14004483.850 8   3286672.436 8
  22247205.820   -11380352.170 7  -7002575.191 5
  24878389.100     7082463.868 3  -1159260.202 1
  23925797.065    10927592.448 6   7092303.641 3
  20428676.192     8597252.917 8  -1339269.272 9
  24467659.432     5583080.501 5   7316892.884 2
  23059084.388     5527849.810 6   6430812.598 4
  24311685.720    23732958.764 5   5328862.723 2
  21271598.329    15845075.730 8  -6551339.940 7
 94  3 15  4 25 30.0000000  0  9 24 16  3  4  5  9 12 13 20
  21544030.978    14064455.654 8   3333403.699 8
  22233697.591   -11451335.151 7  -7057886.573 5
  24865450.807     7014494.601 3  -1212223.194 2
  23943559.349    11020949.354 6   7165049.250 3
  20431071.204     8609833.099 8  -1329466.541 9
  24485349.885     5676066.929 5   7389349.812 2
  23077642.141     5625358.810 6   6506793.615 3
  24323861.191    23796916.416 6   5378699.856 2
  21260236.914    15785348.595 8  -6597880.570 7
 94  3 15  4 26  0.0000000  0  9 24 16  3  4  5  9 12 13 20
  21555501.217    14124716.377 8   3380360.096 8
  22220268.118   -11521908.035 7  -7112878.425 5
  24852552.686     6946626.810 3  -1265107.183 1
  23961327.598    11114342.568 6   7237823.207 3
  20433570.454     8622955.029 8  -1319241.681 9
  24503051.520     5769032.804 5   7461790.748 2
  23096243.813     5723124.564 6   6582974.713 3
  24336024.761    23860858.037 6   5428524.456 2
  21248956.863    15726072.853 8  -6644069.465 7
 94  3 15  4 26 30.0000000  0  9 24 16  3  4  5  9 12 13 20
  21567018.794    14185272.616 8   3427546.777 8
  22206917.731   -11592077.374 7  -7167555.796 5
  24839644.552     6878855.891 4  -1317915.662 2
  23979112.366    11207769.113 6   7310623.081 3
  20436171.093     8636629.650 8  -1308586.130 9
  24520737.776     5861973.111 5   7534211.759 2
  23114895.401     5821139.849 6   6659350.272 3
  24348194.296    23924779.538 6   5478333.454 2
  21237764.322    15667246.788 8  -6689907.947 7
 94  3 15  4 27  0.0000000  0  9 24 16  3  4  5  9 12 13 20
  21578603.254    14246118.608 8   3474959.252 8
  22193636.685   -11661847.822 7  -7221922.384 5
  24826782.766     6811182.391 4  -1370648.157 2
  23996900.551    11301252.280 6   7383467.116 3
  20438880.318     8650871.491 8  -1297488.602 9
  24538410.362     5954882.482 5   7606608.647 3
  23133596.874     5919402.447 6   6735918.513 3
  24360358.105    23988681.960 6   5528127.456 2
  21226653.324    15608873.814 8  -6735393.378 7
 94  3 15  4 27 30.0000000  0  9 24 16  3  4  5  9 12 13 20
  21590234.841    14307247.403 8   3522592.072 8
  22180437.633   -11731229.398 7  -7275985.923 5
  24813910.397     6743604.615 4  -1423306.114 2
  24014702.377    11394796.083 6   7456358.374 3
  20441703.013     8665698.193 8  -1285935.323 9
  24556078.391     6047743.633 4   7678967.933 3
  23152341.308     6017907.975 6   6812676.038 3
  24372510.132    24052564.115 6   5577905.787 2
  21215631.904    15550955.144 8  -6780524.804 8
 94  3 15  4 28  0.0000000  0  9 24 16  3  4  5  9 12 13 20
  21601919.432    14368651.259 8   3570439.212 8
  22167302.466   -11800225.752 7  -7329749.293 5
  24801057.335     6676121.424 3  -1475890.403 1
  24032514.157    11488407.581 6   7529302.443 3
  20444630.187     8681097.952 8  -1273935.533 9
  24573750.347     6140561.901 5   7751293.835 3
  23171131.729     6116652.633 6   6889619.896 3
  24384659.282    24116425.552 6   5627667.951 2
  21204696.974    15493492.064 8  -6825301.227 8
 94  3 15  4 28 30.0000000  0  9 24 16  3  4  5  9 12 13 20
  21613655.198    14430329.535 8   3618500.201 8
  22154252.920   -11868831.203 7  -7383208.104 5
  24788241.597     6608734.058 4  -1528400.025 1
  24050342.065    11582089.133 6   7602301.052 3
  20447669.603     8697059.505 8  -1261497.957 9
  24591392.473     6233350.003 4   7823596.309 2
  23189966.850     6215635.160 6   6966749.131 3
  24396810.170    24180268.091 6   5677415.395 2
  21193850.812    15436488.886 8  -6869719.303 8
 94  3 15  4 29  0.0000000  0  9 24 16  3  4  5  9 12 13 20
  21625443.367    14492275.424 8   3666769.734 8
  22141272.416   -11937029.002 7  -7436349.214 5
  24775432.995     6541442.311 3  -1580835.072 2
  24068175.099    11675828.722 5   7675344.838 3
  20450817.124     8713582.068 8  -1248623.238 9
  24609064.879     6326115.161 4   7895880.711 2
  23208846.580     6314852.365 6   7044061.241 3
  24408956.321    24244092.095 6   5727148.362 1
  21183090.931    15379948.098 8  -6913777.041 8
 94  3 15  4 29 30.0000000  0  9 24 16  3  4  5  9 12 13 20
  21637283.790    14554499.121 8   3715255.737 8
  22128377.263   -12004798.715 7  -7489156.769 5
  24762640.701     6474244.876 3  -1633196.646 1
  24086023.873    11769609.907 5   7748421.064 3
  20454066.994     8730651.860 8  -1235322.109 9
  24626704.727     6418862.770 5   7968151.595 2
  23227770.169     6414300.506 6   7121553.258 3
  24421096.147    24307896.790 6   5776866.297 1
  21172420.119    15323871.229 8  -6957473.304 8
 94  3 15  4 30  0.0000000  0  9 24 16  3  4  5  9 12 13 20
  21649175.598    14616985.084 8   3763946.084 8
  22115564.104   -12072125.962 7  -7541619.544 5
  24749878.386     6407141.263 3  -1685485.177 1
  24103887.786    11863439.898 6   7821535.348 3
  20457414.207     8748252.096 8  -1221607.647 9
  24644350.871     6511588.420 5   8040405.375 2
  23246734.680     6513976.316 6   7199222.700 3
  24433239.210    24371682.347 6   5826569.375 1
  21161833.967    15268260.614 8  -7000806.251 8
 94  3 15  4 30 30.0000000  0  9 24 16  3  4  5  9 12 13 20
  21661111.475    14679715.216 8   3812826.711 8
  22102835.935   -12139008.312 7  -7593735.668 5
  24737127.703     6340130.634 4  -1737701.210 2
  24121750.889    11957322.615 6   7894690.704 3
  20460864.129     8766388.189 8  -1207475.632 9
  24661990.719     6604281.486 5   8112633.747 2
  23265748.238     6613876.453 6   7277066.951 3
  24445371.961    24435448.646 5   5876257.384 2
  21151347.167    15213118.014 8  -7043774.517 8
 94  3 15  4 31  0.0000000  0  9 24 16  3  4  5  9 12 13 20
  21673095.858    14742682.286 8   3861891.951 8
  22090197.285   -12205441.274 7  -7645501.577 5
  24724400.734     6273215.342 4  -1789842.978 2
  24139620.139    12051268.007 6   7967894.922 2
  20464419.457     8785058.996 8  -1192926.970 9
  24679623.102     6696925.790 5   8184824.095 2
  23284797.650     6714000.666 6   7355085.824 3
  24457498.926    24499198.839 5   5925932.839 1
  21140938.043    15158448.779 8  -7086373.913 8
 94  3 15  4 31 30.0000000  0  9 24 16  3  4  5  9 12 13 20
  21685120.204    14805869.950 8   3911129.087 8
  22077637.779   -12271433.331 7  -7696923.935 5
  24711682.548     6206395.703 4  -1841910.162 2
  24157512.952    12145280.037 5   8041151.049 2
  20468071.949     8804266.576 8  -1177960.030 9
  24697235.220     6789495.224 5   8256956.105 2
  23303900.365     6814346.376 6   7433277.263 3
  24469626.250    24562933.737 4   5975596.300 1
  21130628.750    15104255.837 8  -7128602.172 8
 94  3 15  4 32  0.0000000  0  9 24 16  3  4  5  9 12 13 20
  21697179.895    14869257.922 8   3960522.291 8
  22065160.147   -12336999.179 7  -7748014.195 5
  24698988.526     6139666.502 4  -1893906.984 2
  24175406.694    12239348.121 5   8114450.839 2
  20471831.376     8824022.692 8  -1162565.677 9
  24714834.476     6881978.980 5   8329021.352 2
  23323035.518     6914905.684 6   7511635.124 3
  24481758.791    24626648.747 5   6025244.355 1
  21120408.406    15050536.732 8  -7170461.224 8
 94  3 15  4 32 30.0000000  0  9 24 16  3  4  5  9 12 13 20
  21709284.885    14932871.309 8   4010091.165 8
  22052767.477   -12402140.449 7  -7798773.620 5
  24686301.009     6073029.287 4  -1945832.012 1
  24193320.523    12333451.324 5   8187778.021 2
  20475697.230     8844344.073 8  -1146730.813 9
  24732404.952     6974390.351 4   8401030.203 2
  23342208.265     7015677.655 6   7590158.737 3
  24493866.719    24690346.133 5   6074878.817 1
  21110273.442    14997295.627 8  -7211947.807 8
 94  3 15  4 33  0.0000000  0  9 24 16  3  4  5  9 12 13 20
  21721441.469    14996736.299 8   4059856.104 8
  22040451.073   -12466857.786 7  -7849202.695 5
  24673645.870     6006479.805 4  -1997688.736 1
  24211233.512    12427573.002 5   8261119.600 2
  20479671.608     8865232.714 8  -1130453.962 9
  24749989.968     7066717.070 4   8472973.029 2
  23361426.461     7116655.343 6   7668842.652 3
  24505996.262    24754022.138 5   6124496.329 1
  21100230.964    14944530.849 8  -7253063.214 8
 94  3 15  4 33 30.0000000  0  9 24 16  3  4  5  9 12 13 20
  21733640.084    15060868.384 8   4109829.147 7
  22028217.023   -12531143.601 7  -7899295.518 5
  24660986.894     5940021.499 4  -2049474.357 1
  24229148.120    12521708.765 5   8334472.124 2
  20483758.739     8886706.803 8  -1113720.919 9
  24767530.226     7158977.707 3   8544864.412 2
  23380682.011     7217839.315 6   7747687.271 3
  24518108.027    24817680.915 5   6174100.546 1
  21090285.229    14892248.636 8  -7293802.602 8
 94  3 15  4 34  0.0000000  0 10 24 16  3  4  5  9 12 13 17 20
  21745901.775    15125283.895 8   4160023.059 7
  22016064.066   -12594997.500 7  -7949051.805 6
  24648364.822     5873653.815 4  -2101189.390 1
  24247063.987    12615864.629 5   8407840.319 2
  20487957.152     8908765.305 8  -1096532.495 9
  24785081.095     7251188.492 4   8616716.959 2
  23399970.897     7319226.491 6   7826690.234 3
  24530211.968    24881322.847 4   6223691.750 1
  25028146.345    -1806209.58613  -1621163.911 1
  21080428.323    14840451.113 8  -7334164.306 8
 94  3 15  4 34 30.0000000  0 10 24 16  3  4  5  9 12 13 17 20
  21758215.811    15189985.712 8   4210440.050 7
  22003995.801   -12658422.873 7  -7998474.152 6
  24635744.519     5807369.749 4  -2152839.316 1
  24264981.173    12710037.511 5   8481221.788 2
  20492263.401     8931393.719 8  -1078899.958 9
  24802624.620     7343332.817 4   8688517.694 2
  23419302.025     7420807.224 6   7905844.036 3
  24542323.943    24944941.578 4   6273264.790 1
  25008923.622    -1907296.950 4  -1699933.101 1
  21070662.314    14789134.059 8  -7374151.622 8
 94  3 15  4 35  0.0000000  0 10 24 16  3  4  5  9 12 13 17 20
  21770571.847    15254946.277 8   4261058.675 7
  21992012.287   -12721409.854 7  -8047554.907 6
  24623158.392     5741169.642 4  -2204423.840 1
  24282915.987    12804236.641 5   8554623.703 2
  20496675.387     8954587.266 8  -1060827.089 9
  24820145.121     7435400.896 5   8760259.049 2
  23438669.007     7522579.190 6   7985146.891 3
  24554420.928    25008538.126 4   6322820.405 1
  24989717.958    -2008243.902 5  -1778592.965 1
  21060991.519    14738300.380 8  -7413762.274 8
 94  3 15  4 35 30.0000000  0 10 24 16  3  4  5  9 12 13 17 20
  21782980.916    15320137.755 8   4311857.229 7
  21980109.807   -12783952.414 7  -8096289.344 6
  24610572.325     5675057.825 4  -2255939.472 1
  24300841.178    12898476.257 5   8628057.174 3
  20501199.405     8978349.702 8  -1042310.903 9
  24837646.885     7527402.883 5   8831948.899 2
  23458073.584     7624543.938 6   8064599.943 3
  24566527.507    25072117.451 4   6372362.794 1
  24970525.155    -2109052.277 4  -1857144.854 1
  21051409.223    14687957.011 8  -7452990.868 8
 94  3 15  4 36  0.0000000  0 10 24 16  3  4  5  9 12 13 17 20
  21795425.631    15385543.913 8   4362823.053 7
  21968290.159   -12846058.725 7  -8144683.854 6
  24598012.191     5609026.469 4  -2307392.429 1
  24318781.388    12992748.986 5   8701516.436 3
  20505826.672     9002666.180 8  -1023363.012 9
  24855143.222     7619316.485 4   8903569.909 2
  23477515.754     7726690.984 6   8144194.990 3
  24578619.246    25135672.668 4   6421886.408 1
  24951369.766    -2209716.070 4  -1935584.048 1
  21041920.611    14638098.932 8  -7491841.330 8
 94  3 15  4 36 30.0000000  0 10 24 16  3  4  5  9 12 13 17 20
  21807914.775    15451153.191 8   4413947.139 7
  21956559.220   -12907712.341 7  -8192725.626 6
  24585471.512     5543077.923 4  -2358780.937 1
  24336717.521    13087055.130 5   8775001.732 3
  20510557.606     9027533.569 8  -1003985.850 9
  24872620.043     7711141.742 4   8975122.061 2
  23496978.520     7829020.191 6   8223931.970 3
  24590715.332    25199206.696 4   6471393.488 1
  24932232.275    -2310226.271 3  -2013903.535 1
  21032527.724    14588731.045 8  -7530309.810 8
 94  3 15  4 37  0.0000000  0 10 24 16  3  4  5  9 12 13 17 20
  21820432.459    15516950.857 8   4465218.055 7
  21944913.902   -12968902.168 7  -8240406.006 6
  24572917.073     5477212.083 4  -2410104.895 1
  24354677.937    13181403.007 5   8848519.530 3
  20515392.809     9052949.729 8   -984181.051 9
  24890076.838     7802893.278 4   9046616.724 2
  23516486.975     7931528.762 6   8303808.808 3
  24602799.426    25262720.106 5   6520884.194 1
  24913125.842    -2410586.680 3  -2092106.332 1
  21023225.704    14539855.862 8  -7568394.372 8
 94  3 15  4 37 30.0000000  0 10 24 16  3  4  5  9 12 13 17 20
  21832995.412    15582955.115 8   4516649.953 7
  21933359.961   -13029631.933 7  -8287727.882 6
  24560409.612     5411427.209 4  -2461365.816 1
  24372643.090    13275783.576 5   8922062.832 3
  20520334.918     9078910.775 8   -963951.676 9
  24907521.162     7894569.052 4   9118052.367 2
  23536027.058     8034212.177 6   8383821.841 2
  24614877.645    25326212.089 4   6570358.586 1
  24894072.742    -2510793.408 4  -2170189.290 1
  21014019.137    14491474.154 8  -7606094.421 8
 94  3 15  4 38  0.0000000  0  9 24 16  3  4  5 12 13 17 20
  21845597.008    15649182.271 8   4568255.523 7
  21921891.460   -13089887.590 7  -8334680.334 6
  24547914.682     5345726.349 4  -2512561.297 1
  24390605.245    13370186.176 6   8995623.296 3
  20525375.718     9105412.057 8   -943301.336 9
  23555606.143     8137070.866 6   8463971.435 2
  24626952.715    25389686.466 5   6619819.129 1
  24875022.220    -2610834.891 4  -2248143.630 2
  21004909.853    14443591.716 8  -7643405.402 8
 94  3 15  4 38 30.0000000  0  9 24 16  3  4  5 12 13 17 20
  21858241.294    15715628.026 8   4620031.424 7
  21910514.546   -13149669.776 7  -8381263.856 6
  24535412.497     5280105.671 4  -2563694.246 1
  24408570.458    13464608.614 6   9069199.211 3
  20530521.266     9132446.666 8   -922235.413 9
  23575212.510     8240098.486 6   8544252.674 2
  24639029.915    25453140.253 4   6669263.763 1
  24856028.749    -2710710.684 4  -2325968.812 2
  20995890.118    14396207.428 8  -7680328.218 8
 94  3 15  4 39  0.0000000  0  9 24 16  3  4  5 12 13 17 20
  21870929.950    15782300.144 8   4671983.718 7
  21899225.202   -13208988.156 7  -8427485.936 6
  24522931.388     5214565.189 4  -2614764.714 1
  24426537.140    13559041.520 5   9142783.342 3
  20535769.912     9160022.199 8   -900747.996 9
  23594846.428     8343292.162 6   8624663.363 2
  24651096.411    25516574.079 5   6718692.824 1
  24837058.212    -2810423.362 4  -2403666.902 2
  20986970.543    14349323.470 8  -7716861.180 8
 94  3 15  4 39 30.0000000  0  9 24 16  3  4  5 12 13 17 20
  21883659.468    15849212.472 8   4724123.201 7
  21888025.016   -13267850.303 7  -8473352.540 6
  24510486.943     5149105.774 4  -2665772.062 1
  24444511.257    13653479.428 5   9216371.284 3
  20541118.210     9188141.311 8   -878837.017 9
  23614514.372     8446650.153 6   8705202.053 2
  24663165.546    25579989.486 5   6768107.640
  24818106.412    -2909974.410 4  -2481239.060 2
  20978144.713    14302943.495 8  -7753001.425 8
 94  3 15  4 40  0.0000000  0  9 24 16  3  4  5 12 13 17 20
  21896437.911    15916352.418 8   4776440.033 7
  21876908.082   -13326259.745 7  -8518866.396 6
  24498038.121     5083727.144 4  -2716716.417 1
  24462490.770    13747935.397 6   9289973.345 3
  20546571.794     9216799.091 8   -856506.286 9
  23634213.584     8550169.723 6   8785866.586 2
  24675232.462    25643387.133 5   6817508.464 1
  24799181.414    -3009360.529 4  -2558682.679 2
  20969413.257    14257070.111 8  -7788746.923 8
 94  3 15  4 40 30.0000000  0  9 24 16  3  4  5 12 13 17 20
  21909257.607    15983718.730 8   4828933.251 7
  21865880.576   -13384225.032 7  -8564034.120 6
  24485620.118     5018426.675 5  -2767599.800 2
  24480466.026    13842408.464 5   9363588.715 3
  20552131.056     9246001.139 8   -833751.455 9
  23653942.776     8653845.477 6   8866652.837 2
  24687286.997    25706765.288 5   6866894.081 1
  24780310.528    -3108595.695 4  -2636008.692 2
  20960780.524    14211702.907 8  -7824097.996 8
 94  3 15  4 41  0.0000000  0  9 24 16  3  4  5 12 13 17 20
  21922117.864    16051307.677 8   4881599.964 7
  21854936.532   -13441741.092 7  -8608851.820 6
  24473212.967     4953203.098 4  -2818423.357 1
  24498451.595    13936887.866 5   9437209.019 3
  20557791.857     9275749.999 8   -810570.521 9
  23673701.468     8757673.455 6   8947557.792 2
  24699349.146    25770123.479 5   6916264.003 1
  24761453.133    -3207693.171 5  -2713227.381 2
  20952242.464    14166843.169 8  -7859053.630 8
 94  3 15  4 41 30.0000000  0  9 24 16  3  4  5 12 13 17 20
  21935017.184    16119107.848 8   4934431.262 7
  21844076.431   -13498810.982 7  -8653321.850 6
  24460810.223     4888051.946 4  -2869190.490 1
  24516422.744    14031372.818 5   9510833.668 3
  20563559.234     9306038.143 8   -786969.405 9
  23693483.753     8861646.397 6   9028575.673 2
  24711400.803    25833457.812 5   6965615.463 1
  24742620.290    -3306639.720 5  -2790328.516 2
  20943805.795    14122489.055 8  -7893615.281 8
 94  3 15  4 42  0.0000000  0  9 24 16  3  4  5 12 13 17 20
  21947964.890    16187112.122 8   4987421.596 7
  21833301.410   -13555424.800 7  -8697436.486 6
  24448423.938     4822973.268 4  -2919901.087 1
  24534399.049    14125858.146 5   9584458.567 3
  20569420.986     9336863.836 8   -762949.388 9
  23713298.655     8965761.893 6   9109704.611 2
  24723448.653    25896769.410 5   7014949.147 1
  24723841.830    -3405420.265 5  -2867300.298 2
  20935461.971    14078642.944 8  -7927781.080 8
 94  3 15  4 42 30.0000000  0  9 24 16  3  4  5 12 13 17 20
  21960942.876    16255331.429 8   5040579.506 7
  21822621.094   -13611558.336 7  -8741176.904 6
  24436065.924     4757976.017 4  -2970548.265 1
  24552382.040    14220330.971 5   9658073.756 3
  20575393.032     9368247.894 8   -738494.280 9
  23733141.588     9070026.350 5   9190949.556 2
  24735497.252    25960067.933 6   7064272.668 1
  24705079.260    -3504024.791 5  -2944134.907 2
  20927215.730    14035316.329 8  -7961542.077 8
 94  3 15  4 43  0.0000000  0  9 24 16  3  4  5 12 13 17 20
  21973959.055    16323753.667 8   5093895.518 7
  21812031.765   -13667212.661 7  -8784543.897 6
  24423704.731     4693056.945 5  -3021134.578 1
  24570356.636    14314787.996 5   9731676.615 3
  20581470.454     9400183.162 8   -713609.670 9
  23753002.598     9174433.605 5   9272305.875 2
  24747535.298    26023350.925 5   7113584.056 1
  24686349.966    -3602440.497 4  -3020822.373 2
  20919069.709    13992508.294 8  -7994898.990 8
 94  3 15  4 43 30.0000000  0  9 24 16  3  4  5 12 13 17 20
  21987022.421    16392379.689 8   5147370.333 7
  21801527.816   -13722381.858 7  -8827532.884 6
  24411365.843     4628211.787 5  -3071663.210 1
  24588331.982    14409231.712 5   9805269.079 2
  20587651.695     9432663.409 8   -688300.404 9
  23772898.655     9278976.800 5   9353768.130 2
  24759577.931    26086615.073 6   7162880.757 1
  24667651.041    -3700662.046 4  -3097358.579 2
  20911023.010    13950217.159 8  -8027853.134 8
 94  3 15  4 44  0.0000000  0  9 24 16  3  4  5 12 13 17 20
  22000119.124    16461210.794 8   5201004.956 7
  21791127.746   -13777050.819 7  -8870132.053 6
  24399042.544     4563441.300 4  -3122133.641 1
  24606297.015    14503660.319 5   9878849.892 2
  20593939.632     9465694.773 8   -662561.696 9
  23792824.360     9383654.237 6   9435334.910 2
  24771612.020    26149862.001 6   7212164.128 1
  24648974.240    -3798706.144 4  -3173756.492 2
  20903069.936    13908446.101 8  -8060402.006 8
 94  3 15  4 44 30.0000000  0  9 24 16  3  4  5 12 13 17 20
  22013253.002    16530235.834 8   5254790.690 7
  21780821.751   -13831228.946 7  -8912348.761 6
  24386723.862     4498741.829 4  -3172548.793 1
  24624266.335    14598075.452 5   9952420.127 2
  20600328.779     9499284.435 8   -636387.932 9
  23812764.906     9488459.442 6   9517001.232 2
  24783642.691    26213088.850 5   7261431.730 1
  24630365.972    -3896589.449 5  -3250029.150 2
  20895225.506    13867193.732 8  -8092546.714 8
 94  3 15  4 45  0.0000000  0  9 24 16  3  4  5 12 13 17 20
  22026428.611    16599450.466 8   5308724.178 7
  21770601.256   -13884913.970 7  -8954181.222 6
  24374433.301     4434117.042 5  -3222905.797 1
  24642237.424    14692505.513 4  10026001.943 2
  20606825.731     9533427.600 8   -609782.899 9
  23832727.966     9593393.555 6   9598768.099 2
  24795667.756    26276300.249 5   7310687.382 1
  24611765.140    -3994310.070 4  -3326175.048 2
  20887472.664    13826466.367 8  -8124282.324 8
 94  3 15  4 45 30.0000000  0  9 24 16  3  4  5 12 13 17 20
  22039630.122    16668847.806 8   5362800.026 7
  21760482.032   -13938104.882 7  -8995628.684 6
  24362152.483     4369562.414 5  -3273208.038 1
  24660211.871    14786949.766 4  10099594.857 2
  20613428.001     9568122.698 8   -582747.765 9
  23852725.502     9698449.327 6   9680629.772 2
  24807701.546    26339492.402 5   7359928.019 1
  24593213.503    -4091876.163 5  -3402200.521 2
  20879821.241    13786261.804 9  -8155610.559 8
 94  3 15  4 46  0.0000000  0  9 24 16  3  4  5 12 13 17 20
  22052872.284    16738420.810 8   5417012.755 7
  21750453.165   -13990804.097 7  -9036692.994 6
  24349861.682     4305079.412 4  -3323454.508 1
  24678174.116    14881398.925 4  10173191.603 2
  20620135.497     9603379.874 8   -555274.644 9
  23872741.355     9803625.559 5   9762585.233 2
  24819712.161    26402667.574 5   7409155.416 1
  24574673.617    -4189287.960 5  -3478105.695 2
  20872271.687    13746583.789 8  -8186528.496 8
 94  3 15  4 46 30.0000000  0  9 24 16  3  4  5 12 13 17 20
  22066147.004    16808167.438 8   5471360.763 7
  21740518.972   -14043015.404 7  -9077377.113 6
  24337618.188     4240668.903 5  -3373644.507 1
  24696154.948    14975847.098 4  10246787.584 2
  20626954.337     9639195.151 8   -527366.651 9
  23892777.205     9908920.500 6   9844633.193 2
  24831739.564    26465827.668 5   7458371.019 1
  24556161.163    -4286535.389 5  -3553882.924 2
  20864820.016    13707435.698 9  -8217033.497 8
 94  3 15  4 47  0.0000000  0  9 24 16  3  4  5 12 13 17 20
  22079449.995    16878091.790 8   5525847.281 7
  21730674.867   -14094728.515 7  -9117673.025 6
  24325377.422     4176330.706 5  -3423778.098 1
  24714127.895    15070292.644 5  10320381.419 2
  20633876.874     9675554.417 8   -499034.764 9
  23912831.221    10014331.425 6   9926771.571 2
  24843753.897    26528973.293 5   7507575.379 1
  24537689.811    -4383607.850 4  -3629523.745 2
  20857478.158    13668819.745 8  -8247123.844 8
 94  3 15  4 47 30.0000000  0  9 24 16  3  4  5 12 13 17 20
  22092794.147    16948199.023 8   5580476.286 7
  21720931.282   -14145947.356 8  -9157583.803 6
  24313122.026     4112061.576 4  -3473857.922 1
  24732094.008    15164713.742 5  10393956.346 1
  20640894.866     9712456.939 8   -470279.569 9
  23932917.826    10119852.414 6  10008995.732 2
  24855767.120    26592102.280 5   7556766.795 1
  24519252.455    -4480504.289 4  -3705027.362 2
  20850216.795    13630734.737 8  -8276800.488 8
 94  3 15  4 48  0.0000000  0  9 24 16  3  4  5 12 13 17 20
  22106170.527    17018487.955 8   5635246.867 7
  21711278.625   -14196669.456 7  -9197107.516 6
  24300928.747     4047861.055 5  -3523884.276 1
  24750058.501    15259108.021 5  10467510.394 1
  20648017.185     9749889.314 8   -441111.492 9
  23953018.460    10225480.457 6  10091303.275 2
  24867781.663    26655214.878 4   7605945.411 1
  24500846.667    -4577228.086 5  -3780396.509 2
  20843084.193    13593182.641 8  -8306061.860 9
 94  3 15  4 48 30.0000000  0  9 24 16  3  4  5 12 13 17 20
  22119576.946    17088955.203 8   5690156.411 7
  21701716.714   -14246900.219 7  -9236248.363 6
  24288728.843     3983727.867 5  -3573858.204 1
  24768017.598    15353493.464 5  10541057.447 2
  20655239.006     9787835.095 8   -411543.374 9
  23973134.894    10331211.260 5  10173690.873 2
  24879782.775    26718310.690 4   7655110.990 1
  24482467.291    -4673774.034 5  -3855627.070 2
  20836038.381    13556164.553 9  -8334907.128 9
 94  3 15  4 49  0.0000000  0  9 24 16  3  4  5 12 13 17 20
  22133018.800    17159607.212 8   5745209.938 7
  21692255.984   -14296632.876 8  -9275001.071 6
  24276539.761     3919665.749 5  -3623776.685 2
  24785978.794    15447883.254 5  10614607.936 2
  20662555.351     9826297.919 8   -381572.357 9
  23993272.583    10437046.524 5  10256159.914 2
  24891784.816    26781394.431 3   7704267.148 1
  24464135.222    -4770132.267 4  -3930711.388 2
  20829094.528    13519686.545 8  -8363331.548 9
 94  3 15  4 49 30.0000000  0  8 24 16  3  4  5 12 17 20
  22146500.377    17230444.329 8   5800407.694 7
  21682884.082   -14345865.869 7  -9313364.408 6
  24264341.056     3855671.760 4  -3673642.089 1
  24803934.593    15542262.877 5  10688150.440 2
  20669977.462     9865285.800 8   -351192.193 9
  24013432.037    10542980.311 5  10338705.688 2
  24445830.584    -4866308.384 5  -4005653.794 2
  20822257.011    13483747.697 9  -8391335.839 9
 94  3 15  4 50  0.0000000  0  8 24 16  3  4  5 12 17 20
  22160012.952    17301461.872 8   5855746.025 7
  21673611.771   -14394600.180 7  -9351339.184 6
  24252175.778     3791742.431 5  -3723457.183 1
  24821895.369    15636625.551 5  10761679.777 2
  20677496.647     9904801.567 8   -320400.700 9
  24033605.641    10649006.535 5  10421323.491 2
  24427565.129    -4962300.743 4  -4080453.011 2
  20815518.606    13448346.886 8  -8418920.895 9
 94  3 15  4 50 30.0000000  0  8 24 16  3  4  5 12 17 20
  22173561.982    17372656.497 8   5911222.363 6
  21664436.143   -14442835.390 7  -9388925.073 6
  24240032.864     3727876.001 5  -3773223.163 2
  24839842.415    15730955.592 5  10835183.693 2
  20685121.478     9944861.771 8   -289184.968 9
  24053803.049    10755120.742 5  10504009.923 2
  24409322.128    -5058110.734 4  -4155110.100 2
  20808886.538    13413484.397 8  -8446086.478 9
 94  3 15  4 51  0.0000000  0  8 24 16  3  4  5 12 17 20
  22187142.611    17444028.586 7   5966836.944 6
  21655351.862   -14490554.712 7  -9426108.953 6
  24227896.246     3664078.416 5  -3822935.504 2
  24857783.974    15825236.580 6  10908649.390 2
  20692849.378     9985481.365 8   -257533.357 9
  24074014.277    10861326.495 5  10586767.612 2
  24391142.863    -5153732.776 5  -4229620.750 2
  20802354.450    13379168.452 8  -8472826.171 9
 94  3 15  4 51 30.0000000  0  8 24 16  3  4  5 12 17 20
  22200756.246    17515565.392 7   6022579.928 6
  21646369.510   -14537751.614 7  -9462885.736 6
  24215757.470     3600348.055 5  -3872595.545 2
  24875720.887    15919463.636 6  10982073.044 2
  20700685.294    10026655.882 8   -225449.326 9
  24094241.004    10967619.399 5  10669593.266 2
  24372986.263    -5249167.520 5  -4303985.466 2
  20795931.276    13345399.518 8  -8499139.623 9
 94  3 15  4 52  0.0000000  0  8 24 16  3  4  5 12 17 20
  22214397.373    17587242.620 7   6078432.325 6
  21637489.238   -14584434.167 7  -9499261.739 6
  24203634.343     3536680.227 5  -3922206.775 2
  24893640.651    16013642.155 6  11055458.922 3
  20708618.971    10068365.585 8   -192948.270 9
  24114475.436    11073992.161 5  10752481.086 2
  24354854.755    -5344416.080 5  -4378205.037 2
  20789606.375    13312175.127 8  -8525028.762 9
 94  3 15  4 52 30.0000000  0  8 24 16  3  4  5 12 17 20
  22228060.114    17659049.815 7   6134385.980 6
  21628700.762   -14630595.699 7  -9535231.750 6
  24191544.312     3473072.323 5  -3971771.373 2
  24911550.343    16107779.422 6  11128812.617 3
  20716658.716    10110594.811 8   -160042.402 9
  24134735.530    11180439.662 5  10835427.137 2
  24336763.539    -5439476.880 5  -4452278.390 2
  20783391.797    13279494.943 9  -8550493.837 9
 94  3 15  4 53  0.0000000  0  8 24 16  3  4  5 12 17 20
  22241752.865    17730994.198 7   6190446.533 6
  21620020.481   -14676221.609 7  -9570784.392 6
  24179449.845     3409525.107 5  -4021288.604 2
  24929469.927    16201889.388 5  11202145.026 3
  20724791.875    10153333.015 8   -126739.920 9
  24155006.807    11286959.906 5  10918429.883 2
  24318708.538    -5534347.796 5  -4526203.786 2
  20777273.063    13247361.699 8  -8575532.725 9
 94  3 15  4 53 30.0000000  0  8 24 16  3  4  5 12 17 20
  22255474.516    17803091.942 8   6246626.600 6
  21611441.590   -14721310.648 7  -9605918.698 6
  24167371.177     3346037.220 5  -4070759.708 2
  24947368.076    16295987.595 5  11275468.280 3
  20733023.037    10196581.575 8    -93039.730 9
  24175292.623    11393548.723 5  11001486.122 2
  24300683.997    -5629036.919 5  -4599987.512 2
  20771266.691    13215776.007 8  -8600144.966 9
 94  3 15  4 54  0.0000000  0  8 24 16  3  4  5 12 17 20
  22269222.038    17875360.269 7   6302939.576 6
  21602963.759   -14765861.451 7  -9640633.607 6
  24155306.509     3282610.271 5  -4120183.256 2
  24965258.161    16390073.895 4  11348782.262 3
  20741348.603    10240348.047 8    -58936.003 9
  24195590.072    11500205.768 5  11084595.514 2
  24282706.822    -5723550.644 5  -4673634.527 2
  20765356.253    13184741.988 8  -8624327.310 9
 94  3 15  4 54 30.0000000  0  7 24 16  3  5 12 17 20
  22283008.684    17947814.407 7   6359397.347 6
  21594585.969   -14809874.762 7  -9674929.666 7
  24143231.049     3219244.512 4  -4169559.090 2
  20749779.397    10284647.851 8    -24416.694 9
  24215891.327    11606928.243 5  11167755.896 2
  24264751.952    -5817893.140 5  -4747148.153 2
  20759553.800    13154261.762 8  -8648078.141 9
 94  3 15  4 55  0.0000000  0  7 24 16  3  5 12 17 20
  22296831.605    18020451.306 7   6415997.498 6
  21586311.787   -14853362.277 8  -9708816.039 7
  24131199.388     3155935.309 5  -4218890.956 2
  20758310.621    10329489.240 8     10524.648 8
  24236223.132    11713708.823 5  11250961.489 2
  24246836.924    -5912064.942 5  -4820528.775 2
  20753859.152    13124332.599 8  -8671399.578 9
 94  3 15  4 55 30.0000000  0  7 24 16  3  5 12 17 20
  22310687.862    18093258.535 7   6472730.418 6
  21578130.961   -14896339.831 8  -9742305.020 7
  24119163.531     3092681.192 5  -4268179.805 2
  20766948.181    10374871.479 8     45887.410 8
  24256545.163    11820543.602 5  11334209.372 2
  24228941.923    -6006051.700 5  -4893765.185 2
  20748273.389    13094955.190 8  -8694291.067 9
 94  3 15  4 56  0.0000000  0  7 24 16  3  5 12 17 20
  22324571.281    18166221.372 7   6529584.597 6
  21570051.374   -14938806.955 7  -9775396.277 7
  24107138.885     3029487.399 5  -4317421.688 2
  20775687.791    10420796.276 8     81672.951 8
  24276883.833    11927435.231 5  11417501.529 2
  24211089.851    -6099842.964 4  -4966849.276 2
  20742785.658    13066136.822 8  -8716746.940 9
 94  3 15  4 56 30.0000000  0  7 24 16  3  5 12 17 20
  22338484.319    18239328.992 7   6586551.561 6
  21562068.980   -14980763.376 7  -9808089.567 7
  24095125.632     2966352.762 5  -4366617.457 2
  20784528.131    10467254.301 8    117874.005 8
  24297226.220    12034379.944 5  11500835.034 2
  24193290.004    -6193427.662 5  -5039772.382 2
  20737410.290    13037877.989 8  -8738766.811 9
 94  3 15  4 57  0.0000000  0  7 24 16  3  5 12 17 20
  22352421.461    18312575.309 7   6643626.607 6
  21554182.220   -15022200.359 7  -9840378.125 7
  24083119.034     2903272.904 5  -4415770.579 2
  20793465.333    10514228.245 8    154477.059 8
  24317597.717    12141370.705 5  11584204.380 2
  24175521.665    -6286805.603 5  -5112534.395 2
  20732136.910    13010176.557 8  -8760352.335 9
 94  3 15  4 57 30.0000000  0  7 24 16  3  5 12 17 20
  22366384.894    18385953.589 7   6700804.503 6
  21546400.747   -15063104.522 7  -9872251.504 7
  24071133.361     2840249.850 5  -4464879.414 2
  20802503.417    10561712.671 8    191477.899 8
  24337967.206    12248406.916 5  11667609.226 2
  24157786.542    -6379996.344 5  -5185150.566 2
  20726972.326    12983036.379 8  -8781500.534 9
 94  3 15  4 58  0.0000000  0  7 24 16  3  5 12 17 20
  22380372.790    18459459.477 7   6758081.833 6
  21538721.114   -15103474.900 7  -9903708.917 7
  24059145.830     2777282.431 5  -4513944.899 2
  20811636.654    10609709.831 8    228878.272 8
  24358337.864    12355484.900 5  11751046.690 2
  24140076.813    -6473018.286 5  -5257635.186 2
  20721913.508    12956458.161 8  -8802210.844 9
 94  3 15  4 58 30.0000000  0  7 24 16  3  5 12 17 20
  22394385.989    18533093.049 7   6815458.615 6
  21531138.193   -15143310.055 7  -9934749.291 7
  24047174.907     2714369.106 4  -4562968.244 2
  20820866.064    10658219.763 8    266678.227 8
  24378722.312    12462600.544 5  11834513.438 2
  24122420.806    -6565864.940 5  -5329983.219 2
  20716963.994    12930442.254 8  -8822482.967 9
 94  3 15  4 59  0.0000000  0  7 24 16  3  5 12 17 20
  22408422.932    18606852.557 7   6872933.541 6
  21523658.341   -15182608.619 7  -9965371.538 7
  24035210.130     2651512.736 5  -4611947.226 2
  20830195.576    10707254.014 8    304886.703 8
  24399107.629    12569753.993 4  11918009.582 2
  24104777.150    -6658540.721 5  -5402198.155 2
  20712123.485    12904993.250 8  -8842313.363 9
 94  3 15  4 59 30.0000000  0  7 24 16  3  5 12 17 20
  22422483.618    18680735.593 7   6930504.733 6
  21516281.079   -15221379.489 7  -9995582.580 6
  24023257.705     2588711.450 5  -4660883.211 2
  20839631.423    10756818.750 8    343508.580 8
  24419508.266    12676940.955 4  12001531.858 2
  24087181.851    -6751036.836 5  -5474272.990 2
  20707384.216    12880111.381 8  -8861701.825 9
 94  3 15  5  0  0.0000000  0  7 24 16  3  5 12 17 20
  22436567.927    18754759.694 7   6988185.853 6
  21509004.486   -15259633.243 7 -10025390.706 6
  24011316.581     2525959.338 4  -4709780.992 1
  20849160.566    10806895.003 8    382529.024 8
  24439912.141    12784152.709 5  12085073.484 2
  24069624.386    -6843326.849 5  -5546187.258 2
  20702760.037    12855792.486 8  -8880651.639 9
 94  3 15  5  0 30.0000000  0  7 24 16  3  5 12 17 20
  22450685.064    18828939.681 7   7045988.446 6
  21501826.735   -15297344.916 8 -10054776.407 6
  23999385.861     2463263.535 5  -4758634.871 2
  20858783.335    10857469.219 8    421937.497 8
  24460320.243    12891393.893 5  12168638.000 2
  24052098.639    -6935389.224 5  -5617924.142 2
  20698240.396    12832045.442 8  -8899155.822 9
 94  3 15  5  1  0.0000000  0  7 24 16  3  5 12 17 20
  22464828.103    18903276.911 7   7103913.560 6
  21494754.121   -15334507.819 8 -10083734.500 6
  23987469.500     2400622.302 5  -4807446.075 2
  20868500.987    10908532.378 8    461726.953 8
  24480733.891    12998660.304 5  12252222.137 2
  24034628.803    -7027219.866 5  -5689480.505 2
  20693831.648    12808870.362 8  -8917214.322 9
 94  3 15  5  1 30.0000000  0  7 24 16  3  5 12 17 20
  22479004.029    18977767.674 7   7161958.294 6
  21487784.366   -15371114.437 8 -10112259.141 6
  23975560.335     2338033.308 5  -4856216.810 2
  20878309.807    10960079.852 8    501893.813 8
  24501148.138    13105947.002 5  12335822.173 2
  24017188.706    -7118804.247 5  -5760844.970 2
  20689529.986    12786266.519 8  -8934827.718 9
 94  3 15  5  2  0.0000000  0  7 24 16  3  5 12 17 20
  22493201.780    19052389.348 7   7220105.071 6
  21480927.184   -15407165.739 8 -10140351.061 6
  23963652.698     2275494.448 5  -4904948.407 2
  20888214.230    11012107.754 8    542435.010 8
  24521570.180    13213249.159 5  12419434.290 2
  23999812.466    -7210151.708 5  -5832024.793 2
  20685337.239    12764233.673 8  -8951996.174 9
 94  3 15  5  2 30.0000000  0  7 24 16  3  5 12 17 20
  22507425.164    19127117.010 7   7278334.409 6
  21474174.778   -15442650.629 8 -10168001.601 7
  23951766.197     2213007.556 5  -4953639.428 2
  20898206.163    11064640.220 8    583369.384 8
  24541990.783    13320566.147 5  12503057.912 2
  23982477.416    -7301286.143 5  -5903038.593 2
  20681253.706    12742775.312 8  -8968716.973 9
 94  3 15  5  3  0.0000000  0  7 24 16  3  5 12 17 20
  22521665.905    19201937.404 7   7336636.002 6
  21467527.270   -15477574.109 8 -10195214.692 7
  23939882.784     2150570.430 5  -5002291.732 2
  20908305.511    11117710.163 8    624722.582 8
  24562415.104    13427893.389 4  12586689.486 2
  23965169.079    -7392219.103 5  -5973895.431 2
  20677278.458    12721890.886 8  -8984990.561 9
 94  3 15  5  3 30.0000000  0  7 24 16  3  5 12 17 20
  22535920.437    19276845.408 7   7395005.864 6
  21460987.777   -15511943.054 8 -10221995.669 7
  23928013.911     2088178.808 5  -5050908.607 2
  20918506.819    11171319.206 8    666495.854 8
  24582836.966    13535223.804 4  12670323.521 2
  23947894.378    -7482963.554 5  -6044605.453 2
  20673415.063    12701577.867 8  -9000818.887 9
 94  3 15  5  4  0.0000000  0  7 24 16  3  5 12 17 20
  22550188.699    19351847.552 7   7453449.105 6
  21454550.484   -15545762.217 8 -10248348.260 7
  23916147.616     2025832.934 5  -5099489.778 2
  20928810.416    11225459.364 8    708682.981 8
  24603259.008    13642554.954 5  12753958.169 2
  23930653.343    -7573540.121 5  -6115184.510 2
  20669657.554    12681838.072 8  -9016200.538 9
 94  3 15  5  4 30.0000000  0  7 24 16  3  5 12 17 20
  22564482.324    19426967.306 7   7511983.987 6
  21448226.422   -15579020.266 8 -10274263.622 7
  23904304.584     1963534.147 5  -5148034.243 2
  20939213.454    11280128.059 8    751281.937 8
  24623681.830    13749885.826 5  12837592.641 2
  23913463.394    -7663943.275 5  -6185628.530 2
  20666009.110    12662674.522 8  -9031133.191 9
 94  3 15  5  5  0.0000000  0  7 24 16  3  5 12 17 20
  22578804.309    19502215.623 7   7570619.018 6
  21442001.261   -15611721.101 8 -10299744.793 7
  23892433.253     1901282.626 5  -5196541.904 2
  20949714.884    11335307.940 8    794279.241 8
  24644107.949    13857213.925 5  12921224.910 2
  23896292.421    -7754142.873 5  -6255913.914 2
  20662468.950    12644088.661 8  -9045615.665 9
 94  3 15  5  5 30.0000000  0  7 24 16  3  5 12 17 20
  22593152.196    19577604.415 7   7629363.539 6
  21435883.756   -15643867.373 8 -10324793.820 7
  23880603.262     1839081.156 5  -5245010.609 2
  20960305.383    11390971.584 8    837653.498 8
  24664540.394    13964539.580 5  13004855.237 2
  23879174.182    -7844131.607 5  -6326034.942 2
  20659050.507    12626084.928 9  -9059644.556 9
 94  3 15  5  6  0.0000000  0  7 24 16  3  5 12 17 20
  22607524.217    19653124.741 7   7688210.546 5
  21429872.438   -15675456.827 7 -10349408.962 7
  23868779.358     1776925.025 5  -5293443.893 2
  20970988.727    11447108.781 8    881396.761 8
  24684958.389    14071855.339 5  13088477.923 2
  23862077.887    -7933908.785 5  -6395991.212 2
  20655734.083    12608660.093 8  -9073222.355 9
 94  3 15  5  6 30.0000000  0  7 24 16  3  5 12 17 20
  22621918.392    19728771.151 7   7747155.811 5
  21423968.026   -15706478.339 8 -10373581.563 6
  23856970.533     1714813.194 5  -5341842.750 2
  20981764.617    11503725.828 8    925513.933 8
  24705374.045    14179157.818 5  13172090.197 2
  23845044.999    -8023453.863 5  -6465766.578 2
  20652526.783    12591814.635 8  -9086348.694 9
 94  3 15  5  7  0.0000000  0  7 24 16  3  5 12 17 20
  22636333.313    19804531.742 7   7806190.025 5
  21418175.825   -15736938.307 8 -10397316.610 6
  23845156.102     1652747.140 5  -5390205.842 2
  20992629.005    11560825.490 8    970007.181 8
  24725792.190    14286445.948 4  13255691.329 2
  23828046.916    -8112761.690 5  -6535357.046 2
  20649430.197    12575551.356 8  -9099021.387 9
 94  3 15  5  7 30.0000000  0  7 24 16  3  5 12 17 20
  22650766.820    19880402.387 7   7865309.991 5
  21412482.587   -15766845.901 8 -10420621.227 6
  23833355.222     1590725.083 5  -5438534.682 2
  21003583.752    11618404.221 8   1014873.686 8
  24746205.508    14393715.130 5  13339277.614 2
  23811094.073    -8201849.191 5  -6604775.898 2
  20646446.782    12559870.057 8  -9111240.581 9
 94  3 15  5  8  0.0000000  0  7 24 16  3  5 12 17 20
  22665228.089    19956378.358 7   7924512.040 5
  21406896.584   -15796191.692 8 -10443488.057 6
  23821559.138     1528753.370 5  -5486824.355 2
  21014635.451    11676477.554 8   1060125.617 8
  24766615.949    14500969.466 5  13422852.513 2
  23794191.624    -8290703.851 5  -6674013.248 2
  20643577.739    12544778.643 8  -9123000.132 9
 94  3 15  5  8 30.0000000  0  7 24 16  3  5 12 17 20
  22679707.076    20032452.737 7   7983790.776 5
  21401412.930   -15824993.874 8 -10465931.303 6
  23809773.697     1466824.788 5  -5535080.427 2
  21025779.456    11735031.329 8   1105751.926 8
  24787019.404    14608199.272 4  13506408.190 2
  23777328.928    -8379328.633 5  -6743071.537 2
  20640814.791    12530271.209 8  -9134304.632 9
 94  3 15  5  9  0.0000000  0  7 24 16  3  5 12 17 20
  22694201.951    20108622.905 7   8043144.150 5
  21396039.120   -15853262.356 8 -10487958.684 7
  23797990.534     1404944.717 5  -5583298.635 2
  21037010.790    11794066.556 8   1151753.377 8
  24807416.803    14715406.793 5  13589946.502 2
  23760507.063    -8467736.673 5  -6811960.864 2
  20638167.204    12516354.098 8  -9145149.133 9
 94  3 15  5  9 30.0000000  0  7 24 16  3  5 12 17 20
  22708707.619    20184882.165 7   8102566.952 5
  21390756.387   -15880985.376 8 -10509561.033 7
  23786231.205     1343107.424 5  -5631483.497 2
  21048336.650    11853580.062 8   1198127.534 8
  24827815.041    14822584.141 5  13673461.261 2
  23743725.581    -8555936.906 5  -6880688.322 2
  20635630.990    12503023.316 8  -9155536.755 9
 94  3 15  5 10  0.0000000  0  7 24 16  3  5 12 17 20
  22723237.960    20261221.095 7   8162051.818 5
  21385594.501   -15908144.709 8 -10530724.130 7
  23774463.601     1281309.781 5  -5679637.495 2
  21059754.335    11913583.753 8   1244883.638 8
  24848204.196    14929725.741 5  13756948.243 2
  23726973.508    -8643936.125 5  -6949259.142 2
  20633204.170    12490277.185 8  -9165468.813 9
 94  3 15  5 10 30.0000000  0  7 24 16  3  5 12 17 20
  22737780.382    20337646.797 7   8221604.327 5
  21380534.694   -15934735.455 8 -10551444.182 7
  23762714.405     1219553.397 5  -5727759.325 2
  21071266.786    11974085.063 8   1292027.513 8
  24868581.389    15036830.560 5  13840406.590 2
  23710267.813    -8731737.396 5  -7017675.662 2
  20630892.440    12478118.339 8  -9174943.237 9
 94  3 15  5 11  0.0000000  0  7 24 16  3  5 12 17 20
  22752341.692    20414153.197 7   8281219.700 5
  21375583.501   -15960740.400 8 -10571707.777 7
  23750982.297     1157836.891 6  -5775850.118 2
  21082876.518    12035088.339 8   1339562.519 8
  24888956.904    15143894.735 4  13923833.253 2
  23693595.755    -8819348.625 5  -7085944.130 2
  20628692.234    12466546.721 8  -9183960.089 9
 94  3 15  5 11 30.0000000  0  7 24 16  3  5 12 17 20
  22766915.053    20490751.310 7   8340906.517 5
  21370752.586   -15986145.712 8 -10591504.114 7
  23739237.358     1096159.123 5  -5823910.681 2
  21094581.045    12096593.075 8   1387488.265 8
  24909319.137    15250914.720 4  14007225.291 2
  23676952.777    -8906765.241 5  -7154060.957 2
  20626597.853    12455562.697 8  -9192519.081 9
 94  3 15  5 12  0.0000000  0  7 24 16  3  5 12 17 20
  22781511.648    20567444.419 7   8400667.377 5
  21366026.538   -16010971.422 8 -10610848.822 7
  23727502.822     1034519.470 5  -5871941.550 2
  21106374.641    12158587.121 8   1435795.298 8
  24929681.671    15357887.041 4  14090580.272 2
  23660363.042    -8993982.388 5  -7222022.383 2
  20624619.103    12445166.706 8  -9200619.856 9
 94  3 15  5 12 30.0000000  0  7 24 16  3  5 12 17 20
  22796125.211    20644241.018 7   8460508.877 5
  21361412.042   -16035228.398 8 -10629750.341 7
  23715785.733      972919.230 5  -5919941.739 2
  21118264.260    12221054.510 8   1484471.178 7
  24950026.576    15464810.388 4  14173897.217 2
  23643803.825    -9080989.398 5  -7289820.025 2
  20622757.062    12435360.984 8  -9208260.688 9
 94  3 15  5 13  0.0000000  0  7 24 16  3  5 12 17 20
  22810758.231    20721139.262 7   8520429.594 5
  21356903.284   -16058918.761 8 -10648210.347 7
  23704057.103      911356.630 5  -5967912.559 2
  21130243.007    12283990.882 8   1533512.496 7
  24970366.445    15571680.776 5  14257172.860 2
  23627285.950    -9167785.594 5  -7357453.416 2
  20620999.829    12426145.024 8  -9215441.971 9
 94  3 15  5 13 30.0000000  0  7 24 16  3  5 12 17 20
  22825409.328    20798144.519 7   8580433.675 5
  21352498.643   -16082054.031 8 -10666237.825 7
  23692359.471      849830.951 5  -6015854.612 2
  21142309.504    12347399.370 8   1582921.694 7
  24990694.802    15678494.844 4  14340404.509 1
  23610803.811    -9254356.773 5  -7424911.465 2
  20619360.774    12417518.938 8  -9222163.591 9
 94  3 15  5 14  0.0000000  0  7 24 16  3  5 12 17 20
  22840083.090    20875242.218 7   8640509.781 5
  21348206.034   -16104628.479 8 -10683828.306 7
  23680664.927      788341.772 5  -6063768.240 2
  21154465.848    12411277.065 8   1632696.510 7
  25011000.974    15785249.544 4  14423590.018 1
  23594382.019    -9340690.873 5  -7492184.783 2
  20617829.224    12409483.444 8  -9228425.024 9
 94  3 15  5 14 30.0000000  0  7 24 16  3  5 12 17 20
  22854765.995    20952423.497 7   8700651.047 5
  21344019.283   -16126616.865 8 -10700962.107 7
  23668957.432      726887.390 5  -6111654.747 2
  21166709.672    12475638.753 8   1682848.453 7
  25031311.853    15891940.887 5  14506726.181 1
  23577999.471    -9426795.751 6  -7559279.483 2
  20616415.223    12402038.159 8  -9234226.550 9
 94  3 15  5 15  0.0000000  0  7 24 16  3  5 12 17 20
  22869470.665    21029679.941 7   8760850.865 5
  21339946.512   -16148006.773 8 -10717629.579 7
  23657281.775      665469.953 5  -6159512.483 2
  21179049.669    12540481.578 8   1733375.329 7
  25051597.670    15998568.240 5  14589812.455 2
  23561650.559    -9512671.257 5  -7626195.407 2
  20615109.657    12395186.262 8  -9239565.685 9
 94  3 15  5 15 30.0000000  0  7 24 16  3  5 12 17 20
  22884182.470    21107000.869 7   8821100.927 5
  21335996.597   -16168782.134 8 -10733818.146 7
  23645612.833      604089.154 5  -6207341.616 2
  21191479.544    12605800.769 8   1784273.381 7
  25071877.490    16105128.956 5  14672846.739 2
  23545350.723    -9598314.664 5  -7692930.518 2
  20613919.840    12388928.154 8  -9244442.145 9
 94  3 15  5 16  0.0000000  0  7 24 16  3  5 12 17 20
  22898907.376    21184377.323 7   8881394.267 5
  21332157.245   -16188940.626 8 -10749526.062 7
  23633923.026      542742.446 6  -6255144.233 2
  21203999.087    12671584.233 8   1835533.211 7
  25092139.803    16211617.856 4  14755825.101 2
  23529097.835    -9683743.505 5  -7759498.426 2
  20612841.727    12383262.318 8  -9248857.093 9
 94  3 15  5 16 30.0000000  0  7 24 16  3  5 12 17 20
  22913646.433    21261825.464 7   8941743.448 5
  21328438.170   -16208500.861 8 -10764767.790 7
  23622249.617      481432.086 5  -6302918.485 2
  21216604.910    12737825.283 8   1887149.596 7
  25112377.053    16318034.862 3  14838747.319 2
  23512887.607    -9768962.808 6  -7825903.059 2
  20611873.487    12378192.110 8  -9252807.896 9
 94  3 15  5 17  0.0000000  0  7 24 16  3  5 12 17 20
  22928400.629    21339353.854 7   9002155.157 5
  21324821.144   -16227486.913 8 -10779562.120 7
  23610594.975      420157.065 5  -6350665.186 2
  21229292.427    12804510.938 8   1939112.445 7
  25132620.029    16424376.307 4  14921610.762 2
  23496711.945    -9853964.954 5  -7892138.488 2
  20611025.794    12373717.410 8  -9256294.695 9
 94  3 15  5 17 30.0000000  0  7 24 16  3  5 12 17 20
  22943173.142    21416974.614 7   9062638.861 5
  21321321.127   -16245908.932 8 -10793916.916 7
  23598948.278      358915.896 6  -6398385.616 2
  21242069.192    12871647.527 8   1991426.650 7
  25152843.339    16530638.382 4  15004412.420 2
  23480577.834    -9938752.013 5  -7958206.285 2
  20610284.077    12369837.763 8  -9259317.800 9
 94  3 15  5 18  0.0000000  0  6 24 16  3  5 17 20
  22957967.930    21494702.795 7   9123206.267 5
  21317918.842   -16263777.022 8 -10807840.087 7
  23587301.041      297714.048 6  -6446075.318 2
  21254931.607    12939242.953 8   2044098.407 7
  23464487.104   -10023310.004 5  -8024095.622 2
  20609660.929    12366559.236 8  -9261872.487 9
 94  3 15  5 18 30.0000000  0  6 24 16  3  5 17 20
  22972768.443    21572520.082 7   9183843.102 5
  21314624.063   -16281094.527 8 -10821334.247 7
  23575653.355      236545.307 5  -6493739.224 2
  21267885.489    13007299.637 8   2097129.567 7
  23448438.074   -10107619.294 5  -8089791.199 3
  20609149.633    12363876.294 8  -9263963.115 9
 94  3 15  5 19  0.0000000  0  6 24 16  3  5 17 20
  22987591.232    21650399.633 7   9244528.469 5
  21311436.490   -16297846.218 8 -10834387.506 7
  23564028.003      175408.683 5  -6541378.078 2
  21280920.855    13075815.938 8   2150518.880 7
  23432447.084   -10191671.251 5  -8155286.224 3
  20608756.185    12361788.619 8  -9265589.882 9
 94  3 15  5 19 30.0000000  0  6 24 16  3  5 17 20
  23002420.226    21728322.532 6   9305247.579 5
  21308359.270   -16314023.751 8 -10846993.375 7
  23552388.441      114298.716 6  -6588996.162 2
  21294046.818    13144783.416 8   2204259.763 7
  23416507.959   -10275464.135 6  -8220579.335 3
  20608470.243    12360291.811 8  -9266756.229 9
 94  3 15  5 20  0.0000000  0  6 24 16  3  5 17 20
  23017254.196    21806277.578 6   9365991.756 5
  21305387.727   -16329615.302 8 -10859142.623 7
  23540776.909       53222.795 5  -6636587.790 2
  21307256.393    13214202.323 8   2258352.407 7
  23400604.808   -10358986.344 5  -8285661.554 3
  20608299.001    12359393.908 8  -9267455.908 9
 94  3 15  5 20 30.0000000  0  6 24 16  3  5 17 20
  23032097.551    21884270.013 7   9426765.107 5
  21302538.709   -16344607.332 8 -10870824.718 7
  23529155.635       -7813.664 6  -6684148.641 2
  21320549.641    13284057.779 8   2312785.229 7
  23384761.496   -10442251.496 6  -8350543.509 3
  20608244.469    12359101.085 8  -9267684.089 9
 94  3 15  5 21  0.0000000  0  6 24 16  3  5 17 20
  23046946.241    21962324.370 7   9487586.665 5
  21299798.546   -16358997.111 8 -10882037.509 7
  23517552.257      -68812.227 6  -6731679.941 2
  21333922.213    13354336.458 8   2367547.811 7
  23368961.924   -10525300.453 6  -8415256.957 3
  20608301.820    12359412.585 8  -9267441.370 9
 94  3 15  5 21 30.0000000  0  6 24 16  3  5 17 20
  23061809.412    22040458.190 6   9548470.152 5
  21297176.621   -16372788.981 8 -10892784.428 7
  23505946.602     -129775.946 6  -6779184.143 2
  21347377.168    13425046.894 8   2422646.836 7
  23353199.466   -10608150.190 6  -8479815.150 3
  20608475.909    12360325.797 8  -9266729.771 9
 94  3 15  5 22  0.0000000  0  6 24 16  3  5 17 20
  23076695.786    22118670.387 6   9609414.691 5
  21294660.253   -16385990.076 8 -10903071.011 7
  23494356.356     -190707.882 6  -6826663.569 2
  21360915.736    13496188.428 8   2478081.791 7
  23337461.681   -10690812.925 5  -8544227.654 3
  20608761.072    12361838.546 8  -9265551.015 9
 94  3 15  5 22 30.0000000  0  6 24 16  3  5 17 20
  23091597.540    22196967.281 7   9670425.245 5
  21292266.021   -16398592.187 8 -10912890.830 7
  23482752.918     -251605.859 5  -6874116.581 2
  21374536.147    13567771.495 8   2533860.799 7
  23321763.109   -10773289.100 5  -8608494.818 3
  20609167.740    12363953.368 8  -9263903.112 9
 94  3 15  5 23  0.0000000  0  6 24 16  3  5 17 20
  23106512.634    22275334.637 7   9731490.737 5
  21289977.525   -16410606.943 8 -10922252.964 7
  23471183.778     -312470.775 6  -6921543.848 2
  21388247.305    13639813.579 8   2589997.479 6
  23306113.014   -10855563.804 6  -8672604.931 3
  20609683.203    12366669.759 8  -9261786.440 9
 94  3 15  5 23 30.0000000  0  6 24 16  3  5 17 20
  23121433.754    22353756.209 6   9792598.440 4
  21287802.201   -16422047.532 8 -10931167.700 7
  23459601.326     -373301.142 5  -6968944.127 2
  21402040.965    13712311.012 8   2646488.962 6
  23290502.191   -10937596.355 6  -8736526.377 3
  20610313.337    12369989.547 8  -9259199.609 9
 94  3 15  5 24  0.0000000  0  6 24 16  3  5 17 20
  23136361.560    22432223.146 7   9853741.481 4
  21285734.233   -16432908.694 8 -10939630.940 7
  23448035.153     -434099.647 6  -7016319.603 2
  21415921.476    13785248.318 8   2703323.226 7
  23274943.502   -11019383.613 6  -8800256.650 3
  20611060.480    12373910.507 8  -9256144.323 9
 94  3 15  5 24 30.0000000  0  6 24 16  3  5 17 20
  23151312.540    22510741.237 7   9914924.418 4
  21283778.117   -16443185.900 8 -10947639.140 7
  23436478.274     -494862.141 6  -7063666.952 2
  21429882.901    13858615.493 7   2760492.441 6
  23259426.334   -11100913.446 6  -8863786.379 3
  20611921.274    12378437.420 8  -9252616.863 9
 94  3 15  5 25  0.0000000  0  6 24 16  3  5 17 20
  23166257.763    22589311.182 7   9976147.758 4
  21281933.014   -16452891.212 8 -10955201.720 7
  23424923.763     -555595.710 6  -7110991.764 2
  21443921.912    13932390.603 7   2817979.521 6
  23243961.181   -11182178.886 6  -8927110.112 3
  20612897.728    12383563.763 8  -9248622.314 9
 94  3 15  5 25 30.0000000  0  6 24 16  3  5 17 20
  23181222.594    22667945.466 7  10037421.203 4
  21280199.704   -16462000.270 8 -10962299.684 7
  23413371.140     -616296.255 5  -7158290.838 2
  21458038.449    14006576.362 8   2875786.587 6
  23228550.139   -11263177.013 6  -8990225.500 3
  20613988.553    12389293.955 8  -9244157.236 9
 94  3 15  5 26  0.0000000  0  6 24 16  3  5 17 20
  23196194.079    22746643.845 6  10098744.626 4
  21278577.317   -16470500.714 8 -10968923.402 7
  23401820.617     -676966.588 6  -7205566.466 2
  21472234.072    14081178.266 8   2933917.925 6
  23213183.408   -11343931.659 6  -9053151.185 3
  20615192.579    12395625.487 8  -9239223.583 9
 94  3 15  5 26 30.0000000  0  6 24 16  3  5 17 20
  23211183.612    22825405.479 6  10160117.309 4
  21277079.165   -16478402.294 8 -10975080.474 7
  23390282.714     -737606.655 6  -7252818.457 2
  21486511.028    14156201.591 8   2992377.652 6
  23197855.529   -11424441.386 6  -9115886.012 2
  20616511.126    12402558.614 8  -9233821.146 9
 94  3 15  5 27  0.0000000  0  6 24 16  3  5 17 20
  23226190.143    22904234.042 6  10221542.178 4
  21275690.346   -16485699.818 8 -10980766.856 7
  23378753.746     -798219.323 6  -7300049.070 2
  21500873.545    14231665.895 8   3051180.987 6
  23182581.673   -11504726.868 6  -9178446.117 3
  20617941.886    12410091.057 8  -9227951.726 9
 94  3 15  5 27 30.0000000  0  6 24 16  3  5 17 20
  23241198.083    22983119.444 6  10283011.289 4
  21274416.528   -16492378.383 8 -10985970.917 7
  23367218.871     -858798.174 6  -7347253.384 2
  21515316.167    14307577.840 7   3110333.146 6
  23167342.383   -11584791.990 6  -9240834.507 3
  20619497.209    12418229.269 8  -9221610.280 9
 94  3 15  5 28  0.0000000  0  6 24 16  3  5 17 20
  23256215.137    23062044.944 6  10344511.680 4
  21273262.177   -16498447.448 8 -10990700.057 7
  23355700.065     -919342.691 6  -7394430.871 2
  21529847.647    14383931.583 7   3169829.558 6
  23152147.912   -11664631.586 6  -9303047.181 2
  20621154.252    12426974.120 8  -9214796.102 9
 94  3 15  5 28 30.0000000  0  6 24 16  3  5 17 20
  23271245.712    23141003.644 7  10406037.939 4
  21272223.396   -16503906.147 8 -10994953.586 7
  23344192.112     -979856.290 6  -7441584.334 2
  21544459.261    14460711.945 8   3229658.403 6
  23136999.878   -11744234.902 6  -9365075.726 2
  20622937.507    12436322.171 8  -9207511.931 9
 94  3 15  5 29  0.0000000  0  6 24 16  3  5 17 20
  23286272.749    23219982.780 7  10467580.122 4
  21271302.134   -16508751.482 8 -10998729.161 7
  23332671.867    -1040340.463 6  -7488714.850 2
  21559148.582    14537906.667 8   3289810.114 6
  23121904.668   -11823589.442 6  -9426910.411 2
  20624831.476    12446272.080 8  -9199758.770 9
 94  3 15  5 29 30.0000000  0  6 24 16  3  5 17 20
  23301303.144    23298967.048 6  10529126.289 4
  21270495.692   -16512997.545 8 -11002037.777 7
  23321165.893    -1100797.434 6  -7535824.130 2
  21573911.442    14615499.343 7   3350271.925 6
  23106858.565   -11902680.221 6  -9488539.546 2
  20626836.069    12456821.645 8  -9191538.330 9
 94  3 15  5 30  0.0000000  0  6 24 16  3  5 17 20
  23316339.474    23377980.074 6  10590694.890 4
  21269797.985   -16516654.365 8 -11004887.242 7
  23309671.011    -1161226.754 6  -7582911.915 2
  21588756.175    14693494.809 7   3411047.584 6
  23091854.732   -11981508.261 6  -9549963.973 3
  20628962.796    12467971.566 8  -9182850.094 9
 94  3 15  5 30 30.0000000  0  6 24 16  3  5 17 20
  23331384.559    23457045.666 6  10652304.414 4
  21269213.510   -16519729.747 8 -11007283.642 7
  23298178.976    -1221628.116 6  -7629977.933 2
  21603674.747    14771891.057 8   3472135.584 6
  23076895.598   -12060080.098 6  -9611188.790 3
  20631193.252    12479722.181 8  -9173693.773 9
 94  3 15  5 31  0.0000000  0  6 24 16  3  5 17 20
  23346439.296    23536172.285 6  10713961.533 4
  21268735.401   -16522240.282 8 -11009239.889 7
  23286692.668    -1281997.535 6  -7677018.961 2
  21618671.685    14850697.185 8   3533542.941 6
  23062002.598   -12138401.146 6  -9672218.161 3
  20633544.674    12492077.408 8  -9164066.336 9
 94  3 15  5 31 30.0000000  0  6 24 16  3  5 17 20
  23361510.943    23615366.422 6  10775671.240 4
  21268365.277   -16524190.877 8 -11010759.839 7
  23275199.525    -1342339.473 6  -7724038.649 2
  21633743.811    14929911.764 7   3595268.572 6
  23047137.269   -12216491.063 6  -9733067.435 3
  20636014.514    12505033.092 8  -9153971.012 9
 94  3 15  5 32  0.0000000  0  6 24 16  3  5 17 20
  23376592.632    23694633.292 6  10837437.612 4
  21268101.520   -16525580.944 8 -11011843.007 7
  23263725.478    -1402654.980 6  -7771037.750 2
  21648892.683    15009527.613 7   3657306.883 6
  23032317.418   -12294357.956 6  -9793742.913 3
  20638595.698    12518587.894 8  -9143408.850 9
 94  3 15  5 32 30.0000000  0  6 24 16  3  5 17 20
  23391693.118    23773953.929 6  10899245.890 4
  21267941.371   -16526397.863 8 -11012479.550 8
  23252259.526    -1462939.466 6  -7818012.666 2
  21664124.749    15089552.211 8   3719663.692 6
  23017543.077   -12371998.598 6  -9854242.144 3
  20641284.176    12532746.144 8  -9132376.455 9
 94  3 15  5 33  0.0000000  0  6 24 16  3  5 17 20
  23406790.066    23853312.411 6  10961083.668 4
  21267897.661   -16526633.939 8 -11012663.518 8
  23240793.274    -1523191.190 6  -7864962.009 2
  21679429.513    15169987.185 8   3782340.268 6
  23002811.005   -12449409.066 6  -9914561.944 3
  20644096.589    12547509.802 8  -9120872.316 9
 94  3 15  5 33 30.0000000  0  6 24 16  3  5 17 20
  23421896.758    23932693.624 6  11022939.156 4
  21267967.033   -16526277.384 8 -11012385.663 8
  23229332.957    -1583413.119 6  -7911888.225 2
  21694814.982    15250825.203 7   3845330.925 6
  22988127.860   -12526589.474 6  -9974702.516 3
  20647021.005    12562875.682 8  -9108898.917 9
 94  3 15  5 34  0.0000000  0  6 24 16  3  5 17 20
  23437007.527    24012090.989 6  11084807.228 4
  21268147.658   -16525319.456 8 -11011639.236 8
  23217879.387    -1643605.589 6  -7958791.413 2
  21710270.093    15332068.415 7   3908637.297 6
  22973480.930   -12603529.932 6 -10034656.087 3
  20650058.202    12578843.196 8  -9096456.691 9
 94  3 15  5 34 30.0000000  0  6 24 16  3  5 17 20
  23452108.313    24091494.682 6  11146680.219 4
  21268449.609   -16523752.450 8 -11010418.186 8
  23206425.456    -1703768.603 6  -8005671.674 2
  21725810.135    15413715.897 7   3972258.702 6
  22958892.759   -12680216.701 6 -10094412.017 3
  20653210.250    12595412.230 8  -9083545.772 9
 94  3 15  5 35  0.0000000  0  6 24 16  3  5 17 20
  23467231.044    24170907.843 6  11208560.611 4
  21268858.795   -16521568.936 8 -11008716.751 8
  23194990.112    -1763900.023 6  -8052527.302 2
  21741419.758    15495747.696 7   4036179.566 6
  22944348.298   -12756637.663 6 -10153960.747 3
  20656483.504    12612584.609 8  -9070164.715 9
 94  3 15  5 35 30.0000000  0  6 24 16  3  5 17 20
  23482346.880    24250334.838 6  11270451.797 4
  21269396.833   -16518761.927 8 -11006529.457 8
  23183545.086    -1824004.823 6  -8099362.195 2
  21757100.703    15578149.615 7   4100388.843 6
  22929853.393   -12832796.653 6 -10213305.435 3
  20659859.047    12630354.981 8  -9056317.679 9
 94  3 15  5 36  0.0000000  0  6 24 16  3  5 17 20
  23497457.229    24329785.049 6  11332361.042 4
  21270051.220   -16515337.616 8 -11003861.152 8
  23172119.216    -1884084.760 6  -8146177.714 2
  21772848.231    15660913.377 7   4164880.065 6
  22915415.058   -12908695.938 6 -10272447.718 3
  20663356.006    12648721.492 8  -9042006.114 9
 94  3 15  5 36 30.0000000  0  6 24 16  3  5 17 20
  23512585.536    24409259.681 6  11394289.285 4
  21270819.678   -16511299.322 8 -11000714.438 8
  23160686.031    -1944137.514 6  -8192972.057 2
  21788664.292    15744023.795 7   4229641.403 6
  22901025.230   -12984334.496 6 -10331386.808 3
  20666965.747    12667686.093 8  -9027228.531 9
 94  3 15  5 37  0.0000000  0  6 24 16  3  5 17 20
  23527713.633    24488771.648 6  11456246.677 4
  21271701.458   -16506654.875 8 -10997095.376 8
  23149262.529    -2004160.705 6  -8239743.367 2
  21804545.138    15827484.928 7   4294676.033 6
  22886679.052   -13059721.183 6 -10390129.717 3
  20670688.930    12687250.751 8  -9011983.350 9
 94  3 15  5 37 30.0000000  0  6 24 16  3  5 17 20
  23542853.482    24568334.478 6  11518243.685 4
  21272698.537   -16501416.347 8 -10993013.411 8
  23137845.083    -2064153.444 6  -8286490.938 2
  21820496.345    15911317.895 7   4360000.417 6
  22872385.757   -13134854.259 6 -10448674.936 3
  20674527.742    12707415.887 8  -8996270.261 9
 94  3 15  5 38  0.0000000  0  6 24 16  3  5 17 20
  23558005.622    24647939.342 6  11580273.427 4
  21273801.504   -16495600.462 8 -10988481.525 8
  23126441.518    -2124116.683 6  -8333215.543 2
  21836528.016    15995530.043 7   4425620.263 6
  22858136.082   -13209725.796 6 -10507016.353 3
  20678473.880    12728180.002 8  -8980090.442 9
 94  3 15  5 38 30.0000000  0  6 24 16  3  5 17 20
  23573158.542    24727582.297 6  11642332.859 4
  21275020.010   -16489208.386 8 -10983500.687 8
  23115040.710    -2184052.905 6  -8379919.056 3
  21852623.663    16080131.868 7   4491543.745 6
  22843928.767   -13284338.065 6 -10565155.761 3
  20682540.025    12749540.361 8  -8963446.022 9
 94  3 15  5 39  0.0000000  0  6 24 16  3  5 17 20
  23588326.421    24807272.630 6  11704429.218 4
  21276350.339   -16482237.518 8 -10978068.852 8
  23103635.496    -2243959.961 6  -8426599.854 3
  21868799.505    16165136.995 7   4557781.497 6
  22829776.704   -13358699.010 6 -10623099.343 3
  20686719.042    12771498.219 8  -8946336.012 9
 94  3 15  5 39 30.0000000  0  6 24 16  3  5 17 20
  23603496.519    24886997.532 6  11766552.555 4
  21277783.347   -16474678.917 8 -10972179.013 8
  23092239.635    -2303838.568 6  -8473258.537 3
  21885051.374    16250535.101 7   4624325.447 6
  22815681.063   -13432809.251 6 -10680847.562 3
  20691015.668    12794052.338 8  -8928761.390 9
 94  3 15  5 40  0.0000000  0  6 24 16  3  5 17 20
  23618669.555    24966744.073 6  11828692.727 4
  21279338.131   -16466527.117 8 -10965826.969 8
  23080853.817    -2363688.683 6  -8519894.962 3
  21901373.005    16336314.137 7   4691166.259 6
  22801622.955   -13506680.878 6 -10738409.841 3
  20695417.970    12817202.531 8  -8910722.279 9
 94  3 15  5 40 30.0000000  0  6 24 16  3  5 17 20
  23633848.917    25046496.122 6  11890837.147 3
  21281002.189   -16457776.596 8 -10959008.376 8
  23069459.695    -2423516.821 6  -8566514.274 3
  21917762.359    16422454.053 7   4758288.245 6
  22787602.411   -13580332.886 6 -10795801.004 3
  20699932.395    12840941.495 8  -8892224.407 9
 94  3 15  5 41  0.0000000  0  6 24 16  3  5 17 20
  23649023.032    25126248.065 6  11952981.527 3
  21282780.228   -16448428.775 8 -10951724.345 8
  23058081.223    -2483318.250 6  -8613112.806 3
  21934225.971    16508942.250 7   4825681.631 6
  22773630.014   -13653755.537 6 -10853013.429 3
  20704563.049    12865273.375 8  -8873264.496 9
 94  3 15  5 41 30.0000000  0  6 24 16  3  5 17 20
  23664197.747    25205991.816 6  12015119.511 3
  21284673.537   -16438486.491 8 -10943977.118 8
  23046713.782    -2543095.431 6  -8659692.414 3
  21950748.403    16595784.261 7   4893350.703 6
  22759702.736   -13726935.187 6 -10910036.527 3
  20709307.505    12890194.922 8  -8853845.132 9
 94  3 15  5 42  0.0000000  0  6 24 16  3  5 17 20
  23679367.665    25285731.592 6  12077254.387 3
  21286676.001   -16427955.140 8 -10935770.869 8
  23035335.939    -2602850.379 6  -8706254.685 3
  21967341.106    16682988.232 7   4961301.857 6
  22745831.938   -13799862.783 6 -10966863.221 3
  20714163.063    12915703.447 8  -8833968.349 9
 94  3 15  5 42 30.0000000  0  6 24 16  3  5 17 20
  23694543.909    25365468.273 6  12139386.851 3
  21288792.626   -16416836.178 8 -10927106.737 8
  23023974.404    -2662582.729 6  -8752799.358 3
  21984004.380    16770548.696 7   5029530.777 6
  22732006.020   -13872519.124 6 -11023478.532 3
  20719124.239    12941798.542 8  -8813634.535 9
 94  3 15  5 43  0.0000000  0  6 24 16  3  5 17 20
  23709720.872    25445218.353 6  12201529.767 3
  21291018.615   -16405138.500 8 -10917991.657 8
  23012604.895    -2722292.840 6  -8799326.730 3
  22000737.596    16858466.048 7   5098037.781 6
  22718233.494   -13944883.865 6 -11079866.628 3
  20724205.871    12968479.037 8  -8792844.540 9
 94  3 15  5 43 30.0000000  0  6 24 16  3  5 17 20
  23724897.955    25524983.122 6  12263684.141 3
  21293351.120   -16392858.383 8 -10908422.745 8
  23001257.181    -2781979.311 6  -8845835.622 3
  22017534.278    16946738.407 7   5166821.405 6
  22704518.199   -14016949.967 6 -11136022.030 3
  20729395.098    12995745.768 8  -8771597.757 9
 94  3 15  5 44  0.0000000  0  6 24 16  3  5 17 20
  23740082.113    25604760.473 6  12325848.291 3
  21295802.763   -16379998.516 8 -10898402.045 8
  22989902.602    -2841639.550 6  -8892324.148 3
  22034394.096    17035337.397 7   5235859.588 6
  22690861.244   -14088734.175 6 -11191957.745 4
  20734692.611    13023600.157 8  -8749893.048 9
 94  3 15  5 44 30.0000000  0  6 24 16  3  5 17 20
  23755259.436    25684551.815 6  12388023.355 3
  21298356.874   -16366562.053 8 -10887932.082 8
  22978555.187    -2901272.311 6  -8938791.208 3
  22051316.871    17124252.175 7   5305143.819 6
  22677252.105   -14160247.597 6 -11247682.456 4
  20740103.595    13052042.849 8  -8727729.920 9
 94  3 15  5 45  0.0000000  0  6 24 16  3  5 17 20
  23770455.436    25764367.304 6  12450217.238 3
  21301028.625   -16352545.649 8 -10877010.197 8
  22967211.310    -2960875.021 6  -8985234.874 3
  22068296.636    17213491.133 7   5374680.623 6
  22663691.893   -14231501.205 6 -11303204.759 4
  20745631.828    13081075.249 8  -8705107.286 9
 94  3 15  5 45 30.0000000  0  6 24 16  3  5 17 20
  23785643.881    25844198.663 6  12512423.489 3
  21303806.652   -16337951.983 8 -10865638.499 8
  22955874.359    -3020453.426 6  -9031659.594 3
  22085336.300    17303045.321 7   5444463.123 6
  22650177.818   -14302526.787 6 -11358549.328 4
  20751264.868    13110690.901 8  -8682030.146 9
 94  3 15  5 46  0.0000000  0  6 24 16  3  5 17 20
  23800839.282    25924049.155 6  12574644.622 3
  21306688.077   -16322769.536 8 -10853808.034 8
  22944544.872    -3080006.019 6  -9078064.213 3
  22102440.869    17392921.639 7   5514496.588 6
  22636702.387   -14373333.425 6 -11413723.329 4
  20757009.072    13140890.351 8  -8658498.129 9
 94  3 15  5 46 30.0000000  0  6 24 16  3  5 17 20
  23816040.168    26003922.041 6  12636883.221 3
  21309695.085   -16306989.079 8 -10841511.552 8
  22933212.657    -3139530.363 6  -9124446.782 3
  22119607.734    17483138.409 7   5584795.366 6
  22623273.873   -14443898.209 6 -11468708.862 4
  20762872.742    13171675.045 8  -8634510.049 9
 94  3 15  5 47  0.0000000  0  6 24 16  3  5 17 20
  23831238.417    26083810.672 6  12699134.088 3
  21312812.747   -16290600.633 8 -10828741.338 8
  22921885.869    -3199028.461 6  -9170808.949 3
  22136839.595    17573692.388 7   5655356.889 6
  22609892.157   -14514220.768 6 -11523505.653 4
  20768843.709    13203041.664 8  -8610068.548 9
 94  3 15  5 47 30.0000000  0  6 24 16  3  5 17 20
  23846446.259    26163694.560 6  12761381.242 3
  21316046.968   -16273600.189 8 -10815494.232 8
  22910570.802    -3258498.444 6  -9217149.177 3
  22154132.643    17664576.457 7   5726175.619 6
  22596561.916   -14584301.717 7 -11578114.176 4
  20774918.373    13234990.774 8  -8585173.153 9
 94  3 15  5 48  0.0000000  0  6 24 16  3  5 17 20
  23861632.576    26243551.315 6  12823607.330 3
  21319399.667   -16255993.452 8 -10801774.694 8
  22899256.874    -3317945.283 6  -9263471.406 3
  22171496.592    17755788.201 7   5797249.688 6
  22583267.020   -14654122.585 6 -11632520.029 4
  20781112.085    13267516.520 8  -8559828.410 9
 94  3 15  5 48 30.0000000  0  6 24 16  3  5 17 20
  23876832.023    26323387.214 6  12885817.094 3
  21322863.079   -16237790.144 8 -10787590.285 8
  22887954.909    -3377369.380 6  -9309775.851 3
  22188910.697    17847320.105 7   5868573.241 6
  22570030.013   -14723679.507 6 -11686720.207 4
  20787407.817    13300617.247 8  -8534035.665 9
 94  3 15  5 49  0.0000000  0  6 24 16  3  5 17 20
  23892018.790    26403199.962 6  12948008.830 3
  21326440.323   -16218999.250 8 -10772948.020 8
  22876643.559    -3436770.143 6  -9356062.150 3
  22206387.997    17939166.084 7   5940141.514 6
  22556846.520   -14792979.844 6 -11740720.446 4
  20793816.690    13334292.569 8  -8507795.157 9
 94  3 15  5 49 30.0000000  0  6 24 16  3  5 17 20
  23907208.914    26482992.760 6  13010185.015 3
  21330125.252   -16199644.068 8 -10757866.055 8
  22865345.371    -3496148.784 6  -9402331.207 3
  22223921.629    18031327.086 7   6011955.266 5
  22543712.613   -14862025.575 7 -11794522.304 4
  20800333.219    13368540.066 8  -8481108.807 9
 94  3 15  5 50  0.0000000  0  6 24 16  3  5 17 20
  23922391.633    26562796.942 6  13072370.086 3
  21333912.650   -16179730.032 8 -10742348.648 8
  22854053.748    -3555505.425 6  -9448583.138 3
  22241525.652    18123815.992 7   6084024.530 6
  22530620.226   -14930807.440 7 -11848118.556 4
  20806954.465    13403358.034 8  -8453977.935 9
 94  3 15  5 50 30.0000000  0  6 24 16  3  5 17 20
  23937579.688    26642625.257 6  13134573.944 3
  21337808.602   -16159252.830 8 -10726392.368 8
  22842758.138    -3614833.059 6  -9494812.424 3
  22259186.516    18216641.093 7   6156355.771 6
  22517582.432   -14999339.628 6 -11901520.233 4
  20813693.770    13438752.533 8  -8426397.812 9
 94  3 15  5 51  0.0000000  0  6 24 16  3  5 17 20
  23952775.748    26722461.376 6  13196783.877 3
  21341811.701   -16138219.890 8 -10710003.056 8
  22831476.618    -3674138.782 6  -9541024.651 3
  22276915.252    18309795.823 7   6228943.865 5
  22504587.089   -15067625.819 6 -11954730.251 4
  20820535.873    13474715.245 8  -8398374.928 9
 94  3 15  5 51 30.0000000  0  6 24 16  3  5 17 20
  23967968.631    26802310.459 6  13259003.950 3
  21345922.096   -16116614.891 8 -10693167.995 8
  22820200.794    -3733417.996 6  -9587216.269 3
  22294705.626    18403280.927 7   6301789.386 5
  22491638.573   -15135649.198 6 -12007735.465 4
  20827490.219    13511249.220 8  -8369906.899 9
 94  3 15  5 52  0.0000000  0  6 24 16  3  5 17 20
  23983159.174    26882155.759 6  13321221.029 3
  21350144.373   -16094436.764 8 -10675886.336 8
  22808926.229    -3792676.740 6  -9633391.895 3
  22312551.582    18497072.050 7   6374873.332 5
  22478745.848   -15203403.469 7 -12060530.991 4
  20834545.714    13548347.201 8  -8340999.396 9
 94  3 15  5 52 30.0000000  0  6 24 16  3  5 17 20
  23998348.519    26961982.448 6  13383423.637 3
  21354471.637   -16071686.848 8 -10658159.118 8
  22797653.433    -3851911.914 6  -9679549.161 3
  22330455.487    18591145.306 7   6448177.192 5
  22465906.936   -15270888.102 6 -12113116.409 4
  20841717.679    13586010.663 8  -8311651.256 9
 94  3 15  5 53  0.0000000  0  6 24 16  3  5 17 20
  24013539.243    27041804.375 6  13445622.506 3
  21358913.362   -16048363.632 8 -10639985.169 8
  22786384.085    -3911117.170 6  -9725683.102 3
  22348407.539    18685492.774 7   6521694.675 5
  22453109.306   -15338086.327 6 -12165478.639 4
  20848992.113    13624244.524 8  -8281858.651 9
 94  3 15  5 53 30.0000000  0  6 24 16  3  5 17 20
  24028728.407    27121618.735 6  13507815.513 3
  21363457.646   -16024473.262 8 -10621369.308 8
  22775120.732    -3970293.231 6  -9771794.315 3
  22366416.942    18780114.930 7   6595426.219 5
  22440376.760   -15405012.332 7 -12217628.783 4
  20856376.361    13663046.531 8  -8251623.335 9
 94  3 15  5 54  0.0000000  0  6 24 16  3  5 17 20
  24043918.472    27201425.029 6  13570002.207 2
  21368109.226   -16000023.680 8 -10602317.680 8
  22763862.926    -4029440.493 6  -9817883.072 4
  22384473.112    18875019.760 7   6669378.033 5
  22427691.043   -15471690.694 7 -12269585.928 4
  20863868.055    13702414.762 8  -8220946.797 9
 94  3 15  5 54 30.0000000  0  6 24 16  3  5 17 20
  24059101.910    27281220.575 6  13632180.550 2
  21372870.050   -15975009.152 8 -10582825.838 8
  22752619.509    -4088558.189 6  -9863948.792 3
  22402591.609    18970226.816 7   6743565.321 5
  22415043.908   -15538126.977 6 -12321354.456 4
  20871465.875    13742348.613 8  -8189829.522 9
 94  3 15  5 55  0.0000000  0  6 24 16  3  5 17 20
  24074274.766    27360999.995 5  13694346.314 2
  21377740.298   -15949427.421 8 -10562892.018 8
  22741372.495    -4147649.410 6  -9909993.895 4
  22420767.426    19065738.354 7   6817989.873 5
  22402453.884   -15604320.645 7 -12372933.904 4
  20879174.798    13782843.159 8  -8158275.336 9
 94  3 15  5 55 30.0000000  0  6 24 16  3  5 17 20
  24089459.374    27440753.828 5  13756492.156 2
  21382712.536   -15923278.455 8 -10542516.214 8
  22730133.336    -4206715.785 6  -9956019.616 4
  22438996.036    19161551.692 7   6892649.593 5
  22389901.394   -15670265.245 6 -12424319.317 4
  20886985.591    13823895.352 8  -8126286.632 9
 94  3 15  5 56  0.0000000  0  6 24 16  3  5 17 20
  24104629.352    27520481.571 5  13818617.646 2
  21387797.286   -15896561.321 8 -10521697.640 8
  22718901.162    -4265756.895 6 -10002025.673 4
  22457285.984    19257645.370 7   6967527.784 5
  22377401.787   -15735953.054 7 -12475504.603 4
  20894903.080    13865504.089 8  -8093864.257 9
 94  3 15  5 56 30.0000000  0  6 24 16  3  5 17 20
  24119796.752    27600193.806 5  13880731.064 2
  21392990.351   -15869282.265 8 -10500441.242 8
  22707664.821    -4324770.166 6 -10048010.042 4
  22475621.501    19353997.077 7   7042607.032 5
  22364959.081   -15801369.650 7 -12526478.538 4
  20902928.524    13907670.014 8  -8061007.690 9
 94  3 15  5 57  0.0000000  0  6 24 16  3  5 17 20
  24134963.462    27679905.492 5  13942844.047 2
  21398286.664   -15841438.827 8 -10478745.058 8
  22696440.531    -4383755.474 6 -10093972.579 4
  22494003.066    19450592.948 7   7117876.524 5
  22352554.628   -15866523.645 7 -12577247.873 4
  20911057.906    13950391.583 8  -8027718.168 9
 94  3 15  5 57 30.0000000  0  6 24 16  3  5 17 20
  24150136.109    27759619.488 5  14004958.856 2
  21403692.282   -15813038.216 8 -10456614.703 8
  22685225.775    -4442711.151 6 -10139912.085 4
  22512432.357    19547438.959 7   7193340.930 5
  22340207.436   -15931415.693 7 -12627813.104 4
  20919291.646    13993668.824 8  -7993995.657 9
 94  3 15  5 58  0.0000000  0  6 24 16  3  5 17 20
  24165305.007    27839351.560 5  14067087.707 2
  21409206.305   -15784079.365 8 -10434049.363 8
  22674009.880    -4501637.709 6 -10185828.864 4
  22530909.256    19644537.738 7   7269002.305 5
  22327906.742   -15996052.367 7 -12678179.311 4
  20927630.313    14037499.634 8  -7959841.787 9
 94  3 15  5 58 30.0000000  0  6 24 16  3  5 17 20
  24180476.065    27919096.746 5  14129226.761 2
  21414820.668   -15754553.666 8 -10411042.318 8
  22662797.072    -4560537.035 6 -10231724.419 4
  22549435.141    19741898.276 7   7344867.655 5
  22315663.128   -16060423.741 7 -12728338.827 4
  20936078.165    14081879.795 8  -7925259.838 9
 94  3 15  5 59  0.0000000  0  6 24 16  3  5 17 20
  24195657.945    27998838.133 5  14191362.879 3
  21420546.644   -15724453.359 8 -10387587.545 8
  22651596.796    -4619409.453 6 -10277599.015 4
  22568015.708    19839537.782 6   7420950.385 5
  22303461.245   -16124522.091 7 -12778285.563 4
  20944625.997    14126807.201 8  -7890251.497 8
 94  3 15  5 59 30.0000000  0  6 24 16  3  5 17 20
  24210829.901    28078554.045 5  14253479.168 3
  21426385.642   -15693790.901 8 -10363694.704 8
  22640409.770    -4678256.171 7 -10323453.604 4
  22586650.147    19937456.244 7   7497250.451 5
  22291320.730   -16188344.213 7 -12828017.057 4
  20953280.766    14172278.857 8  -7854819.050 8
 94  3 15  6  0  0.0000000  0  6 24 16  3  5 17 20
  24225991.785    28158232.946 5  14315566.625 2
  21432327.588   -15662556.968 8 -10339356.590 8
  22629209.135    -4737077.476 6 -10369288.375 4
  22605334.682    20035640.137 6   7573757.362 5
  22279225.633   -16251899.826 7 -12877540.904 4
  20962036.864    14218292.803 8  -7818964.033 8
 94  3 15  6  0 30.0000000  0  6 24 16  3  5 17 20
  24241141.737    28237849.501 5  14377605.478 2
  21438376.621   -15630759.186 8 -10314579.093 8
  22618016.593    -4795873.719 6 -10415103.643 4
  22624065.775    20134085.076 6   7650467.711 5
  22267180.092   -16315195.545 7 -12926862.229 4
  20970892.373    14264846.452 8  -7782688.465 8
 94  3 15  6  1  0.0000000  0  6 24 16  3  5 17 20
  24256271.513    28317411.279 5  14439601.637 3
  21444530.880   -15598416.436 8 -10289376.966 8
  22606837.602    -4854644.662 6 -10460899.180 4
  22642848.342    20232787.705 6   7727378.825 5
  22255186.025   -16378253.129 7 -12975997.995 4
  20979854.909    14311938.175 8  -7745993.628 8
 94  3 15  6  1 30.0000000  0  6 24 16  3  5 17 20
  24271414.629    28396936.751 6  14501569.531 3
  21450791.986   -15565530.794 8 -10263751.768 8
  22595659.870    -4913387.130 6 -10506672.510 4
  22661677.647    20331729.479 6   7804476.291 5
  22243225.775   -16441084.736 7 -13024957.654 4
  20988919.673    14359569.333 8  -7708878.442 8
 94  3 15  6  2  0.0000000  0  6 24 16  3  5 17 20
  24286544.885    28476446.026 6  14563524.773 3
  21457152.832   -15532090.602 8 -10237694.480 8
  22584483.727    -4972096.727 7 -10552420.247 4
  22680546.225    20430910.405 6   7881760.116 5
  22231304.858   -16503687.217 7 -13073738.788 4
  20998086.997    14407742.039 8  -7671341.282 8
 94  3 15  6  2 30.0000000  0  7 24 16  3  5 26 17 20
  24301671.903    28555946.216 6  14625472.938 3
  21463621.934   -15498103.042 8 -10211210.667 8
  22573309.173    -5030776.349 6 -10598144.649 4
  22699469.394    20530331.244 6   7959230.898 5
  24719542.357     -197436.77415   -814808.510 1
  22219439.282   -16566053.264 7 -13122335.705 4
  21007354.781    14456451.485 8  -7633385.883 8
 94  3 15  6  3  0.0000000  0  7 24 16  3  5 26 17 20
  24316805.336    28635448.141 6  14687422.510 3
  21470194.973   -15463566.634 8 -10184299.200 8
  22562154.016    -5089425.541 7 -10643845.310 4
  22718431.687    20629990.660 6   8036887.561 4
  24705114.365     -273239.525 4   -873875.603 1
  22207621.434   -16628175.080 7 -13170742.310 4
  21016724.914    14505695.851 8  -7595013.679 8
 94  3 15  6  3 30.0000000  0  7 24 16  3  5 26 17 20
  24331923.420    28714940.797 6  14749364.843 2
  21476870.512   -15428479.084 8 -10156958.223 8
  22551001.047    -5148042.616 7 -10689520.948 4
  22737444.914    20729890.464 6   8114731.553 4
  24690698.485     -349010.965 3   -932918.255 1
  22195845.616   -16690029.779 7 -13218940.746 5
  21026199.105    14555474.929 8  -7556224.796 8
 94  3 15  6  4  0.0000000  0  7 24 16  3  5 26 17 20
  24347056.553    28794407.453 6  14811286.883 2
  21483650.198   -15392845.860 8 -10129192.074 8
  22539851.226    -5206626.693 6 -10735170.870 4
  22756504.730    20830044.754 6   8192773.878 4
  24676282.875     -424750.196 4   -991935.808 1
  22184136.202   -16751604.996 7 -13266921.431 5
  21035771.718    14605787.440 8  -7517020.235 8
 94  3 15  6  4 30.0000000  0  7 24 16  3  5 26 17 20
  24362164.564    28873835.646 6  14873178.962 2
  21490532.954   -15356682.775 8 -10101013.049 8
  22528711.448    -5265176.074 7 -10780793.758 4
  22775609.694    20930450.248 6   8271011.894 4
  24661875.089     -500468.903 3  -1050937.434 1
  22172474.186   -16812896.528 7 -13314681.068 5
  21045452.736    14656632.630 8  -7477400.628 8
 94  3 15  6  5  0.0000000  0  6 24 16  3  5 17 20
  24377273.775    28953224.946 6  14935040.761 3
  21497516.169   -15319997.736 8 -10072427.306 8
  22517581.862    -5323687.596 7 -10826387.159 4
  22794764.333    21031108.826 6   8349447.130 4
  22160861.665   -16873902.071 7 -13362217.817 5
  21055226.300    14708011.898 8  -7437364.847 8
 94  3 15  6  5 30.0000000  0  6 24 16  3  5 17 20
  24392378.728    29032573.012 6  14996870.402 2
  21504592.770   -15282788.795 8 -10043433.315 7
  22506448.620    -5382163.055 7 -10871952.464 4
  22813962.922    21132007.420 6   8428069.403 4
  22149306.044   -16934627.060 7 -13409535.969 5
  21065106.051    14759920.602 8  -7396916.511 8
 94  3 15  6  6  0.0000000  0  7 24 16  3  5 26 17 20
  24407466.413    29111892.459 6  15058677.731 2
  21511776.127   -15245052.638 8 -10014028.524 7
  22495330.607    -5440605.480 7 -10917491.994 4
  22833210.168    21233131.326 6   8506867.232 4
  24618686.478     1308689.14615    -41202.698
  22137794.734   -16995088.874 7 -13456649.054 5
  21075082.004    14812353.508 8  -7356059.719 8
 94  3 15  6  6 30.0000000  0  7 24 16  3  5 26 17 20
  24422563.781    29191191.427 6  15120469.118 2
  21519058.296   -15206775.761 8  -9984202.384 7
  22484219.819    -5499010.916 7 -10963002.724 4
  22852491.949    21334472.401 6   8585834.291 4
  24604283.879     1233077.891 3   -100120.509 1
  22126342.182   -17055285.775 7 -13503555.728 5
  21085161.027    14865312.402 8  -7314793.062 8
 94  3 15  6  7  0.0000000  0  7 24 16  3  5 26 17 20
  24437643.701    29270485.306 6  15182256.620 2
  21526450.548   -15167944.183 8  -9953944.007 7
  22473119.163    -5557380.143 7 -11008485.226 4
  22871818.969    21436033.387 6   8664972.716 4
  24589915.096     1157509.300 4   -159004.951 1
  22114936.398   -17115213.827 7 -13550252.875 5
  21095336.732    14918794.365 8  -7273118.804 8
 94  3 15  6  7 30.0000000  0  7 24 16  3  5 26 17 20
  24452727.309    29349780.809 5  15244045.285 2
  21533944.730   -15128548.646 8  -9923246.187 7
  22462018.088    -5615710.126 7 -11053937.158 4
  22891181.185    21537809.742 6   8744278.938 4
  24575550.540     1081990.546 4   -217850.746 1
  22103583.288   -17174879.161 7 -13596745.329 5
  21105617.245    14972800.079 8  -7231036.464 8
 94  3 15  6  8  0.0000000  0  7 24 16  3  5 26 17 20
  24467824.018    29429070.554 5  15305829.482 2
  21541551.065   -15088593.377 8  -9892112.205 7
  22450918.093    -5673999.304 7 -11099357.298 4
  22910593.796    21639808.527 6   8823758.490 4
  24561174.922     1006520.814 3   -276658.381 1
  22092283.840   -17234284.477 7 -13643035.172 5
  21115991.144    15027328.266 8  -7188546.963 8
 94  3 15  6  8 30.0000000  0  7 24 16  3  5 26 17 20
  24482905.527    29508346.982 5  15367603.276 2
  21549256.300   -15048086.659 8  -9860548.526 7
  22439828.860    -5732249.102 7 -11144746.744 4
  22930048.678    21742032.800 6   8903413.769 4
  24546832.761      931113.519 5   -335417.267 2
  22081029.122   -17293430.536 7 -13689122.996 5
  21126465.143    15082375.118 8  -7145653.334 8
 94  3 15  6  9  0.0000000  0  7 24 16  3  5 26 17 20
  24497991.294    29587616.950 5  15429372.121 2
  21557066.913   -15007040.124 8  -9828564.216 7
  22428752.848    -5790460.612 7 -11190106.351 4
  22949542.113    21844479.407 6   8983242.302 4
  24532497.525      855769.075 4   -394127.258 2
  22069814.665   -17352333.688 7 -13735021.531 5
  21137036.994    15137937.219 8  -7102358.191 8
 94  3 15  6  9 30.0000000  0  7 24 16  3  5 26 17 20
  24513078.319    29666865.665 4  15491124.370 2
  21564983.263   -14965452.902 8  -9796158.598 7
  22417680.493    -5848630.326 7 -11235433.409 4
  22969079.437    21947140.805 6   9063238.154 4
  24518168.555      780484.670 5   -452790.391 2
  22058656.180   -17410995.257 7 -13780731.850 5
  21147711.794    15194015.583 8  -7058660.780 8
 94  3 15  6 10  0.0000000  0  7 24 16  3  5 26 17 20
  24528147.027    29746088.097 4  15552855.975 2
  21573000.972   -14923327.684 8  -9763333.741 7
  22406626.305    -5906759.739 7 -11280729.038 4
  22988652.467    22050009.199 6   9143395.336 4
  24503853.645      705259.704 6   -511407.276 2
  22047538.167   -17469402.559 7 -13826243.994 5
  21158480.849    15250606.193 8  -7014564.196 8
 94  3 15  6 10 30.0000000  0  7 24 16  3  5 26 17 20
  24543223.710    29825291.323 5  15614572.822 2
  21581116.354   -14880673.086 8  -9730096.409 7
  22395571.339    -5964846.280 7 -11325991.265 4
  23008269.836    22153075.235 6   9223706.510 4
  24489557.862      630108.053 5   -569966.974 2
  22036472.857   -17527541.922 7 -13871547.399 5
  21169346.077    15307708.981 8  -6970068.528 8
 94  3 15  6 11  0.0000000  0  7 24 16  3  5 26 17 20
  24558286.542    29904471.611 5  15676271.809 2
  21589332.646   -14837500.087 8  -9696455.102 7
  22384520.149    -6022891.134 7 -11371221.043 4
  23027914.037    22256330.938 6   9304165.492 4
  24475273.711      555030.372 5   -628469.054 2
  22025469.095   -17585400.170 7 -13916631.719 5
  21180311.166    15365320.411 8  -6925176.522 8
 94  3 15  6 11 30.0000000  0  7 24 16  3  5 26 17 20
  24573346.047    29983613.841 4  15737941.055 2
  21597643.552   -14793821.116 8  -9662419.544 7
  22373485.508    -6080897.560 7 -11416420.839 4
  23047601.468    22359768.832 6   9384766.450 4
  24460990.788      480022.567 5   -686916.711 1
  22014514.918   -17642963.277 7 -13961486.082 5
  21191367.901    15423434.476 8  -6879892.848 8
 94  3 15  6 12  0.0000000  0  7 24 16  3  5 26 17 20
  24588419.731    30062730.452 4  15799590.230 2
  21606049.223   -14749648.907 8  -9627999.653 7
  22362461.060    -6138863.004 7 -11461588.743 4
  23067315.190    22463385.826 6   9465506.919 4
  24446731.400      405086.393 5   -745308.486 1
  22003613.775   -17700240.073 7 -14006117.322 5
  21202522.459    15482051.000 8  -6834217.662 8
 94  3 15  6 12 30.0000000  0  7 24 16  3  5 26 17 20
  24603447.128    30141820.997 4  15861219.296 1
  21614543.903   -14704994.843 8  -9593204.282 7
  22351435.563    -6196788.542 7 -11506725.512 4
  23087072.113    22567190.120 6   9546393.371 4
  24432482.804      330218.881 5   -803646.850 1
  21992767.014   -17757248.396 7 -14050539.387 5
  21213772.321    15541166.512 8  -6788153.614 8
 94  3 15  6 13  0.0000000  0  7 24 16  3  5 26 17 20
  24618503.185    30220868.093 5  15922814.486 1
  21623135.115   -14659850.902 8  -9558027.179 7
  22340420.679    -6254675.243 7 -11551832.037 4
  23106858.535    22671185.415 6   9627428.644 4
  24418243.142      255406.195 5   -861942.380 1
  21981959.346   -17813999.669 7 -14094761.144 5
  21225114.129    15600776.810 8  -6741704.048 8
 94  3 15  6 13 30.0000000  0  7 24 16  3  5 26 17 20
  24633524.286    30299870.608 5  15984374.893 1
  21631821.901   -14614197.719 8  -9522453.278 7
  22329411.130    -6312522.128 7 -11596907.515 4
  23126684.529    22775371.931 6   9708612.945 4
  24404022.787      180645.141 5   -920197.772 1
  21971210.408   -17870504.677 7 -14138791.001 5
  21236553.550    15660880.718 8  -6694869.850 8
 94  3 15  6 14  0.0000000  0  7 24 16  3  5 26 17 20
  24648559.178    30378831.760 5  16045902.936 1
  21640609.568   -14568020.667 8  -9486471.167 7
  22318409.796    -6370323.307 7 -11641947.417 4
  23146549.317    22879765.058 6   9789958.223 4
  24389808.937      105953.403 5   -978399.154 1
  21960508.506   -17926758.707 7 -14182625.301 5
  21248084.437    15721480.990 8  -6647648.881 8
 94  3 15  6 14 30.0000000  0  7 24 16  3  5 26 17 20
  24663571.255    30457738.225 5  16107388.566 1
  21649499.853   -14521312.149 8  -9450074.923 7
  22307421.713    -6428081.754 7 -11686953.984 5
  23166458.834    22984369.900 6   9871468.467 3
  24375610.496       31335.848 5  -1036542.671 1
  21949854.422   -17982741.407 7 -14226248.180 5
  21259708.350    15782571.677 8  -6600045.741 8
 94  3 15  6 15  0.0000000  0  8 24 16  3  5 23 26 17 20
  24678582.433    30536590.288 5  16168831.725 1
  21658490.749   -14474057.128 8  -9413252.818 7
  22296440.376    -6485791.325 7 -11731922.468 5
  23186399.709    23089175.868 6   9953135.443 3
  24501150.956    -1313964.45714   -254644.652
  24361427.045      -43197.872 4  -1094620.904 1
  21939252.442   -18038449.573 7 -14269657.135 5
  21271429.126    15844156.204 8  -6552057.807 8
 94  3 15  6 15 30.0000000  0  8 24 16  3  5 23 26 17 20
  24693566.600    30615403.459 5  16230244.611 2
  21667582.765   -14426283.317 8  -9376026.467 7
  22285465.183    -6543459.054 7 -11776858.374 5
  23206376.260    23194157.933 6  10034939.611 3
  24480744.563    -1421125.058 4   -338151.788
  24347263.380     -117630.939 4  -1152620.610 1
  21928703.914   -18093894.106 7 -14312860.652 5
  21283241.009    15906224.618 8  -6503692.836 8
 94  3 15  6 16  0.0000000  0  8 24 16  3  5 23 26 17 20
  24708556.792    30694172.735 5  16291623.163 2
  21676768.346   -14378008.310 8  -9338409.598 7
  22274500.664    -6601083.282 7 -11821760.361 5
  23226388.516    23299312.179 6  10116877.967 3
  24460376.424    -1528200.235 5   -421588.222
  24333114.375     -191953.514 4  -1210534.307 2
  21918197.208   -18149073.125 7 -14355857.272 5
  21295142.230    15968775.997 8  -6454951.500 8
 94  3 15  6 16 30.0000000  0  8 24 16  3  5 23 26 17 20
  24723545.845    30772916.246 6  16352981.728 2
  21686046.233   -14329238.804 8  -9300407.386 7
  22263543.040    -6658661.048 7 -11866626.134 5
  23246427.753    23404612.102 6  10198929.842 3
  24440011.132    -1635201.819 4   -504969.253
  24318995.800     -266167.934 5  -1268363.716 2
  21907751.929   -18203998.701 7 -14398656.414 5
  21307134.857    16031810.169 8  -6405833.979 7
 94  3 15  6 17  0.0000000  0  8 24 16  3  5 23 26 17 20
  24738524.976    30851633.763 6  16414320.150 2
  21695422.901   -14279988.021 8  -9262030.147 7
  22252596.448    -6716196.651 7 -11911459.079 5
  23266491.003    23510039.870 6  10281081.343 3
  24419672.223    -1742142.414 5   -588299.529 1
  24304886.937     -340267.324 3  -1326103.568 1
  21897342.745   -18258696.056 7 -14441277.719 5
  21319223.689    16095319.867 8  -6356345.885 7
 94  3 15  6 17 30.0000000  0  8 24 16  3  5 23 26 17 20
  24753506.024    30930330.222 6  16475642.055 2
  21704885.700   -14230260.871 8  -9223281.734 7
  22241650.756    -6773687.533 7 -11956257.148 5
  23286576.948    23615607.824 6  10363342.111 3
  24399324.679    -1849030.511 5   -671588.933 1
  24290824.032     -414245.249 5  -1383748.591 2
  21886985.125   -18313143.530 7 -14483704.300 5
  21331399.819    16159304.773 8  -6306487.547 7
 94  3 15  6 18  0.0000000  0  8 24 16  3  5 23 26 17 20
  24768476.910    31009003.016 6  16536945.504 2
  21714441.705   -14180033.482 8  -9184143.510 7
  22230725.239    -6831124.753 7 -12001013.424 5
  23306698.958    23721338.370 6  10445729.509 3
  24378997.551    -1955834.985 4   -754813.196 2
  24276766.704     -488112.510 4  -1441307.564 2
  21876667.618   -18367338.719 7 -14525934.304 5
  21343663.129    16223770.769 8  -6256254.287 7
 94  3 15  6 18 30.0000000  0  8 24 16  3  5 23 26 17 20
  24783443.719    31087658.776 6  16598235.651 2
  21724097.480   -14129304.891 8  -9144614.735 7
  22219799.933    -6888512.872 7 -12045731.447 5
  23326851.457    23827226.236 6  10528239.517 3
  24358689.430    -2062559.489 4   -837975.109 2
  24262726.554     -561871.252 3  -1498781.865 2
  21866400.326   -18421296.188 7 -14567979.094 5
  21356021.264    16288710.498 8  -6205651.914 7
 94  3 15  6 19  0.0000000  0  8 24 16  3  5 23 26 17 20
  24798395.388    31166269.685 5  16659490.938 2
  21733840.675   -14078081.612 8  -9104700.499 7
  22208889.945    -6945857.501 7 -12090415.566 5
  23347032.046    23933285.793 6  10610883.296 3
  24338409.969    -2169193.196 5   -921066.275 2
  24248709.698     -635526.735 5  -1556175.685 2
  21856176.534   -18475020.038 7 -14609841.801 5
  21368468.977    16354114.976 8  -6154687.411 7
 94  3 15  6 19 30.0000000  0  8 24 16  3  5 23 26 17 20
  24813349.486    31244837.194 5  16720712.347 2
  21743683.761   -14026368.186 8  -9064404.317 7
  22197988.262    -7003158.358 7 -12135065.562 5
  23367247.471    24039518.429 6  10693661.932 3
  24318135.725    -2275711.447 5  -1004067.447 2
  24234712.358     -709090.079 5  -1613497.760 2
  21845999.539   -18528502.194 7 -14651516.216 5
  21381004.708    16419981.659 8  -6103362.732 7
 94  3 15  6 20  0.0000000  0  8 24 16  3  5 23 26 17 20
  24828296.298    31323367.702 5  16781904.941 2
  21753619.513   -13974154.488 8  -9023718.314 7
  22187089.458    -7060409.296 7 -12179676.715 5
  23387491.347    24145913.668 6  10776567.315 3
  24297893.618    -2382094.871 5  -1086963.596 2
  24220726.260     -782548.157 5  -1670737.760 2
  21835871.231   -18581733.323 7 -14692995.026 5
  21393624.172    16486313.630 7  -6051675.480 7
 94  3 15  6 20 30.0000000  0  8 24 16  3  5 23 26 17 20
  24843218.977    31401859.218 5  16843067.132 2
  21763652.187   -13921435.826 8  -8982638.842 7
  22176207.501    -7117608.568 7 -12224247.555 5
  23407768.859    24252460.027 6  10859590.439 3
  24277673.726    -2488359.141 5  -1169766.919 2
  24206780.425     -855887.686 5  -1727885.436 2
  21825793.138   -18634693.109 7 -14734262.364 5
  21406336.302    16553109.526 8  -5999626.752 7
 94  3 15  6 21  0.0000000  0  8 24 16  3  5 23 26 17 20
  24858172.835    31480298.276 5  16904188.492 3
  21773782.324   -13868217.376 8  -8941169.912 7
  22165330.611    -7174758.664 7 -12268780.087 5
  23428069.005    24359147.895 6  10942723.809 3
  24257468.494    -2594494.723 5  -1252469.947 2
  24192841.215     -929117.103 4  -1784947.279 2
  21815771.496   -18687364.486 7 -14775304.984 5
  21419132.973    16620363.519 8  -5947221.051 7
 94  3 15  6 21 30.0000000  0  8 24 16  3  5 23 26 17 20
  24873077.857    31558699.150 4  16965280.056 3
  21784004.587   -13814491.607 8  -8899305.679 7
  22154465.113    -7231857.108 7 -12313272.401 5
  23448394.125    24465956.595 6  11025951.373 3
  24237295.699    -2700504.995 5  -1335075.373 2
  24178929.106    -1002227.644 5  -1841916.495 2
  21805802.317   -18739725.457 7 -14816105.727 5
  21432022.639    16688074.763 8  -5894459.050 7
 94  3 15  6 22  0.0000000  0  8 24 16  3  5 23 26 17 20
  24887989.264    31637054.990 4  17026336.467 3
  21794322.514   -13760259.114 8  -8857046.610 7
  22143612.956    -7288901.879 7 -12357722.862 5
  23468741.578    24572881.622 6  11109269.552 3
  24217145.779    -2806409.132 5  -1417598.122 2
  24165041.340    -1075209.271 5  -1898785.308 2
  21795896.665   -18791779.500 7 -14856667.312 5
  21444991.811    16756242.397 8  -5841341.416 7
 94  3 15  6 22 30.0000000  0  7 16  3  5 23 26 17 20
  21804736.015   -13705546.341 8  -8814413.268 7
  22132768.024    -7345895.396 7 -12402133.396 5
  23489111.726    24679927.313 6  11192681.742 3
  24197013.306    -2912212.990 5  -1500042.647 2
  24151173.121    -1148077.471 5  -1955565.628 2
  21786045.844   -18843551.416 7 -14897009.063 5
  21458050.561    16824860.896 8  -5787872.483 7
 94  3 15  6 23  0.0000000  0  7 16  3  5 23 26 17 20
  21815231.539   -13650380.341 8  -8771426.773 7
  22121932.205    -7402833.832 7 -12446501.008 5
  23509507.267    24787103.771 6  11276195.850 3
  24176891.446    -3017896.863 5  -1582393.658 2
  24137329.335    -1220826.248 5  -2012252.991 2
  21776252.434   -18895043.028 7 -14937132.359 5
  21471192.323    16893930.292 8  -5734052.179 7
 94  3 15  6 23 30.0000000  0  7 16  3  5 23 26 17 20
  21825812.504   -13594778.979 8  -8728101.038 7
  22111099.594    -7459721.976 7 -12490829.426 5
  23529927.540    24894407.413 6  11359809.062 3
  24156812.427    -3123467.359 5  -1664656.339 2
  24123510.461    -1293445.840 5  -2068839.682 2
  21766498.447   -18946275.286 7 -14977053.589 5
  21484420.305    16963443.027 8  -5679886.430 7
 94  3 15  6 24  0.0000000  0  7 16  3  5 23 26 17 20
  21836476.002   -13538743.782 8  -8684437.243 7
  22100290.038    -7516554.020 7 -12535114.138 5
  23550376.084    25001861.953 6  11443539.897 3
  24136748.577    -3228912.939 5  -1746821.685 3
  24109712.873    -1365932.363 5  -2125322.654 2
  21756793.445   -18997272.567 7 -15016791.746 6
  21497735.587    17033401.552 8  -5625373.311 7
 94  3 15  6 24 30.0000000  0  7 16  3  5 23 26 17 20
  21847227.309   -13482266.134 8  -8640428.697 7
  22089490.614    -7573327.211 7 -12579352.993 5
  23570851.279    25109474.741 6  11527394.009 3
  24116707.511    -3334212.239 5  -1828873.092 3
  24095953.988    -1438279.023 5  -2181696.650 2
  21747133.413   -19048035.495 7 -15056347.230 6
  21511130.734    17103805.059 8  -5570513.434 7
 94  3 15  6 25  0.0000000  0  7 16  3  5 23 26 17 20
  21858058.181   -13425329.341 8  -8596062.357 7
  22078700.664    -7630043.306 7 -12623547.342 5
  23591356.394    25217226.683 6  11611356.527 3
  24096695.765    -3439366.404 5  -1910811.446 3
  24082215.909    -1510454.769 5  -2237937.461 2
  21737519.968   -19098554.216 7 -15095712.473 6
  21524612.671    17174648.359 8  -5515310.884 7
 94  3 15  6 25 30.0000000  0  7 16  3  5 23 26 17 20
  21868980.820   -13367915.848 8  -8551324.568 7
  22067909.094    -7686704.866 7 -12667699.219 5
  23611885.942    25325099.924 5  11695413.541 3
  24076706.563    -3544389.153 5  -1992647.292 3
  24068515.394    -1582458.593 5  -2294044.348 2
  21727949.064   -19148850.483 7 -15134904.366 6
  21538175.521    17245925.810 7  -5459770.031 7
 94  3 15  6 26  0.0000000  0  7 16  3  5 23 26 17 20
  21879998.252   -13310024.543 8  -8506214.470 7
  22057145.016    -7743314.061 7 -12711810.263 5
  23632433.057    25433088.151 5  11779560.239 3
  24056746.501    -3649291.499 5  -2074389.418 2
  24054846.117    -1654300.034 5  -2350024.634 2
  21718420.730   -19198922.285 7 -15173921.340 6
  21551822.824    17317631.525 7  -5403895.456 7
 94  3 15  6 26 30.0000000  0  7 16  3  5 23 26 17 20
  21891102.775   -13251665.577 8  -8460739.948 7
  22046373.833    -7799867.357 7 -12755877.761 5
  23653004.786    25541177.098 6  11863785.355 3
  24036805.506    -3754073.561 5  -2156037.758 2
  24041207.508    -1725960.366 6  -2405863.896 2
  21708944.590   -19248744.797 8 -15212744.068 6
  21565546.153    17389765.894 7  -5347686.859 7
 94  3 15  6 27  0.0000000  0  7 16  3  5 23 26 17 20
  21902298.105   -13192848.696 8  -8414908.611 6
  22035628.612    -7856362.087 7 -12799899.636 5
  23673589.945    25649358.218 6  11948082.320 3
  24016874.973    -3858743.374 4  -2237598.649 2
  24027606.074    -1797444.532 5  -2461565.772 2
  21699510.212   -19298320.288 7 -15251374.312 6
  21579353.185    17462327.976 7  -5291145.002 7
 94  3 15  6 27 30.0000000  0  7 16  3  5 23 26 17 20
  21913575.817   -13133584.323 8  -8368728.586 6
  22024889.686    -7912799.768 7 -12843877.036 5
  23694193.061    25757632.011 6  12032451.511 3
  23996995.825    -3963299.360 5  -2319070.815 2
  24014029.853    -1868781.825 6  -2517153.261 2
  21690119.573   -19347657.606 7 -15289818.959 6
  21593239.301    17535312.901 7  -5234273.646 7
 94  3 15  6 28  0.0000000  0  7 16  3  5 23 26 17 20
  21924939.600   -13073875.216 8  -8322202.014 6
  22014160.834    -7969173.975 7 -12887805.007 5
  23714813.446    25865998.043 6  12116892.592 3
  23977120.845    -4067728.095 5  -2400443.809 3
  24000479.564    -1939967.989 5  -2572623.041 2
  21680780.828   -19396730.323 7 -15328057.441 6
  21607215.536    17608723.343 7  -5177070.708 7
 94  3 15  6 28 30.0000000  0  7 16  3  5 23 26 17 20
  21936384.597   -13013720.754 8  -8275328.418 6
  22003442.474    -8025483.053 7 -12931682.201 5
  23735455.506    25974441.837 6  12201394.206 3
  23957278.541    -4172007.887 5  -2481700.758 3
  23986964.530    -2010996.467 5  -2627969.828 2
  21671490.679   -19445538.981 7 -15366090.136 6
  21621263.601    17682557.501 7  -5119537.603 7
 94  3 15  6 29  0.0000000  0  7 16  3  5 23 26 17 20
  21947921.270   -12953114.646 8  -8228102.872 6
  21992739.313    -8081729.778 7 -12975510.821 6
  23756103.622    26082953.805 6  12285948.996 2
  23937467.416    -4276133.729 5  -2562837.816 3
  23973479.595    -2081876.002 5  -2683200.665 2
  21662253.444   -19494093.505 7 -15403924.827 6
  21635390.571    17756809.269 7  -5061679.106 7
 94  3 15  6 29 30.0000000  0  7 16  3  5 23 26 17 20
  21959534.930   -12892059.130 8  -8180527.150 6
  21982053.121    -8137914.640 7 -13019291.224 6
  23776766.037    26191530.477 6  12370554.162 2
  23917677.666    -4380093.168 5  -2643845.162 3
  23960022.392    -2152600.056 5  -2738310.314 2
  21653067.743   -19542377.174 8 -15441548.472 6
  21649599.624    17831474.370 7  -5003498.512 7
 94  3 15  6 30  0.0000000  0  7 16  3  5 23 26 17 20
  21971235.530   -12830554.318 8  -8132601.327 6
  21971372.535    -8194032.573 7 -13063019.477 6
  23797436.158    26300188.523 6  12455222.786 2
  23897935.643    -4483867.502 5  -2724708.273 3
  23946596.516    -2223145.672 5  -2793280.844 2
  21643929.020   -19590380.892 8 -15478953.950 6
  21663892.529    17906554.006 8  -4944994.912 7
 94  3 15  6 30 30.0000000  0  7 16  3  5 23 26 17 20
  21983027.627   -12768606.282 7  -8084330.129 6
  21960706.309    -8250081.479 7 -13106693.939 6
  23818136.078    26408938.047 6  12539962.689 3
  23878218.743    -4587449.366 5  -2805421.415 3
  23933203.768    -2293503.211 5  -2848104.879 2
  21634848.606   -19638113.767 8 -15516148.358 6
  21678257.744    17982046.914 8  -4886169.287 7
 94  3 15  6 31  0.0000000  0  7 16  3  5 23 26 17 20
  21994902.586   -12706215.052 8  -8035713.595 6
  21950053.664    -8306058.178 7 -13150312.144 6
  23838844.661    26517793.409 5  12624785.047 2
  23858550.829    -4690854.014 5  -2885996.392 2
  23919858.207    -2363672.104 6  -2902781.959 2
  21625811.932   -19685573.622 7 -15553130.086 6
  21692701.625    18057952.578 8  -4827022.019 7
 94  3 15  6 31 30.0000000  0  7 16  3  5 23 26 17 20
  22006857.350   -12643381.266 7  -7986752.209 6
  21939414.899    -8361960.300 7 -13193872.246 6
  23859580.796    26626755.545 6  12709690.580 2
  23838903.181    -4794089.800 5  -2966439.857 2
  23906538.188    -2433652.932 5  -2957312.377 2
  21616836.056   -19732759.727 8 -15589898.463 6
  21707221.803    18134269.973 7  -4767553.941 7
 94  3 15  6 32  0.0000000  0  7 16  3  5 23 26 17 20
  22018896.175   -12580099.969 7  -7937442.116 6
  21928790.674    -8417788.482 7 -13237374.701 6
  23880337.706    26735821.905 6  12794677.345 3
  23819289.049    -4897170.312 6  -3046762.354 2
  23893259.451    -2503433.286 5  -3011686.710 2
  21607905.119   -19779690.067 8 -15626467.528 6
  21721824.694    18210994.209 7  -4707768.831 7
 94  3 15  6 32 30.0000000  0  7 16  3  5 23 26 17 20
  22031028.087   -12516367.951 8  -7887780.794 6
  21918185.576    -8473543.982 7 -13280820.556 6
  23901109.516    26844979.030 6  12879734.782 3
  23799695.154    -5000124.003 5  -3126985.996 3
  23880013.810    -2573014.525 5  -3065905.855 2
  21599026.795   -19826365.748 8 -15662838.203 6
  21736502.083    18288120.571 7  -4647670.381 7
 94  3 15  6 33  0.0000000  0  7 16  3  5 23 26 17 20
  22043241.541   -12452183.043 8  -7837766.583 6
  21907583.476    -8529226.828 7 -13324209.790 6
  23921900.093    26954228.517 6  12964864.230 3
  23780122.634    -5102966.865 5  -3207123.312 3
  23866815.867    -2642399.420 5  -3119971.993 2
  21590188.254   -19872790.677 7 -15699013.452 6
  21751252.231    18365645.497 7  -4587261.356 6
 94  3 15  6 33 30.0000000  0  7 16  3  5 23 26 17 20
  22055538.848   -12387546.542 8  -7787400.487 6
  21897002.900    -8584835.757 7 -13367541.415 6
  23942706.739    27063578.850 6  13050072.302 2
  23760576.255    -5205671.931 5  -3287153.193 3
  23853641.278    -2711577.501 4  -3173876.992 2
  21581401.217   -19918966.356 8 -15734994.511 6
  21766081.675    18443566.299 7  -4526543.859 6
 94  3 15  6 34  0.0000000  0  7 16  3  5 23 26 17 20
  22067923.514   -12322472.657 8  -7736693.561 6
  21886434.766    -8640368.159 7 -13410813.411 6
  23963540.486    27173044.889 6  13135370.503 2
  23741065.103    -5308226.225 5  -3367065.598 3
  23840524.548    -2780536.937 5  -3227611.528 2
  21572666.404   -19964902.235 8 -15770788.671 6
  21780981.870    18521881.891 7  -4465518.727 6
 94  3 15  6 34 30.0000000  0  7 16  3  5 23 26 17 20
  22080386.457   -12256981.184 8  -7685661.265 6
  21875885.520    -8695831.562 7 -13454031.656 6
  23984385.445    27282606.249 5  13220742.991 3
  23721581.021    -5410626.652 5  -3446858.120 3
  23827445.683    -2849303.151 5  -3281195.576 2
  21563960.281   -20010606.990 7 -15806402.755 6
  21795959.801    18600581.053 7  -4404194.713 6
 94  3 15  6 35  0.0000000  0  7 16  3  5 23 26 17 20
  22092926.325   -12191080.991 8  -7634310.448 6
  21865340.230    -8751219.354 7 -13497190.966 6
  24005253.879    27392251.455 6  13306180.787 3
  23702125.900    -5512838.116 5  -3526503.382 3
  23814386.753    -2917877.200 5  -3334629.913 2
  21555309.140   -20056084.490 8 -15841839.787 6
  21811007.764    18679666.620 7  -4342569.611 6
 94  3 15  6 35 30.0000000  0  7 16  3  5 23 26 17 20
  22105545.219   -12124782.479 8  -7582649.275 6
  21854819.104    -8806531.911 7 -13540291.643 6
  24026125.250    27501959.677 6  13391667.705 3
  23682716.976    -5614845.162 6  -3605989.371 3
  23801376.240    -2986260.763 5  -3387915.740 2
  21546694.754   -20101330.490 7 -15877096.375 6
  21826130.015    18759134.144 7  -4280646.870 6
 94  3 15  6 36  0.0000000  0  7 16  3  5 23 26 17 20
  22118234.685   -12058095.338 7  -7530685.274 6
  21844305.742    -8861766.596 7 -13583331.667 6
  24047009.841    27611698.753 6  13477178.648 3
  23663338.542    -5716671.692 6  -3685334.746 3
  23788406.919    -3054450.494 5  -3441050.591 2
  21538135.529   -20146337.186 8 -15912166.535 6
  21841325.475    18838982.365 7  -4218427.490 6
 94  3 15  6 36 30.0000000  0  7 16  3  5 23 26 17 20
  22131000.117   -11991012.803 7  -7478413.149 6
  21833805.751    -8916921.818 7 -13626309.766 6
  24067896.292    27721449.605 6  13562698.812 3
  23643996.022    -5818318.822 5  -3764540.261 3
  23775463.739    -3122452.196 4  -3494038.907 2
  21529623.072   -20191085.093 8 -15947035.017 6
  21856591.447    18919208.902 7  -4155913.309 6
 94  3 15  6 37  0.0000000  0  7 16  3  5 23 26 17 20
  22143838.070   -11923538.356 7  -7425835.672 6
  21823329.353    -8971998.589 7 -13669226.710 6
  24088781.693    27831217.245 6  13648232.027 3
  23624683.062    -5919792.077 5  -3843610.335 3
  23762571.944    -3190251.479 4  -3546869.463 2
  21521154.325   -20235567.161 8 -15981696.365 6
  21871930.837    18999808.964 7  -4093108.097 6
 94  3 15  6 37 30.0000000  0  7 16  3  5 23 26 17 20
  22156754.118   -11855656.533 7  -7372940.765 6
  21812868.036    -9026992.577 7 -13712079.183 6
  24109680.376    27941015.690 5  13733789.240 2
  23605407.127    -6021094.316 5  -3922547.092 3
  23749706.320    -3257828.977 5  -3599527.275 2
  21512740.979   -20279770.995 8 -16016140.908 6
  21887336.572    19080783.165 7  -4030011.314 6
 94  3 15  6 38  0.0000000  0  7 16  3  5 23 26 17 20
  22169750.001   -11787358.636 7  -7319721.633 6
  21802413.703    -9081903.655 7 -13754867.029 6
  24130576.509    28050854.113 5  13819377.673 2
  23586170.344    -6122221.332 6  -4001347.342 3
  23736885.396    -3325173.357 5  -3652003.274 2
  21504383.605   -20323698.937 8 -16050370.455 6
  21902815.876    19162127.418 7  -3966626.209 6
 94  3 15  6 38 30.0000000  0  7 16  3  5 23 26 17 20
  22182826.589   -11718639.630 7  -7266174.361 6
  21791983.414    -9136725.943 7 -13797585.683 6
  24151497.946    28160748.791 5  13905009.828 2
  23566960.363    -6223139.381 6  -4079984.748 3
  23724121.882    -3392279.700 5  -3704293.932 1
  21496078.724   -20367347.292 8 -16084382.151 6
  21918368.179    19243843.350 7  -3902951.448 6
 94  3 15  6 39  0.0000000  0  7 16  3  5 23 26 17 20
  22195983.161   -11649501.515 7  -7212300.510 6
  21781569.583    -9191454.110 7 -13840231.004 6
  24172417.134    28270703.370 5  13990688.716 2
  23547793.882    -6323836.060 6  -4158449.695 3
  23711386.639    -3459131.296 4  -3756386.073 1
  21487824.089   -20410726.622 8 -16118184.219 6
  21933989.105    19325932.620 7  -3838985.810 6
 94  3 15  6 39 30.0000000  0  7 16  3  5 23 26 17 20
  22209222.295   -11579949.770 7  -7158104.343 6
  21771172.451    -9246088.626 8 -13882803.353 6
  24193345.975    28380717.899 5  14076414.351 2
  23528680.553    -6424315.830 6  -4236745.588 3
  23698728.981    -3525737.474 4  -3808286.899 1
  21479621.318   -20453842.802 8 -16151781.237 6
  21949681.801    19408390.477 7  -3774732.939 6
 94  3 15  6 40  0.0000000  0  7 16  3  5 23 26 17 20
  22222531.402   -11510001.465 7  -7103599.183 6
  21760792.167    -9300632.043 7 -13925304.723 6
  24214283.031    28490779.255 4  14162176.374 2
  23509597.294    -6524592.618 6  -4314883.345 3
  23686088.142    -3592108.723 3  -3860004.875 1
  21471460.457   -20496714.448 8 -16185187.690 6
  21965440.872    19491210.438 7  -3710197.913 6
 94  3 15  6 40 30.0000000  0  7 16  3  5 23 26 17 20
  22235913.867   -11439663.987 7  -7048790.761 6
  21750430.950    -9355085.216 8 -13967735.763 6
  24235245.419    28600877.034 5  14247966.802 2
  23490545.634    -6624687.594 6  -4392879.393 3
  23673501.236    -3658245.391 3  -3911539.906 1
  21463345.315   -20539359.282 8 -16218417.432 6
  21981269.014    19574387.821 7  -3645384.374 6
 94  3 15  6 41  0.0000000  0  7 16  3  5 23 26 17 20
  22249377.936   -11368927.874 7  -6993671.709 6
  21740087.571    -9409445.042 8 -14010094.064 7
  24256202.740    28711018.398 5  14333791.260 2
  23471534.924    -6724621.378 5  -4470749.831 4
  23660970.421    -3724139.720 3  -3962886.013 1
  21455271.005   -20581791.312 8 -16251481.343 6
  21997165.269    19657921.521 7  -3580293.209 6
 94  3 15  6 41 30.0000000  0  7 16  3  5 23 26 17 20
  22262914.885   -11297785.869 7  -6938236.392 6
  21729763.078    -9463709.602 8 -14052378.154 7
  24277169.625    28821205.330 5  14419651.234 2
  23452547.000    -6824393.193 6  -4548494.095 4
  23648474.951    -3789782.363 3  -4014036.242 1
  21447239.385   -20624006.043 8 -16284375.926 6
  22013128.168    19741809.556 7  -3514925.931 6
 94  3 15  6 42  0.0000000  0  7 16  3  5 23 26 17 20
  22276534.996   -11226234.722 7  -6882482.253 6
  21719454.325    -9517879.386 8 -14094588.361 7
  24298142.086    28931426.370 5  14505537.787 2
  23433597.658    -6923985.675 6  -4626098.583 4
  23636039.171    -3855155.729 3  -4064976.362 1
  21439246.349   -20665997.247 8 -16317096.351 6
  22029160.949    19826046.861 7  -3449286.451 6
 94  3 15  6 42 30.0000000  0  7 16  3  5 23 26 17 20
  22290224.629   -11154288.190 7  -6826420.029 6
  21709156.124    -9571958.381 7 -14136727.833 7
  24319126.599    29041674.589 5  14591445.499 2
  23414681.353    -7023379.741 6  -4703548.495 4
  23623649.798    -3920259.246 3  -4115706.278 1
  21431304.157   -20707742.249 8 -16349624.904 6
  22045253.688    19910625.442 7  -3383381.084 6
 94  3 15  6 43  0.0000000  0  7 16  3  5 23 26 17 20
  22303986.571   -11081959.481 8  -6770059.990 6
  21698888.322    -9625944.956 8 -14178795.311 7
  24340108.743    29151952.101 5  14677375.996 2
  23395810.288    -7122551.084 6  -4780824.849 4
  23611324.280    -3985089.010 3  -4166223.031 1
  21423412.540   -20749216.268 8 -16381942.315 7
  22061408.785    19995542.804 7  -3317211.720 6
 94  3 15  6 43 30.0000000  0  7 16  3  5 23 26 17 20
  22317820.884   -11009262.542 7  -6713413.043 6
  21688636.979    -9679833.168 8 -14220786.117 7
  24361100.691    29262250.582 5  14763322.865 2
  23376987.638    -7221480.561 5  -4857912.746 4
  23599017.500    -4049639.672 3  -4216522.322 1
  21415575.725   -20790390.165 8 -16414025.882 7
  22077635.591    20080800.834 7  -3250776.918 6
 94  3 15  6 44  0.0000000  0  7 16  3  5 23 26 17 20
  22331723.280   -10936206.141 7  -6656485.970 6
  21678398.077    -9733617.654 8 -14262696.115 7
  24382093.868    29372570.589 5  14849286.498 2
  23358202.823    -7320163.315 6  -4934808.365 4
  23586800.238    -4113915.243 4  -4266607.191 1
  21407798.629   -20831261.497 8 -16445873.648 7
  22093924.065    20166400.841 7  -3184075.610 6
 94  3 15  6 44 30.0000000  0  7 16  3  5 23 26 17 20
  22345689.231   -10862808.842 7  -6599293.300 6
  21668177.313    -9787307.696 8 -14304532.513 7
  24403084.016    29482902.859 5  14935259.650 2
  23339465.494    -7418625.257 6  -5011531.990 4
  23574612.176    -4177936.967 4  -4316494.185 1
  21400073.547   -20871865.225 8 -16477512.914 7
  22110271.927    20252329.310 7  -3117118.366 6
 94  3 15  6 45  0.0000000  0  7 16  3  5 23 26 17 20
  22359722.816   -10789054.726 7  -6541822.552 6
  21657986.738    -9840901.396 8 -14346293.829 7
  24424084.148    29593248.681 5  15021243.414 2
  23320775.413    -7516876.437 6  -5088091.310 4
  23562457.990    -4241698.283 3  -4366178.279 1
  21392391.785   -20912219.563 8 -16508957.851 7
  22126688.502    20338583.824 7  -3049907.081 6
 94  3 15  6 45 30.0000000  0  7 16  3  5 23 26 17 20
  22373829.670   -10714927.563 7  -6484061.133 6
  21647805.546    -9894390.588 8 -14387973.733 7
  24445083.651    29703602.077 5  15107233.083 2
  23302115.671    -7614911.168 6  -5164481.992 4
  23550390.894    -4305195.115 4  -4415656.310 1
  21384758.200   -20952334.621 8 -16540216.314 7
  22143166.595    20425168.137 7  -2982438.775 6
 94  3 15  6 46  0.0000000  0  7 16  3  5 23 26 17 20
  22388010.213   -10640412.049 7  -6425997.113 6
  21637645.190    -9947775.116 8 -14429572.069 7
  24466084.142    29813960.650 5  15193226.798 2
  23283502.816    -7712732.771 6  -5240706.626 4
  23538369.756    -4368426.252 3  -4464927.256 1
  21377167.965   -20992229.754 8 -16571303.436 7
  22159704.256    20512078.152 7  -2914716.701 6
 94  3 15  6 46 30.0000000  0  7 16  3  5 23 26 17 20
  22402266.873   -10565499.075 8  -6367623.372 6
  21627506.509   -10001051.605 8 -14471086.216 7
  24487087.932    29924316.881 5  15279218.664 2
  23264927.436    -7810333.440 6  -5316759.031 4
  23526377.338    -4431379.009 4  -4513981.365 1
  21369620.959   -21031899.503 8 -16602214.928 7
  22176303.165    20599313.199 7  -2846741.350 6
 94  3 15  6 47  0.0000000  0  7 16  3  5 23 26 17 20
  22416592.966   -10490196.318 7  -6308945.895 6
  21617392.680   -10054218.306 8 -14512514.809 7
  24508081.468    30034665.749 5  15365204.777 2
  23246396.515    -7907705.008 6  -5392632.986 4
  23514459.179    -4494051.002 4  -4562816.600 1
  21362114.156   -21071323.128 8 -16632934.630 7
  22192969.377    20686870.567 7  -2778514.840 6
 94  3 15  6 47 30.0000000  0  7 16  3  5 23 26 17 20
  22430999.222   -10414515.651 7  -6249973.964 6
  21607292.043   -10107273.735 8 -14553856.713 7
  24529076.774    30145002.764 5  15451181.677 2
  23227913.920    -8004853.724 6  -5468333.271 4
  23502582.661    -4556444.072 4  -4611434.495 1
  21354660.386   -21110503.591 8 -16663464.838 7
  22209689.252    20774747.642 7  -2710039.198 5
 94  3 15  6 48  0.0000000  0  7 16  3  5 23 26 17 20
  22445469.964   -10338475.143 7  -6190721.628 6
  21597217.547   -10160225.153 8 -14595117.580 7
  24550075.167    30255318.340 5  15537141.823 2
  23209468.319    -8101791.743 6  -5543869.401 4
  23490758.756    -4618560.013 4  -4659836.408 1
  21347251.855   -21149446.663 8 -16693810.100 7
  22226471.484    20862932.846 7  -2641323.497 5
 94  3 15  6 48 30.0000000  0  7 16  3  5 23 26 17 20
  22460005.971   -10262084.091 7  -6131196.125 6
  21587163.108   -10213059.068 8 -14636286.851 7
  24571057.191    30365621.799 4  15623092.611 2
  23191058.514    -8198495.237 6  -5619222.782 4
  23478996.339    -4680384.099 5  -4708011.169 1
  21339889.462   -21188137.635 8 -16723958.905 7
  22243314.754    20951435.078 7  -2572360.715 5
 94  3 15  6 49  0.0000000  0  7 16  3  5 23 26 17 20
  22474605.085   -10185353.530 7  -6071406.082 5
  21577130.194   -10265781.875 8 -14677369.562 7
  24592056.364    30475908.185 4  15709030.013 2
  23172709.507    -8294970.843 6  -5694398.564 4
  23467286.925    -4741926.390 5  -4755966.254 1
  21332570.809   -21226590.056 8 -16753921.823 7
  22260209.678    21040243.374 7  -2503159.455 5
 94  3 15  6 49 30.0000000  0  7 16  3  5 23 26 17 20
  22489272.341   -10108264.722 7  -6011336.894 5
  21567118.475   -10318389.114 8 -14718362.205 7
  24613039.317    30586182.404 4  15794957.933 2
  23154387.901    -8391206.599 6  -5769387.462 4
  23455636.271    -4803175.637 5  -4803692.878 1
  21325297.424   -21264808.593 8 -16783702.491 7
  22277170.256    21129358.143 7  -2433719.385 5
 94  3 15  6 50  0.0000000  0  8 16  3  5 22 23 26 17 20
  22504011.307   -10030821.120 7  -5950991.231 5
  21557129.570   -10370880.819 8 -14759264.842 7
  24634023.201    30696450.808 4  15880881.328 2
  24890825.180    -6233814.12515  -3370424.508 2
  23136123.075    -8487184.111 6  -5844175.134 4
  23444029.116    -4864126.752 5  -4851187.220 1
  21318071.826   -21302780.419 8 -16813290.912 7
  22294182.549    21218774.639 7  -2364044.207 5
 94  3 15  6 50 30.0000000  0  8 16  3  5 22 23 26 17 20
  22518820.305    -9953023.996 7  -5890370.122 5
  21547167.107   -10423255.316 8 -14800076.135 7
  24655004.595    30806721.587 5  15966806.613 2
  24875849.018    -6312503.674 5  -3431741.034 1
  23117915.030    -8582900.396 6  -5918759.233 4
  23432488.995    -4924776.998 5  -4898447.143 1
  21310893.955   -21340496.990 8 -16842680.451 7
  22311259.117    21308490.512 7  -2294135.747 5
 94  3 15  6 51  0.0000000  0  8 16  3  5 22 23 26 17 20
  22533685.304    -9874877.407 7  -5829476.657 5
  21537218.404   -10475514.624 8 -14840797.663 7
  24675987.369    30916998.128 5  16052736.387 2
  24860938.510    -6390872.110 5  -3492807.385 1
  23099748.987    -8678374.832 6  -5993154.894 4
  23421006.674    -4985131.774 5  -4945476.819 1
  21303765.250   -21377961.597 8 -16871873.630 7
  22328385.211    21398499.080 7  -2223999.206 5
 94  3 15  6 51 30.0000000  0  8 16  3  5 22 23 26 17 20
  22548619.226    -9796395.947 7  -5768322.277 5
  21527299.890   -10527650.651 8 -14881423.153 7
  24696972.212    31027277.639 5  16138668.431 2
  24846086.852    -6468915.091 5  -3553620.066 1
  23081622.425    -8773609.860 6  -6067364.000 4
  23409580.834    -5045179.913 5  -4992267.555 1
  21296686.131   -21415155.891 8 -16900856.210 7
  22345569.584    21488804.222 7  -2153631.590 5
 94  3 15  6 52  0.0000000  0  8 16  3  5 22 23 26 17 20
  22563614.275    -9717598.845 7  -5706921.945 5
  21517403.681   -10579662.205 8 -14921951.639 7
  24717949.380    31137547.595 5  16224593.058 2
  24831286.938    -6546625.546 5  -3614173.629 1
  23063545.000    -8868613.259 6  -6141392.625 4
  23398212.794    -5104915.699 5  -5038814.875 2
  21289661.004   -21452071.834 8 -16929621.862 7
  22362810.828    21579402.449 7  -2083035.552 5
 94  3 15  6 52 30.0000000  0  8 16  3  5 22 23 26 17 20
  22578672.071    -9638486.533 7  -5645276.013 5
  21507526.419   -10631550.077 8 -14962383.757 7
  24738934.372    31247792.905 5  16310498.489 2
  24816587.514    -6623989.897 5  -3674457.702 1
  23045509.336    -8963402.666 6  -6215254.523 4
  23386901.445    -5164335.794 6  -5085116.273 2
  21282685.913   -21488731.404 8 -16958187.753 7
  22380102.557    21670288.672 7  -2012215.134 5
 94  3 15  6 53  0.0000000  0  8 16  3  5 22 23 26 17 20
  22593783.769    -9559055.180 7  -5583381.451 5
  21497674.190   -10683315.179 8 -15002720.203 7
  24759906.234    31357999.372 5  16396373.684 2
  24801907.547    -6701005.291 5  -3734469.623 1
  23027509.857    -9057977.750 6  -6288949.383 4
  23375660.367    -5223437.435 6  -5131169.473 2
  21275758.039   -21525140.775 8 -16986558.704 7
  22397457.393    21761457.488 7  -1941174.501 5
 94  3 15  6 53 30.0000000  0  8 16  3  5 22 23 26 17 20
  22608966.188    -9479292.556 7  -5521228.759 5
  21487847.593   -10734960.614 8 -15042963.392 7
  24780865.564    31468149.644 5  16482205.027 2
  24787335.085    -6777668.811 5  -3794207.474 1
  23009556.186    -9152326.918 6  -6362468.206 4
  23364476.160    -5282216.965 5  -5176971.667 2
  21268874.654   -21561302.626 8 -17014736.759 7
  22414856.028    21852900.962 7  -1869919.860 5
 94  3 15  6 54  0.0000000  0  7 16  3 22 23 26 17 20
  22624210.455    -9399174.873 7  -5458799.392 5
  21478045.159   -10786481.671 8 -15083109.676 7
  24772801.536    -6853970.369 5  -3853663.232 1
  22991649.073    -9246431.792 6  -6435796.672 5
  23353354.879    -5340672.817 5  -5222521.662 2
  21262039.896   -21597235.369 8 -17042736.278 7
  22432309.345    21944619.493 7  -1798450.870 5
 94  3 15  6 54 30.0000000  0  7 16  3 22 23 26 17 20
  22639521.635    -9318711.820 7  -5396100.927 5
  21468262.451   -10837880.630 8 -15123160.805 7
  24758360.024    -6929920.366 5  -3912845.012 1
  22973789.327    -9340290.434 6  -6508933.265 5
  23342281.055    -5398818.911 6  -5267830.287 2
  21255242.582   -21632950.587 8 -17070566.317 7
  22449811.829    22036606.005 7  -1726773.083 5
 94  3 15  6 55  0.0000000  0  7 16  3 22 23 26 17 20
  22654895.832    -9237916.000 7  -5333143.155 5
  21458506.335   -10889155.432 8 -15163115.204 7
  24743966.568    -7005522.016 5  -3971755.354 1
  22955973.260    -9433884.827 6  -6581863.959 5
  23331274.385    -5456662.951 6  -5312903.566 2
  21248489.847   -21668437.367 8 -17098218.352 7
  22467368.335    22128858.176 7  -1654888.283 5
 94  3 15  6 55 30.0000000  0  7 16  3 22 23 26 17 20
  22670329.208    -9156800.320 7  -5269936.135 5
  21448774.412   -10940300.040 8 -15202968.137 7
  24729672.794    -7080762.440 5  -4030384.297 1
  22938216.313    -9527211.240 6  -6654585.837 4
  23320323.266    -5514198.751 5  -5357736.607 2
  21241778.962   -21703697.144 8 -17125693.502 7
  22484975.895    22221377.334 7  -1582795.437 5
 94  3 15  6 56  0.0000000  0  7 16  3 22 23 26 17 20
  22685822.962    -9075391.555 7  -5206500.741 5
  21439067.193   -10991307.207 8 -15242713.984 7
  24715390.951    -7155630.066 5  -4088722.719 2
  22920509.941    -9620264.297 6  -6727094.703 5
  23309441.609    -5571412.246 5  -5402318.548 2
  21235114.156   -21738729.081 8 -17152991.109 7
  22502630.913    22314166.267 7  -1510492.391 5
 94  3 15  6 56 30.0000000  0  7 16  3 22 23 26 17 20
  22701371.398    -8993699.304 7  -5142844.452 5
  21429380.239   -11042176.824 8 -15282352.640 7
  24701232.563    -7230130.271 5  -4146774.839 2
  22902856.303    -9713045.135 6  -6799391.457 4
  23298613.735    -5628292.203 6  -5446640.600 2
  21228490.272   -21773526.172 8 -17180105.718 7
  22520338.184    22407220.503 7  -1437982.617 5
 94  3 15  6 57  0.0000000  0  7 16  3 22 23 26 17 20
  22716970.678    -8911712.747 7  -5078958.823 5
  21419734.326   -11092908.482 8 -15321883.808 7
  24687133.293    -7304259.086 5  -4204537.540 2
  22885249.521    -9805548.719 6  -6871472.156 5
  23287854.934    -5684822.240 6  -5490689.919 2
  21221913.875   -21808091.329 8 -17207039.591 7
  22538097.890    22500535.929 7  -1365269.289 5
 94  3 15  6 57 30.0000000  0  7 16  3 22 23 26 17 20
  22732630.577    -8829429.743 7  -5014842.197 5
  21410106.192   -11143505.923 8 -15361310.386 7
  24673100.638    -7378014.946 5  -4262009.639 2
  22867698.832    -9897782.298 6  -6943342.482 5
  23277173.208    -5740995.247 5  -5534461.048 2
  21215379.269   -21842434.405 8 -17233800.429 7
  22555902.923    22594104.205 6  -1292358.946 5
 94  3 15  6 58  0.0000000  0  7 16  3 22 23 26 17 20
  22748344.499    -8746836.308 7  -4950483.686 5
  21400503.090   -11193966.133 8 -15400630.030 7
  24659093.915    -7451400.260 5  -4319193.010 2
  22850203.693    -9989730.670 6  -7014990.564 5
  23266544.906    -5796808.925 5  -5577952.248 2
  21208888.132   -21876548.325 8 -17260382.699 7
  22573755.564    22687923.684 7  -1219252.878 5
 94  3 15  6 58 30.0000000  0  7 16  3 22 23 26 17 20
  22764123.775    -8663916.918 7  -4885871.186 5
  21390926.370   -11244289.449 8 -15439843.010 7
  24645238.796    -7524414.412 6  -4376087.186 2
  22832760.149   -10081398.412 6  -7086419.957 5
  23255993.291    -5852274.879 5  -5621172.458 2
  21202441.815   -21910423.207 8 -17286778.713 7
  22591651.765    22781989.366 6  -1145954.948 5
 94  3 15  6 59  0.0000000  0  7 16  3 22 23 26 17 20
  22779965.018    -8580679.765 7  -4821011.069 5
  21381378.550   -11294473.090 8 -15478947.143 7
  24631420.582    -7597048.384 6  -4432685.053 2
  22815364.542   -10172787.806 6  -7157632.449 5
  23245504.632    -5907402.232 5  -5664128.810 2
  21196039.447   -21944053.285 8 -17312983.946 7
  22609601.658    22876299.410 7  -1072466.619 5
 94  3 15  6 59 30.0000000  0  7 16  3 22 23 26 17 20
  22795862.293    -8497133.488 7  -4755910.085 5
  21371856.242   -11344507.326 8 -15517934.854 7
  24617651.534    -7669299.728 5  -4488984.800 2
  22798027.904   -10263898.227 6  -7228627.565 5
  23235079.319    -5962185.220 5  -5706816.764 2
  21189691.042   -21977428.609 8 -17338990.707 7
  22627591.275    22970858.725 6   -998784.037 5
 94  3 15  7  0  0.0000000  0  7 16  3 22 23 26 17 20
  22811815.479    -8413295.456 7  -4690581.765 5
  21362360.256   -11394396.360 8 -15556809.432 7
  24603974.943    -7741180.107 5  -4544995.522 2
  22780740.641   -10354745.893 6  -7299417.952 5
  23224718.552    -6016632.173 6  -5749242.965 2
  21183391.563   -22010541.291 8 -17364792.783 7
  22645635.273    23065658.705 6   -924913.961 4
 94  3 15  7  0 30.0000000  0  7 16  3 22 23 26 17 20
  22827822.567    -8329182.926 7  -4625039.516 5
  21352899.645   -11444134.832 8 -15595566.683 7
  24590384.811    -7812676.259 6  -4600706.810 2
  22763499.397   -10445349.748 6  -7370018.304 5
  23214423.679    -6070739.201 6  -5791404.260 2
  21177134.985   -22043387.115 8 -17390386.909 8
  22663719.264    23160699.749 6   -850855.991 4
 94  3 15  7  1  0.0000000  0  7 16  3 22 23 26 17 20
  22843878.642    -8244804.242 7  -4559289.919 5
  21343461.429   -11493721.386 8 -15634205.554 7
  24576851.879    -7883797.314 5  -4656125.802 2
  22746308.578   -10535694.859 6  -7440417.111 5
  23204192.542    -6124492.521 6  -5833289.963 2
  21170936.925   -22075982.275 8 -17415785.742 8
  22681849.153    23255978.775 6   -776612.596 4
 94  3 15  7  1 30.0000000  0  7 16  3 22 23 26 17 20
  22859987.990    -8160164.280 7  -4493336.697 5
  21334053.492   -11543159.182 8 -15672728.496 7
  24563383.973    -7954539.587 5  -4711249.647 2
  22729168.334   -10625782.293 7  -7510615.071 5
  23194029.907    -6177882.427 6  -5874892.468 2
  21164782.246   -22108331.456 8 -17440992.891 8
  22700025.599    23351487.830 6   -702189.963 5
 94  3 15  7  2  0.0000000  0  7 16  3 22 23 26 17 20
  22876147.373    -8075245.889 7  -4427166.526 5
  21324676.104   -11592445.625 8 -15711133.517 7
  24549982.771    -8024883.206 5  -4766062.910 2
  22712071.020   -10715602.874 6  -7580605.084 5
  23183942.191    -6230905.388 6  -5916209.031 2
  21158668.549   -22140434.525 8 -17466008.248 8
  22718247.255    23447224.668 7   -627589.874 4
 94  3 15  7  2 30.0000000  0  7 16  3 22 23 26 17 20
  22892361.978    -7990037.924 6  -4360770.709 5
  21315324.798   -11641579.277 8 -15749419.473 7
  24536693.870    -8094833.300 6  -4820569.452 2
  22695037.353   -10805132.877 6  -7650368.714 5
  23173927.624    -6283554.108 6  -5957233.980 3
  21152604.347   -22172308.984 8 -17490845.512 8
  22736505.575    23543185.822 7   -552814.961 4
 94  3 15  7  3  0.0000000  0  7 16  3 22 23 26 17 20
  22908636.571    -7904522.825 6  -4294135.578 5
  21306003.381   -11690557.048 8 -15787583.961 7
  24523452.187    -8164402.897 5  -4874779.460 2
  22678053.690   -10894351.262 6  -7719889.491 5
  23163974.544    -6335824.400 6  -5997964.066 3
  21146581.696   -22203952.963 8 -17515503.143 8
  22754810.423    23639369.804 6   -477866.394 4
 94  3 15  7  3 30.0000000  0  7 16  3 22 23 26 17 20
  22924965.397    -7818693.913 6  -4227255.906 5
  21296717.429   -11739373.357 8 -15825622.649 7
  24510273.461    -8233585.610 5  -4928688.141 2
  22661129.477   -10983276.900 6  -7789182.166 5
  23154103.098    -6387716.367 6  -6038399.372 3
  21140611.869   -22235346.249 8 -17539965.429 8
  22773157.421    23735777.605 6   -402743.450 4
 94  3 15  7  4  0.0000000  0  7 16  3 22 23 26 17 20
  22941356.130    -7732550.122 6  -4160130.876 5
  21287458.249   -11788024.910 8 -15863532.964 8
  24497193.696    -8302397.469 6  -4982307.784 2
  22644270.798   -11071910.503 6  -7858247.277 5
  23144297.756    -6439230.304 6  -6078540.074 3
  21134681.614   -22266491.181 8 -17564234.224 8
  22791544.922    23832407.650 6   -327447.336 4
 94  3 15  7  4 30.0000000  0  7 16  3 22 23 26 17 20
  22957804.603    -7646106.167 6  -4092771.961 5
  21278232.556   -11836511.126 8 -15901314.420 8
  24484166.244    -8370853.503 6  -5035650.186 2
  22627461.674   -11160249.164 6  -7927082.563 5
  23134571.409    -6490362.370 6  -6118383.196 3
  21128801.485   -22297389.823 8 -17588311.065 8
  22809973.134    23929255.504 6   -251981.487 4
 94  3 15  7  5  0.0000000  0  7 16  3 22 23 26 17 20
  22974313.933    -7559386.015 7  -4025197.834 5
  21269038.491   -11884836.708 8 -15938970.722 8
  24471212.512    -8438934.170 5  -5088700.015 2
  22610701.657   -11248320.585 6  -7995709.608 5
  23124909.458    -6541120.303 6  -6157934.827 3
  21122971.541   -22328048.764 8 -17612201.152 8
  22828442.448    24026311.710 6   -176353.305 4
 94  3 15  7  5 30.0000000  0  7 16  3 22 23 26 17 20
  22990859.149    -7472398.383 6  -3957415.277 4
  21259873.116   -11932997.594 8 -15976498.673 8
  24458304.918    -8506613.898 5  -5141437.463 2
  22593997.701   -11336120.913 7  -8064125.442 5
  23115327.762    -6591497.009 6  -6197189.384 3
  21117177.302   -22358479.641 8 -17635913.520 8
  22846950.106    24123575.685 6   -100563.203 4
 94  3 15  7  6  0.0000000  0  7 16  3 22 23 26 17 20
  23007465.793    -7385148.722 7  -3889428.491 4
  21250738.470   -11980994.440 8 -16013898.819 8
  24445545.151    -8573882.346 6  -5193854.476 2
  22577343.091   -11423623.253 7  -8132309.062 5
  23105815.167    -6641483.310 6  -6236139.739 3
  21111423.416   -22388710.694 8 -17659470.186 8
  22865496.916    24221041.940 6    -24615.476 4
 94  3 15  7  6 30.0000000  0  7 16  3 22 23 26 17 20
  23024115.606    -7297656.627 7  -3821252.829 4
  21241631.734   -12028833.734 8 -16051176.184 8
  24432817.522    -8640731.262 5  -5245944.513 2
  22560748.919   -11510826.553 6  -8200259.673 5
  23096373.024    -6691090.123 6  -6274794.402 3
  21105706.973   -22418758.490 8 -17682884.032 8
  22884078.532    24318699.056 6     51480.955 4
 94  3 15  7  7  0.0000000  0  7 16  3 22 23 26 17 20
  23040809.400    -7209924.656 7  -3752890.256 4
  21232562.893   -12076508.529 8 -16088325.371 8
  24420146.105    -8707154.398 4  -5297702.783 2
  22544208.859   -11597725.315 6  -8267972.993 5
  23087005.619    -6740312.025 6  -6313149.089 3
  21100024.827   -22448614.918 8 -17706148.794 8
  22902702.389    24416549.180 6    127727.789 4
 94  3 15  7  7 30.0000000  0  7 16  3 22 23 26 17 20
  23057552.988    -7121943.819 7  -3684333.800 4
  21223519.593   -12124012.360 8 -16125341.342 8
  24407597.482    -8773166.340 5  -5349140.751 2
  22527735.203   -11684295.904 6  -8335430.569 5
  23077717.898    -6789133.850 5  -6351192.041 3
  21094387.499   -22478255.227 8 -17729245.132 8
  22921358.234    24514594.080 6    204126.405 4
 94  3 15  7  8  0.0000000  0  7 16  3 22 23 26 17 20
  23074337.798    -7033725.489 7  -3615592.236 4
  21214515.147   -12171339.709 8 -16162219.807 7
  24395133.940    -8838774.649 6  -5400264.098 2
  22511330.050   -11770533.213 6  -8402628.454 5
  23068500.419    -6837546.149 5  -6388915.882 3
  21088791.933   -22507656.759 8 -17752155.418 8
  22940057.639    24612834.228 6    280677.150 4
 94  3 15  7  8 30.0000000  0  7 16  3 22 23 26 17 20
  23091176.241    -6945270.104 7  -3546665.967 4
  21205544.817   -12218485.402 8 -16198956.695 8
  24382699.718    -8903981.551 5  -5451074.639 2
  22494975.503   -11856445.989 7  -8469573.478 5
  23059367.662    -6885556.302 5  -6426326.346 3
  21083246.252   -22536779.569 8 -17774848.512 8
  22958782.316    24711269.981 6    357380.314 4
 94  3 15  7  9  0.0000000  0  7 16  3 22 23 26 17 20
  23108053.028    -6856562.346 7  -3477543.035 4
  21196607.914   -12265449.825 8 -16235552.350 8
  24370348.509    -8968792.476 5  -5501576.687 2
  22478687.988   -11942051.745 7  -8536279.259 5
  23050305.146    -6933153.771 6  -6463415.287 3
  21077760.530   -22565605.426 8 -17797310.217 8
  22977556.279    24809896.117 6    434231.811 4
 94  3 15  7  9 30.0000000  0  7 16  3 22 23 26 17 20
  23124979.940    -6767597.664 6  -3408219.936 4
  21187704.318   -12312237.144 8 -16272010.006 8
  24358134.065    -9033193.646 6  -5551759.436 2
  22462456.115   -12027362.073 7  -8602754.836 5
  23041331.518    -6980340.478 6  -6500184.139 3
  21072333.807   -22594151.233 8 -17819553.698 8
  22996358.332    24908703.613 6    511224.676 4
 94  3 15  7 10  0.0000000  0  7 16  3 22 23 26 17 20
  23141963.362    -6678380.782 7  -3338700.276 4
  21178830.671   -12358848.822 8 -16308330.783 8
  24345954.636    -9097179.528 6  -5601618.538 2
  22446269.901   -12112396.680 6  -8669015.555 5
  23032425.104    -7027125.049 6  -6536639.641 3
  21066948.695   -22622443.081 8 -17841599.293 8
  23015193.243    25007685.909 6    588353.718 4
 94  3 15  7 10 30.0000000  0  7 16  3 22 23 26 17 20
  23158987.676    -6588893.902 6  -3268970.234 4
  21169992.459   -12405282.769 8 -16344513.081 8
  24333849.886    -9160739.316 5  -5651145.710 2
  22430139.777   -12197166.878 7  -8735070.257 5
  23023600.983    -7073512.106 6  -6572785.354 3
  21061609.271   -22650497.409 8 -17863459.804 8
  23034059.932    25106840.435 6    665616.948 4
 94  3 15  7 11  0.0000000  0  7 16  3 22 23 26 17 20
  23176067.213    -6499143.665 6  -3199034.996 4
  21161190.703   -12451535.946 8 -16380554.519 8
  24321834.804    -9223862.318 5  -5700332.497 2
  22414062.627   -12281665.025 7  -8800912.973 6
  23014852.349    -7119491.129 6  -6608613.166 2
  21056307.292   -22678352.483 8 -17885165.061 8
  23052960.617    25206165.413 6    743013.007 4
 94  3 15  7 11 30.0000000  0  7 16  3 22 23 26 17 20
  23193195.195    -6409143.680 6  -3128905.129 4
  21152426.210   -12497602.765 8 -16416450.737 8
  24309912.328    -9286534.688 6  -5749168.087 2
  22398041.958   -12365854.297 7  -8866515.012 6
  23006176.206    -7165068.232 6  -6644127.766 2
  21051046.174   -22706023.345 8 -17906726.762 8
  23071896.049    25305661.091 6    820542.088 4
 94  3 15  7 12  0.0000000  0  7 16  3 22 23 26 17 20
  23210369.166    -6318905.778 6  -3058589.939 4
  21143699.521   -12543480.105 8 -16452199.310 8
  24298057.755    -9348768.464 5  -5797661.898 2
  22382079.059   -12449715.356 7  -8931861.280 6
  22997580.916    -7210244.711 6  -6679330.207 2
  21045818.423   -22733492.919 8 -17928131.619 8
  23090858.701    25405326.147 6    898203.184 4
 94  3 15  7 12 30.0000000  0  7 16  3 22 23 26 17 20
  23227583.608    -6228440.361 6  -2988097.366 4
  21135005.750   -12589171.898 8 -16487803.307 8
  24286319.141    -9410568.906 6  -5845818.171 2
  22366185.682   -12533232.442 7  -8996939.540 5
  22989055.658    -7255027.088 6  -6714225.555 3
  21040625.058   -22760754.760 8 -17949374.618 8
  23109856.279    25505151.662 6    975989.264 4
 94  3 15  7 13  0.0000000  0  7 16  3 22 23 26 17 20
  23244830.189    -6137777.570 6  -2917451.042 4
  21126342.617   -12634693.013 8 -16523274.310 8
  24274637.908    -9471959.987 6  -5893655.317 2
  22350364.315   -12616399.214 7  -9061744.816 6
  22980612.813    -7299432.728 6  -6748827.366 3
  21035475.823   -22787815.584 8 -17970460.970 8
  23128875.383    25605117.584 6   1053884.769 3
 94  3 15  7 13 30.0000000  0  7 16  3 22 23 26 17 20
  23262126.025    -6046917.366 6  -2846650.895 4
  21117713.361   -12680038.053 8 -16558608.096 8
  24263012.976    -9532936.969 5  -5941169.868 2
  22334604.405   -12699222.445 7  -9126282.378 6
  22972233.194    -7343451.228 6  -6783127.428 3
  21030373.355   -22814645.880 8 -17991367.676 8
  23147926.474    25705224.358 6   1131890.028 3
 94  3 15  7 14  0.0000000  0  7 16  3 22 23 26 17 20
  23279448.123    -5955859.965 6  -2775697.095 4
  21109117.412   -12725199.232 8 -16593798.631 8
  24251490.153    -9593505.526 6  -5988366.189 2
  22318901.726   -12781722.879 7  -9190568.438 6
  22963937.577    -7387063.560 6  -6817111.042 3
  21025314.088   -22841235.530 8 -18012086.885 8
  23167002.778    25805475.089 6   1210007.448 3
 94  3 15  7 14 30.0000000  0  7 16  3 22 23 26 17 20
  23296820.557    -5864603.112 6  -2704587.854 4
  21100560.526   -12770174.107 8 -16628843.982 8
  24240058.227    -9653660.489 6  -6035240.174 2
  22303264.251   -12863908.918 7  -9254609.496 6
  22955714.000    -7430265.803 6  -6850775.115 3
  21020294.333   -22867598.951 8 -18032629.804 8
  23186106.572    25905867.273 6   1288235.108 3
 94  3 15  7 15  0.0000000  0  7 16  3 22 23 26 17 20
  23314225.637    -5773129.616 6  -2633309.818 4
  21092038.925   -12814948.555 8 -16663733.163 8
  24228685.570    -9713384.372 6  -6081778.237 2
  22287686.046   -12945782.996 7  -9318407.470 6
  22947572.386    -7473031.958 6  -6884099.376 3
  21015322.005   -22893729.350 8 -18052991.156 8
  23205241.815    26006409.787 6   1366579.912 3
 94  3 15  7 15 30.0000000  0  7 16  3 22 23 26 17 20
  23331676.826    -5681435.150 6  -2561859.601 4
  21083560.495   -12859513.372 8 -16698458.993 8
  24217398.354    -9772661.431 6  -6127968.233 2
  22272160.064   -13027354.270 7  -9381969.527 6
  22939523.858    -7515347.245 6  -6917072.315 3
  21010397.524   -22919621.846 8 -18073167.117 8
  23224403.620    26107107.196 6   1445045.404 3
 94  3 15  7 16  0.0000000  0  7 16  3 22 23 26 17 20
  23349118.721    -5589744.516 7  -2490412.386 4
  21075075.529   -12904094.840 7 -16733197.801 8
  24206167.559    -9831731.974 5  -6173997.179 2
  22256655.998   -13108845.453 7  -9445469.116 6
  22931510.526    -7557452.815 7  -6949881.810 3
  21005468.397   -22945513.977 7 -18093342.797 8
  23243553.043    26207728.126 6   1523451.317 3
 94  3 15  7 16 30.0000000  0  7 16  3 22 23 26 17 20
  23366614.489    -5497838.059 6  -2418796.943 4
  21066631.035   -12948475.966 8 -16767780.488 8
  24194999.390    -9890368.565 5  -6219688.042 2
  22241205.024   -13190035.875 7  -9508734.390 6
  22923573.970    -7599142.618 6  -6982367.400 3
  21000582.619   -22971183.747 8 -18113345.211 8
  23262729.028    26308484.477 6   1601962.742 3
 94  3 15  7 17  0.0000000  0  7 16  3 22 23 26 17 20
  23384139.757    -5405724.459 6  -2347020.141 4
  21058226.803   -12992650.734 8 -16802202.393 8
  24183935.520    -9948566.250 5  -6265036.936 2
  22225815.928   -13270922.898 7  -9571763.204 6
  22915723.964    -7640399.620 6  -7014515.714 3
  20995745.978   -22996610.679 8 -18133158.404 8
  23281918.893    26409377.448 6   1680580.599 3
